GFSMW_500_rhum_000.txt.gz
RH
35 36 27 18 30 30 24 33 44 55 60 67 66 61 52 48 49 45 36 35 53 50 51 53 51 38 20 12 11 11 21 36 40 34 29 26 24 21 20 21 24 26 29
39 38 33 22 22 30 27 31 45 50 65 69 66 61 52 51 48 26 22 41 46 48 48 45 30 13 11 11 16 44 44 40 36 29 26 22 24 26 29 31 32 32 33
40 39 35 30 24 27 34 32 39 47 62 69 66 62 52 49 48 37 39 43 42 37 29 15 10 11 17 42 52 43 33 30 28 28 31 33 32 32 33 34 33 32 33
42 38 34 30 24 22 34 40 35 46 57 61 59 55 50 51 56 52 49 36 22 15 12 12 16 34 57 46 38 35 28 28 31 33 33 32 32 32 31 30 32 31 31
44 41 31 28 24 26 32 24 24 40 48 53 53 48 52 54 57 58 49 25 15 13 14 21 48 62 43 38 32 29 30 32 34 34 33 34 33 31 27 24 24 27 28
42 36 30 27 23 27 29 20 22 36 48 48 46 53 56 54 59 45 22 16 12 17 29 60 59 41 32 32 36 37 37 37 37 39 37 34 30 29 26 24 22 20 20
42 36 30 27 24 24 29 28 12 26 45 44 48 56 55 54 42 20 15 13 20 36 65 58 39 33 38 40 40 40 41 44 43 40 36 32 29 27 26 23 21 20 16
41 35 32 27 23 24 31 33 9 11 34 43 50 52 46 34 18 13 15 20 41 67 58 37 36 41 42 42 44 44 49 48 43 38 34 32 30 22 14 14 15 12 11
35 33 32 30 30 30 37 28 6 7 25 31 32 30 19 17 12 16 22 43 69 55 39 37 43 43 47 47 51 52 54 48 40 37 36 31 18 11 11 13 13 14 12
38 31 29 29 32 36 44 27 7 5 9 14 14 15 15 14 17 22 54 76 64 47 47 48 45 50 47 53 58 60 52 41 38 36 27 19 14 14 17 18 14 12 11
41 37 34 37 40 46 46 39 33 25 20 22 21 15 17 17 31 75 85 64 62 62 51 45 49 44 50 67 62 55 43 39 35 23 18 16 21 19 12 12 12 10 9
41 44 50 50 51 46 36 29 26 23 25 17 18 18 19 48 88 87 58 59 65 49 42 51 43 53 72 62 57 45 40 34 22 20 24 20 11 12 12 10 9 9 10
42 39 39 41 42 41 33 24 18 17 19 20 17 24 60 87 85 72 58 62 51 43 62 37 56 74 63 60 48 42 31 22 23 26 13 13 12 12 12 11 10 11 11
45 41 35 29 26 24 23 23 24 24 20 18 33 66 83 86 80 63 66 62 59 78 38 57 71 66 66 52 42 28 24 27 22 14 14 13 12 12 10 12 13 10 3
44 40 38 35 33 30 27 23 18 15 19 39 55 71 87 82 74 75 73 77 86 40 70 67 71 76 57 42 27 28 31 20 15 14 13 13 12 11 13 14 7 4 12
50 45 36 32 31 30 28 20 12 16 26 38 67 78 82 83 83 85 89 84 59 69 66 78 85 61 40 29 30 32 22 16 16 15 15 14 15 17 10 3 7 16 15
54 50 45 36 31 21 11 6 9 23 50 71 73 88 86 85 95 98 94 80 56 64 85 91 64 38 32 33 32 26 18 17 18 16 15 16 14 5 3 12 12 12 16
52 59 52 42 30 16 11 25 45 59 67 81 92 94 95 98 96 89 57 60 73 92 92 64 38 37 34 32 24 19 17 17 17 18 19 11 4 5 12 9 11 14 17
61 56 50 38 19 16 27 40 61 80 92 100 100 98 95 92 54 47 65 76 89 92 59 42 39 36 31 22 20 18 17 17 18 18 10 3 9 10 9 12 13 13 13
62 60 51 38 36 45 59 74 89 95 86 86 85 80 63 40 56 61 72 94 84 55 46 41 37 27 22 20 20 18 15 15 16 11 4 13 9 9 13 13 13 14 22
76 75 65 58 58 66 84 83 64 55 54 61 55 36 43 55 62 82 94 73 55 50 44 37 25 22 21 21 18 18 18 18 11 4 11 8 9 13 14 14 20 22 33
74 70 64 75 87 90 92 94 76 69 56 35 36 51 62 69 89 84 70 57 56 47 35 26 22 22 22 21 19 19 19 10 6 11 7 9 15 16 16 20 26 79 96
76 84 91 94 87 65 63 81 76 58 47 60 70 67 82 83 80 68 62 56 45 33 26 23 24 25 23 22 20 18 9 6 11 7 8 18 20 20 21 41 91 96 93
95 90 82 81 80 75 60 54 55 60 66 63 75 81 77 78 72 67 55 42 31 26 26 27 26 24 23 22 19 9 5 10 7 7 16 19 12 17 70 85 88 90 95
83 78 69 54 39 30 33 52 67 65 75 81 73 78 75 72 60 50 38 30 27 28 28 27 25 24 24 19 8 6 10 7 6 13 19 11 20 92 96 90 91 94 94
21 18 20 28 38 54 70 69 73 83 70 72 73 74 68 57 48 38 31 31 31 32 30 29 28 28 20 8 6 9 8 6 11 18 13 65 92 90 93 96 95 97 98

GFSMW_500_rhum_003.txt.gz
RH
17 47 42 37 32 22 27 27 21 25 42 45 61 68 70 63 61 52 51 51 34 22 41 43 42 39 31 18 11 11 10 15 46 50 43 41 37 31 27 27 32 34 35
15 31 48 39 34 23 20 33 31 24 42 53 62 69 71 68 63 56 53 48 36 39 45 38 27 18 13 15 19 15 35 51 49 45 37 30 30 33 37 37 36 36 37
11 22 52 42 33 26 22 24 34 27 35 48 60 70 74 68 64 57 49 55 54 51 48 39 21 15 18 21 20 50 55 47 43 36 38 42 41 40 40 41 40 38 36
11 18 50 42 37 32 29 24 31 41 41 40 49 60 68 65 60 52 50 55 57 54 43 22 16 18 24 23 49 58 43 35 38 43 40 43 45 42 40 42 39 35 32
12 16 51 42 37 34 33 29 28 36 46 39 43 50 57 56 53 48 53 55 58 48 26 15 16 22 25 53 59 40 36 44 44 46 49 47 45 47 45 36 31 31 30
16 19 54 42 33 33 32 32 34 34 22 23 31 42 46 47 45 44 52 52 48 29 14 15 24 37 64 56 41 40 46 45 50 52 50 46 53 48 39 31 27 25 26
18 25 51 38 35 34 32 30 33 33 15 16 21 34 42 44 41 45 48 45 30 16 15 26 47 63 56 44 48 49 48 54 53 50 52 61 52 42 35 33 30 27 26
21 29 49 37 35 32 30 30 34 33 23 9 8 24 35 36 39 41 38 26 17 17 30 52 68 67 49 54 55 51 53 49 46 63 63 55 45 38 36 29 26 25 22
24 24 50 39 34 31 30 36 42 42 25 9 4 11 25 30 33 31 27 17 20 30 57 75 72 65 63 56 48 50 50 50 66 64 59 48 42 35 26 27 30 20 17
28 26 46 35 32 33 35 42 50 52 42 12 6 9 15 19 24 25 16 20 29 63 80 71 64 63 54 46 54 53 50 69 66 64 55 45 34 28 33 28 18 15 14
35 47 45 32 32 35 38 44 52 56 42 20 17 22 21 23 22 19 21 32 68 80 76 63 63 54 48 59 69 49 64 68 70 61 48 35 34 36 28 20 17 15 13
54 57 43 38 38 43 45 53 55 49 42 36 26 21 22 19 22 21 44 73 85 80 66 64 63 59 75 76 40 61 71 76 67 50 36 37 38 31 21 15 12 10 9
62 50 41 41 48 54 54 49 44 36 26 21 21 20 24 26 26 56 81 88 83 70 68 75 78 88 73 60 62 72 82 70 50 39 40 37 26 19 15 12 11 10 8
64 60 51 53 56 53 51 45 36 27 21 22 26 29 26 31 66 83 89 80 73 77 82 85 92 81 62 60 80 87 72 48 42 41 31 21 16 14 13 13 12 10 7
60 57 51 44 37 31 27 25 24 28 32 29 25 24 44 62 79 78 81 82 79 82 90 93 79 54 75 85 90 72 48 46 40 24 18 15 16 16 16 14 11 5 4
64 55 47 42 39 37 35 33 30 28 28 24 27 38 58 72 76 94 94 88 86 94 85 48 60 73 80 89 67 50 48 32 23 18 16 18 20 19 16 9 4 5 6
65 57 48 42 37 34 32 30 27 16 15 18 42 59 70 91 92 91 96 97 81 53 45 62 66 86 86 61 53 47 30 23 19 19 21 22 20 15 8 3 6 6 10
72 73 67 61 53 37 27 20 14 13 35 53 68 86 93 98 99 88 82 74 51 48 60 70 93 80 60 54 41 29 24 22 22 25 25 20 16 7 4 6 7 12 14
82 77 66 54 47 39 30 22 24 42 67 86 94 100 95 74 72 76 66 39 56 65 80 92 74 62 51 35 27 24 23 23 26 26 21 14 5 5 6 7 14 17 20
73 66 61 57 54 46 39 48 62 80 92 100 93 77 67 69 66 38 54 65 68 90 84 72 63 44 30 28 26 26 27 24 23 22 13 5 6 7 7 14 16 24 56
64 68 73 73 68 63 65 74 91 97 95 96 92 77 71 46 56 68 66 77 87 82 73 59 39 31 29 28 30 30 28 24 20 13 5 7 7 7 13 13 30 77 79
78 80 78 75 71 83 95 98 95 84 73 76 72 55 60 68 65 70 84 81 79 70 54 39 34 33 33 34 32 31 27 21 12 5 7 8 7 13 13 23 79 87 85
81 80 79 84 98 99 92 84 81 76 62 54 55 63 64 70 82 78 80 74 62 51 41 35 34 34 35 33 32 26 20 11 5 7 9 7 14 13 29 77 85 85 84
81 86 91 88 80 79 76 61 48 40 44 62 68 69 82 74 74 74 69 56 50 43 38 35 35 34 33 31 25 20 12 5 7 10 7 14 13 56 79 76 80 81 86
85 83 74 52 42 37 30 28 45 67 70 67 82 73 67 73 72 64 55 54 48 40 36 34 33 31 29 24 19 13 6 8 11 8 12 10 72 84 83 85 87 87 89
72 40 32 34 34 35 46 66 73 64 82 78 67 71 74 68 61 58 60 49 40 40 38 39 35 30 26 21 13 6 9 13 9 10 8 58 80 88 93 93 93 88 73

GFSMW_500_rhum_006.txt.gz
RH
19 15 13 26 50 43 39 31 26 29 16 20 29 42 49 68 74 69 58 59 55 52 53 36 27 40 45 40 30 15 18 25 22 37 49 50 52 45 37 39 41 42 42
19 17 12 14 44 46 40 36 26 30 37 30 24 43 50 65 75 70 66 64 59 55 51 52 50 52 47 33 16 16 26 25 33 54 56 46 39 44 46 45 46 46 46
17 21 16 17 22 47 43 40 29 25 40 36 25 40 60 68 76 76 73 66 62 54 50 55 59 56 42 23 15 23 24 26 39 55 47 48 50 50 48 51 53 50 52
20 23 21 19 17 47 45 37 35 24 27 36 29 32 48 56 67 72 72 66 61 53 49 52 58 54 34 14 19 24 28 44 59 53 53 54 50 48 45 51 54 57 56
24 26 24 20 19 35 49 37 36 27 25 30 38 42 43 45 50 60 63 60 54 49 44 50 54 42 16 15 25 36 56 62 58 57 55 52 55 57 54 53 57 55 50
28 33 27 19 17 30 48 41 40 34 31 28 28 43 42 38 42 47 48 48 47 42 41 50 43 21 15 25 45 62 66 58 61 58 52 54 57 60 61 53 47 42 43
26 32 30 20 18 38 49 42 40 37 33 32 35 24 19 23 28 36 40 43 44 36 41 41 24 15 26 50 69 69 66 64 58 47 50 61 67 63 57 53 51 45 41
30 34 31 20 28 46 47 43 40 36 32 33 35 22 7 10 16 30 41 40 33 34 34 22 17 25 46 71 68 67 67 59 45 52 67 54 53 62 65 63 56 45 39
35 38 33 24 40 56 45 43 38 36 32 32 34 24 8 3 5 8 19 28 31 26 22 19 23 52 71 76 65 65 62 50 67 80 60 60 65 72 71 60 45 45 41
34 41 38 28 61 55 45 40 36 36 36 37 43 37 18 8 9 12 16 20 28 24 20 25 55 74 78 65 65 67 62 79 85 66 61 72 77 74 58 47 51 37 23
39 51 41 39 65 58 45 40 37 38 42 50 52 51 43 20 16 23 24 31 23 22 30 58 72 77 67 65 76 76 82 89 65 64 78 83 75 58 55 49 25 21 20
44 50 42 61 60 54 44 37 39 43 48 50 58 57 43 32 28 22 30 26 23 36 60 67 71 69 72 79 83 92 82 59 71 75 82 73 59 59 34 25 22 20 16
52 56 42 43 55 57 42 40 42 47 54 55 56 49 40 24 24 27 30 24 40 59 67 71 79 80 82 91 81 50 63 70 73 80 70 62 48 28 24 21 14 13 12
70 76 60 62 63 50 45 44 48 54 56 51 44 31 25 26 32 30 27 42 62 71 78 85 90 92 86 49 50 62 66 79 81 66 63 35 27 26 24 18 15 13 11
89 75 74 70 65 59 58 55 55 56 50 40 28 26 32 32 29 32 43 76 85 89 94 94 84 70 45 48 62 70 83 78 68 53 30 29 27 24 21 16 12 10 8
93 99 93 75 65 60 59 57 47 37 28 30 33 35 39 23 30 64 83 95 96 98 83 77 65 40 57 65 76 85 76 69 42 32 30 31 29 24 17 12 10 6 5
93 92 87 68 56 49 41 37 35 35 33 35 32 16 25 53 74 90 96 98 82 72 71 50 46 67 69 84 85 75 63 38 33 33 32 26 23 18 14 10 5 6 7
78 71 58 50 46 43 39 38 37 33 22 13 30 48 70 85 90 96 92 78 75 71 45 63 68 75 88 82 71 55 38 35 36 33 30 24 20 15 10 5 6 7 9
82 70 68 71 62 47 32 24 23 28 37 50 69 80 84 95 98 94 87 82 61 61 68 68 81 86 78 64 50 40 37 39 37 32 25 19 15 9 5 6 7 9 12
95 93 82 59 52 53 52 48 48 58 66 75 82 97 97 94 90 84 67 59 65 66 76 84 79 69 57 49 43 40 40 36 28 23 18 16 8 5 9 8 9 12 56
79 89 90 81 75 70 67 65 68 76 87 91 93 89 82 80 68 55 63 66 72 82 77 72 65 55 52 44 45 42 33 25 21 19 16 6 6 10 8 10 22 64 71
100 90 89 87 83 77 76 81 88 92 95 91 85 79 64 50 55 67 72 80 78 73 67 59 57 55 48 47 38 30 24 23 21 15 5 6 11 8 8 22 81 74 76
100 99 95 88 84 85 90 97 97 90 84 66 48 38 47 70 71 79 76 71 66 63 59 60 54 49 45 38 28 23 24 22 13 4 7 12 8 7 17 76 72 84 89
100 97 92 91 94 92 83 74 56 36 30 31 48 65 68 79 78 71 70 67 64 62 61 50 48 39 31 27 25 24 22 12 3 6 12 9 7 22 73 75 82 83 81
100 100 100 92 78 46 34 33 33 37 50 66 67 80 86 72 72 70 70 67 64 55 49 41 33 30 27 24 23 21 13 4 6 10 11 8 42 84 87 85 72 61 39
100 95 82 42 37 37 36 38 53 69 68 75 94 80 75 73 73 72 69 60 54 46 38 33 30 26 25 25 22 12 4 7 10 12 12 64 85 90 73 48 43 40 40

GFSMW_500_rhum_009.txt.gz
RH
20 21 20 17 15 13 26 50 47 41 37 31 32 36 20 27 39 50 70 78 69 57 58 57 55 53 52 48 48 51 48 30 16 16 26 28 34 48 49 45 46 47 46
22 23 24 20 19 16 16 35 46 42 40 31 32 36 28 25 42 50 70 77 73 63 64 62 58 53 51 56 60 60 48 23 14 23 33 44 50 52 47 48 51 49 50
28 26 25 22 20 18 16 29 51 44 39 42 39 43 38 29 41 56 63 76 78 72 70 66 61 55 51 54 56 56 42 17 17 28 38 46 52 51 53 53 51 52 55
35 30 25 21 22 18 16 18 40 47 43 48 38 38 43 25 32 51 67 75 76 73 74 67 62 53 49 50 49 51 32 15 27 37 47 55 53 50 45 50 51 57 64
32 34 28 25 26 22 19 18 27 46 48 48 39 31 38 37 29 36 46 52 57 62 62 59 53 48 46 45 46 42 16 20 37 50 55 56 54 51 52 53 58 67 53
26 33 34 28 29 26 22 19 22 47 49 48 44 36 31 37 42 45 45 43 45 48 47 46 43 43 46 42 40 19 18 30 48 58 56 55 60 57 58 64 66 58 54
28 29 31 36 38 30 24 22 21 40 50 48 46 43 36 31 33 38 39 34 32 32 35 37 39 39 38 36 20 19 32 40 59 59 55 63 59 64 76 75 62 50 44
35 34 35 40 42 36 26 22 25 47 51 48 48 44 37 34 34 32 18 16 17 20 28 32 34 36 32 22 22 32 43 58 61 58 70 74 76 84 78 62 56 42 49
35 38 38 36 38 39 27 25 42 54 53 48 47 42 35 33 36 32 14 3 7 16 26 33 34 33 23 24 32 40 54 60 62 74 80 85 78 63 65 64 66 65 50
36 35 38 39 39 38 29 26 37 51 53 46 42 38 34 34 33 30 21 10 15 24 35 39 35 25 25 31 37 50 64 71 78 79 75 57 60 64 71 72 69 61 44
35 36 39 40 40 38 28 26 42 54 51 44 42 40 40 41 47 48 47 33 26 36 45 37 28 26 32 35 53 72 81 82 80 50 50 59 68 81 76 70 59 38 31
33 38 41 44 41 38 28 40 53 57 48 43 44 44 48 56 65 62 53 40 32 46 40 33 34 37 46 65 81 86 83 68 43 52 65 79 81 76 68 51 36 32 29
34 36 41 43 45 39 37 54 65 58 50 47 51 54 59 63 65 59 46 31 48 43 34 40 47 68 84 82 77 76 52 42 62 68 84 79 74 61 43 37 33 30 26
37 35 40 47 49 45 55 67 66 58 54 54 61 60 61 65 59 40 32 47 45 37 42 69 89 87 82 74 71 48 51 66 76 83 77 66 52 43 38 33 30 20 16
40 41 47 56 55 53 66 68 66 62 58 63 63 62 60 50 37 38 42 38 36 57 87 94 87 74 73 73 52 61 67 81 81 73 59 48 44 38 34 25 18 16 18
61 70 78 72 64 60 67 75 71 69 73 72 64 59 50 38 47 39 27 39 83 96 95 88 83 80 72 58 65 70 81 74 65 54 50 43 39 33 24 20 18 17 8
90 87 93 98 90 84 83 82 80 77 75 66 48 38 44 44 26 32 77 93 97 93 90 84 78 61 64 66 79 79 69 62 54 52 42 36 28 23 22 18 13 5 4
85 94 97 94 92 88 81 79 71 58 45 42 43 41 23 31 71 97 96 97 92 85 82 67 60 67 72 81 72 66 60 56 50 40 34 26 24 19 17 11 3 3 8
97 97 98 97 97 89 64 50 46 42 37 25 21 36 75 95 90 91 92 86 77 74 58 64 69 79 73 68 64 59 59 45 36 32 28 23 19 17 9 3 4 8 6
99 98 98 93 89 90 82 57 36 32 37 59 81 92 95 96 95 86 78 77 59 61 68 76 76 66 66 64 60 52 40 32 29 24 23 20 18 7 3 5 8 5 18
98 99 100 91 85 76 65 62 65 73 80 89 96 97 98 94 87 78 55 59 68 74 79 71 67 67 64 57 44 38 33 29 23 21 19 17 6 4 8 8 5 26 73
85 86 90 89 88 87 86 81 80 90 93 96 99 98 88 66 45 53 69 72 80 76 69 70 71 63 50 41 36 34 30 24 20 18 15 5 5 8 8 8 51 78 82
88 87 78 88 94 88 86 89 95 99 99 88 65 39 34 48 70 70 81 82 70 68 71 69 56 44 41 39 34 28 24 20 18 12 4 6 8 9 19 74 79 86 77
85 95 93 89 88 93 97 98 84 54 38 37 40 56 70 69 80 88 75 68 70 71 62 46 40 41 37 30 25 23 18 16 10 4 6 8 10 31 76 80 60 38 35
97 92 90 93 98 94 73 44 41 40 42 51 64 67 78 88 83 72 70 74 68 54 41 41 38 33 27 24 20 15 13 8 4 6 8 11 42 85 70 42 37 36 31
87 88 97 96 77 49 44 44 44 43 51 61 74 89 88 77 69 71 71 64 47 41 40 37 30 26 24 19 15 14 6 4 6 8 15 62 72 44 42 38 31 28 30

GFSMW_500_rhum_012.txt.gz
RH
11 13 16 19 19 14 13 14 46 53 48 45 42 43 45 43 32 29 34 39 52 75 80 75 55 55 58 57 55 52 51 55 59 60 57 40 16 16 29 34 39 44 44
19 14 17 19 26 20 16 15 16 38 56 55 48 52 54 54 34 35 22 32 47 62 76 77 68 61 64 64 60 56 51 50 51 52 55 38 20 21 33 40 44 46 46
23 20 22 19 26 25 22 20 17 19 28 56 56 52 52 50 40 41 27 31 46 56 72 79 76 71 72 72 68 58 52 50 50 49 46 28 20 32 42 49 54 55 54
24 26 23 22 25 26 27 24 21 19 17 35 52 55 57 52 44 47 36 31 46 60 66 78 81 70 67 74 66 54 48 48 48 46 40 18 22 27 38 54 56 60 61
22 28 27 26 27 28 29 27 24 19 19 22 54 58 62 55 38 41 46 26 32 48 56 60 56 54 54 52 47 44 45 48 44 40 22 21 27 31 36 46 52 56 64
20 26 34 26 25 24 26 28 23 19 16 16 34 54 58 50 42 33 38 45 42 47 48 46 43 43 42 39 36 38 39 37 33 23 19 27 30 40 39 42 61 72 79
22 26 30 33 29 31 30 29 24 23 19 18 20 51 53 49 48 43 37 41 47 47 42 36 33 30 31 31 37 35 32 30 24 19 26 30 39 42 54 64 65 64 57
27 27 30 32 30 30 35 31 27 27 24 20 20 42 54 55 51 49 44 39 35 31 25 18 16 16 25 33 36 36 31 25 20 24 29 38 48 66 70 69 56 50 50
32 33 38 27 27 28 41 39 35 32 28 24 21 29 54 56 52 49 45 41 36 27 16 13 14 22 32 36 40 38 22 24 24 29 43 59 66 69 60 45 47 41 32
37 33 38 31 26 32 45 43 40 37 32 25 22 28 53 57 48 46 44 41 32 27 26 28 30 35 41 42 37 26 26 26 40 60 66 67 66 47 44 46 46 56 48
40 40 39 38 33 39 40 38 37 36 33 26 29 40 59 53 48 49 52 57 62 64 61 51 42 45 46 37 30 25 40 64 72 69 70 59 48 49 48 62 55 51 47
38 44 43 40 42 44 41 35 34 34 33 35 40 52 60 51 53 58 62 72 80 76 64 52 49 49 40 31 29 58 79 76 70 72 64 54 50 69 64 55 53 49 46
31 42 46 44 41 43 43 41 38 37 35 37 48 68 56 56 60 66 73 79 82 76 53 54 60 42 33 40 75 88 81 76 75 58 52 62 72 61 57 54 51 40 28
26 36 46 43 41 40 43 42 41 39 41 52 73 66 62 64 72 78 82 89 82 50 58 83 50 40 65 88 92 83 77 64 55 59 72 67 59 56 54 47 32 25 20
21 32 42 40 42 44 44 43 47 58 70 76 78 73 76 92 93 92 95 82 59 64 89 51 56 87 97 94 83 74 54 56 71 72 63 58 56 53 35 27 23 18 17
25 39 45 44 48 50 52 53 59 84 79 88 83 88 99 100 91 74 72 66 66 88 45 82 98 100 94 80 64 53 63 75 67 62 61 58 44 30 26 22 20 17 15
49 52 49 53 57 64 61 64 76 91 95 96 81 100 96 82 77 61 67 61 60 68 95 100 100 89 74 56 58 73 74 66 63 63 52 34 30 25 22 18 16 16 9
54 54 58 62 66 72 76 87 87 98 96 100 100 96 87 64 58 60 45 66 91 98 100 95 80 61 56 70 77 72 67 67 58 40 35 33 25 21 18 15 12 6 4
95 89 90 99 100 99 95 95 100 100 99 96 82 70 56 49 39 57 89 99 100 99 87 68 52 68 79 78 71 68 66 48 36 36 31 25 20 18 14 9 4 4 6
88 82 95 100 99 96 96 98 99 98 97 78 51 35 36 68 90 100 100 100 93 71 48 63 77 81 77 68 69 57 39 35 32 28 24 22 16 13 7 3 4 6 10
95 97 96 95 97 97 97 97 94 85 78 82 77 80 95 100 100 100 91 61 45 61 75 84 81 70 70 66 47 36 34 31 27 25 21 15 12 6 4 4 6 25 72
99 99 94 94 96 96 97 80 79 81 82 89 96 99 100 96 72 45 40 63 74 84 86 78 71 70 57 40 35 34 33 29 26 20 15 13 5 4 5 13 49 72 66
95 100 99 98 97 93 92 91 88 93 99 100 96 64 41 38 49 70 72 81 90 81 72 70 66 50 38 36 37 36 32 27 20 15 12 4 4 6 32 56 52 36 36
97 92 95 96 98 97 93 93 96 98 67 43 40 40 45 62 70 77 91 84 73 66 67 59 44 38 37 36 35 31 24 17 14 10 4 5 8 42 47 34 36 33 25
89 95 96 96 90 88 97 93 55 41 44 45 45 51 62 77 90 86 76 65 66 63 50 41 37 33 32 32 27 20 15 13 8 4 5 8 44 37 38 38 27 26 29
96 96 85 83 88 93 57 43 46 44 47 49 56 70 90 87 82 70 66 67 56 44 38 33 32 32 27 23 17 14 11 6 4 5 9 42 31 29 27 29 28 34 51

GFSMW_500_rhum_015.txt.gz
RH
16 14 11 12 18 21 19 16 13 14 21 39 49 50 46 43 49 48 49 43 36 32 38 52 50 71 82 79 59 55 59 60 59 57 53 52 50 52 53 51 48 26 21
16 16 15 12 12 15 20 24 19 15 13 15 33 50 51 50 51 57 59 64 40 38 30 34 44 59 80 80 73 69 69 71 74 69 58 52 51 51 52 53 44 24 26
15 15 18 18 15 13 14 19 21 22 18 15 15 17 33 55 56 59 60 56 44 41 30 25 42 55 73 79 80 81 78 74 81 80 56 45 46 52 49 40 22 22 26
16 16 16 17 18 16 15 15 18 24 24 18 18 16 17 27 59 58 59 58 52 53 42 31 41 56 64 69 81 84 78 67 60 51 43 43 46 46 37 24 23 25 34
18 17 17 17 19 20 16 18 15 25 25 23 22 20 16 16 56 62 62 61 52 45 51 31 28 45 55 59 58 50 46 45 41 38 38 39 38 32 24 22 26 23 31
14 15 17 19 18 18 18 20 17 21 26 26 26 22 19 20 46 61 65 59 50 37 42 53 52 44 47 50 49 44 38 29 24 27 28 30 29 25 22 21 23 27 45
14 14 15 17 20 19 18 23 24 20 28 28 27 24 20 23 33 51 64 57 50 46 42 44 49 51 48 40 30 24 22 21 20 20 25 34 25 24 22 16 26 38 56
13 11 11 16 17 19 18 28 32 29 33 32 27 23 22 26 38 45 63 59 57 52 48 45 42 38 33 23 17 23 33 32 28 33 34 24 22 20 31 46 46 48 58
12 10 9 18 19 19 20 30 39 35 36 30 25 25 26 35 27 46 61 63 57 56 53 49 44 35 27 25 31 38 40 41 41 33 26 25 36 59 62 61 61 60 51
15 22 40 28 23 21 23 33 39 35 39 31 27 29 32 27 26 49 61 66 60 57 52 47 43 45 62 64 58 51 50 46 34 30 34 58 67 68 65 66 53 37 43
95 85 85 48 26 23 32 36 35 32 36 34 32 33 36 33 39 51 72 70 61 60 61 64 76 81 79 71 57 54 51 38 33 53 81 80 70 70 57 39 54 60 51
98 92 83 60 34 29 44 42 32 31 40 42 41 39 38 38 35 65 72 66 65 68 72 81 91 94 85 59 66 68 44 43 84 90 83 75 68 42 55 65 57 51 48
88 75 72 69 39 39 50 46 38 39 49 49 46 43 43 36 54 73 75 70 73 78 81 90 96 92 58 80 98 61 61 93 94 87 77 53 48 68 64 56 51 50 39
69 53 57 69 47 49 51 49 47 47 49 48 46 42 40 51 63 82 73 76 77 81 94 100 96 69 77 100 68 83 97 96 85 65 49 69 71 63 56 52 41 30 24
49 39 47 65 52 48 55 56 57 49 47 46 44 44 48 56 81 77 75 68 87 99 100 93 89 79 100 73 94 98 94 76 53 63 76 70 61 56 44 32 26 23 20
49 33 40 61 50 59 63 62 65 54 50 51 46 98 62 89 87 84 76 98 100 93 76 81 79 89 87 100 100 89 62 55 77 78 69 61 50 36 28 25 23 21 14
36 28 39 59 52 59 61 60 56 54 57 78 89 73 64 76 80 77 98 98 84 72 59 65 84 96 100 99 79 54 71 82 76 64 58 43 32 28 27 24 18 10 13
26 32 54 56 52 60 60 58 55 52 57 60 76 73 91 73 78 99 84 74 58 56 48 90 99 100 93 57 63 81 83 70 62 52 36 30 30 27 22 11 10 14 8
44 51 51 51 62 67 71 68 67 83 99 84 75 69 95 98 79 64 70 57 41 80 98 99 97 60 57 79 86 78 63 60 46 36 31 28 24 19 13 11 11 5 3
47 47 45 46 56 72 81 85 73 97 93 100 98 82 62 68 72 56 64 86 98 99 96 56 58 76 88 84 68 62 57 42 32 27 26 23 15 10 11 9 4 3 13
97 91 92 98 99 97 98 99 98 90 94 98 70 75 84 77 84 92 98 98 77 48 58 76 83 87 75 63 61 48 37 30 27 24 18 12 10 11 8 4 4 16 43
65 68 72 70 73 78 80 77 75 74 83 83 80 82 88 96 97 76 50 49 67 78 80 87 81 64 63 54 42 34 30 28 21 15 11 10 10 7 4 4 22 40 32
88 95 97 97 95 96 96 94 86 82 87 92 95 93 80 48 45 51 67 73 76 89 87 70 63 60 45 38 34 33 28 16 9 8 9 8 5 4 5 30 31 27 26
98 96 93 94 94 95 96 98 98 97 96 94 63 48 49 51 57 65 73 90 89 76 63 62 52 44 38 36 35 25 14 9 9 8 6 4 4 7 34 21 16 19 23
86 97 97 99 98 97 96 97 99 93 64 53 48 51 52 57 68 91 92 82 65 61 58 47 42 37 38 35 26 14 11 9 8 6 4 5 11 30 16 15 16 21 27
97 98 99 100 99 96 100 85 64 52 50 52 51 52 67 89 92 88 73 64 63 53 46 39 38 39 33 19 14 13 9 9 6 4 6 13 21 15 18 20 23 27 33

GFSMW_500_rhum_018.txt.gz
RH
12 12 12 14 14 14 14 13 14 13 13 12 11 15 27 41 46 47 50 50 52 56 52 55 41 34 30 36 40 49 72 82 78 63 66 70 73 75 72 56 50 50 52
13 15 11 11 14 14 13 13 14 17 17 12 14 18 14 14 24 44 50 58 59 58 61 60 56 38 36 26 32 48 61 78 81 79 77 81 70 70 69 60 46 47 50
11 11 12 12 12 14 14 14 12 15 18 14 15 19 24 17 14 22 33 46 60 59 62 62 55 45 46 27 30 49 58 71 76 78 81 77 67 59 51 45 42 44 42
11 12 13 13 15 14 16 15 15 14 14 14 12 14 21 18 16 16 22 37 40 63 62 63 59 53 53 37 32 37 52 63 67 69 61 49 45 38 35 36 30 26 24
13 14 14 14 14 15 16 17 14 16 16 15 21 18 17 21 19 19 20 31 36 60 64 70 68 53 45 50 47 36 33 39 46 51 47 38 27 20 16 14 20 24 28
15 15 16 15 15 17 17 16 16 16 15 18 19 16 16 22 23 23 23 35 39 52 70 70 63 58 42 38 41 49 52 51 43 33 19 12 11 11 12 22 30 30 29
28 22 15 12 14 15 16 18 16 17 17 19 20 18 20 26 27 27 30 40 42 44 67 64 62 61 51 47 45 43 41 37 28 18 21 27 30 37 37 32 32 25 35
24 29 28 23 18 16 16 15 15 18 20 19 26 23 16 29 30 30 37 41 42 42 56 62 65 56 54 54 51 47 38 30 39 55 53 50 46 43 32 27 23 28 45
53 45 38 31 26 21 17 17 13 18 22 21 32 23 26 35 34 36 41 45 38 39 54 67 65 61 60 54 48 46 56 75 72 66 60 55 45 35 30 44 55 52 47
47 59 45 43 29 18 16 13 13 16 20 22 28 29 43 38 32 36 39 48 41 44 57 68 70 63 56 59 66 82 91 90 75 60 62 57 37 49 69 72 72 66 45
45 62 49 33 29 20 13 12 11 15 17 23 28 41 46 37 31 33 42 44 42 52 57 74 69 63 66 75 90 99 97 78 56 65 72 46 71 86 84 74 52 47 63
50 56 55 39 29 36 29 40 22 28 16 29 42 42 44 37 33 34 37 46 54 53 73 72 67 69 81 99 98 98 83 61 81 90 51 84 90 86 64 44 66 64 52
85 61 40 75 96 79 100 72 40 34 24 42 44 42 43 40 36 44 45 49 49 66 69 73 72 82 99 97 98 100 80 76 78 64 93 94 81 52 58 71 59 49 41
93 57 40 90 100 92 97 83 61 62 56 54 50 46 46 45 49 49 52 47 58 68 79 71 71 87 94 100 96 100 76 69 82 98 98 68 54 75 68 55 47 35 27
75 48 84 99 100 100 97 86 98 79 67 56 51 52 49 52 58 55 47 53 72 82 76 85 93 99 100 88 99 70 77 96 100 93 57 72 77 60 53 43 30 25 21
33 53 99 100 100 100 98 100 88 69 62 61 55 51 51 56 48 54 66 61 86 84 82 87 100 98 90 68 65 87 100 100 72 62 84 71 60 50 37 28 26 18 12
57 95 94 82 88 92 98 85 70 76 65 60 53 49 53 61 96 91 71 96 95 92 99 99 97 84 61 88 100 100 92 56 80 83 63 59 44 33 29 24 15 9 8
42 39 54 74 77 72 72 71 76 85 72 69 63 96 73 96 97 99 100 97 99 99 98 83 60 85 100 100 94 60 70 85 73 61 53 37 32 29 21 13 11 9 6
28 39 61 61 65 72 73 70 68 78 78 92 72 96 100 95 94 100 100 100 99 90 91 96 100 100 92 54 67 83 84 63 59 46 36 33 28 23 16 11 7 6 6
46 54 57 52 53 62 69 67 71 67 87 100 99 87 100 99 94 93 90 83 85 91 100 99 73 48 60 74 88 71 61 54 40 36 34 29 22 13 8 6 6 7 4
60 59 58 64 75 73 79 84 92 93 97 98 95 98 98 88 93 82 81 87 98 88 52 49 58 70 87 82 62 58 44 38 36 34 27 18 11 7 6 7 5 4 12
93 87 91 90 90 97 100 94 94 94 88 100 95 94 93 81 74 77 74 54 46 49 53 62 83 88 66 61 50 40 37 36 32 23 12 9 8 6 6 4 5 17 15
98 95 97 99 96 96 99 98 100 93 88 85 78 73 76 73 54 50 54 56 51 58 84 93 74 63 57 45 37 36 32 27 17 10 8 7 7 6 4 7 16 14 17
92 76 80 96 99 99 89 91 86 75 75 81 90 84 51 50 55 56 50 60 86 94 81 65 63 53 43 37 33 28 21 12 9 8 8 7 5 4 9 16 16 20 24
87 98 88 82 91 90 86 88 88 93 95 74 58 51 53 54 49 67 89 94 85 67 62 60 51 43 38 35 27 16 12 9 10 10 6 5 5 11 16 20 21 24 33
98 99 99 99 99 94 98 98 86 78 71 60 58 54 50 69 85 86 83 71 60 63 58 51 44 40 38 26 17 15 12 12 10 7 4 5 12 17 22 24 28 35 38

GFSMW_500_rhum_021.txt.gz
RH
10 10 10 11 12 14 14 12 10 9 10 23 18 12 13 15 10 16 29 49 53 52 56 52 53 58 58 60 56 42 34 29 29 42 51 67 81 81 78 74 78 73 69
11 11 10 10 11 12 14 14 11 9 8 11 17 19 17 25 24 33 29 20 23 36 50 54 57 58 64 61 55 50 43 35 26 39 53 61 71 77 77 75 70 60 54
11 12 12 11 11 11 14 16 14 10 9 12 27 31 31 31 42 41 35 27 18 21 24 36 40 61 60 59 59 55 52 49 33 34 39 52 60 62 60 52 48 45 35
9 10 11 10 10 10 13 13 14 13 11 14 18 14 22 20 24 28 28 25 17 19 22 23 34 46 59 61 64 64 51 52 54 46 38 41 44 50 49 41 23 14 12
11 11 11 10 10 11 12 14 15 14 13 12 12 14 16 19 23 35 36 33 29 22 22 24 32 36 59 70 68 60 56 43 44 48 47 43 39 36 30 18 18 23 30
12 12 13 13 14 14 13 14 15 16 14 13 13 13 18 22 22 35 39 31 29 28 32 29 48 49 50 66 67 65 61 55 52 49 46 42 36 32 35 43 48 46 49
15 14 12 11 11 14 16 17 18 18 16 15 15 14 17 21 26 38 47 30 33 40 44 43 41 39 43 61 62 64 60 58 56 49 45 44 56 64 60 54 50 46 42
28 29 19 15 12 12 15 16 20 20 18 15 16 16 16 19 41 53 41 26 34 44 49 46 45 45 43 54 63 67 62 56 54 57 70 71 69 68 60 52 45 39 31
52 46 37 30 22 24 20 14 17 25 21 16 16 18 18 24 39 52 36 32 35 39 54 52 54 43 42 57 67 67 60 60 69 85 82 80 76 60 50 49 41 28 27
72 65 49 43 47 37 19 16 20 25 29 22 19 15 20 30 42 44 38 40 40 53 54 55 54 45 55 56 69 67 65 74 79 79 81 75 60 54 59 45 43 66 66
100 93 85 69 48 43 29 21 39 43 32 25 26 16 18 33 40 39 41 45 52 60 51 57 54 60 57 68 74 69 71 73 78 82 78 81 73 59 48 70 85 85 63
99 98 92 69 30 37 42 34 46 32 32 36 39 22 18 27 37 42 49 54 51 47 58 63 52 59 66 77 72 66 72 84 89 95 95 97 67 56 88 89 79 56 71
100 99 93 73 60 65 65 42 37 30 30 62 51 29 22 27 38 44 55 52 49 57 48 53 53 60 77 77 74 82 93 99 100 100 92 75 84 100 91 65 66 74 59
100 99 96 100 83 44 56 47 41 28 25 62 81 49 31 34 36 53 54 56 55 53 64 64 69 79 82 87 94 98 100 99 97 74 62 96 99 84 62 77 69 54 44
38 71 66 36 39 39 58 72 70 81 47 70 100 57 47 44 49 58 60 59 73 80 68 64 78 94 95 93 92 100 100 97 86 98 100 98 70 75 76 59 50 38 30
29 32 46 57 68 88 98 100 74 96 98 86 97 67 38 52 54 51 63 81 92 72 52 81 100 97 91 100 100 98 97 93 100 100 80 74 83 68 56 46 34 34 29
60 62 63 63 84 96 100 99 96 98 76 75 60 49 50 47 99 71 85 92 84 63 74 100 92 100 100 98 92 91 99 100 86 70 87 80 61 52 40 36 34 24 13
47 68 75 89 97 99 99 100 100 100 87 78 60 50 61 98 77 65 76 98 91 98 99 98 98 98 91 98 97 100 80 67 84 84 66 54 45 37 37 31 21 10 8
46 66 73 78 78 93 100 97 88 77 95 95 66 69 64 58 91 99 98 98 96 99 97 86 80 92 98 88 60 66 75 88 76 58 50 39 35 33 24 13 9 8 8
57 62 64 76 82 83 82 78 83 98 98 71 92 98 97 98 98 99 100 99 97 93 91 90 76 53 52 61 70 85 87 65 54 44 38 33 26 16 11 9 8 8 7
53 57 67 71 73 84 79 70 61 62 58 73 96 90 96 99 100 99 94 86 74 58 47 51 55 56 58 73 83 71 58 52 41 37 32 22 15 14 11 9 8 6 4
91 86 85 92 100 99 99 99 100 88 98 98 96 97 96 97 88 84 66 47 52 56 56 52 53 67 81 75 62 60 48 40 37 34 23 18 15 10 9 7 4 4 12
97 100 99 97 96 96 98 98 97 95 90 85 84 79 83 80 58 49 51 53 53 47 48 68 81 74 60 62 55 48 43 40 39 26 18 12 11 9 6 4 5 15 18
96 98 98 97 93 91 81 78 85 78 78 87 88 75 53 52 51 52 53 49 49 70 82 76 63 61 58 53 48 45 43 39 25 22 15 14 10 6 4 9 16 19 22
85 96 100 100 94 87 84 86 78 71 73 75 65 59 59 56 55 50 50 73 78 74 63 59 60 57 52 45 42 40 33 27 27 23 16 9 6 4 11 17 19 26 30
89 91 99 100 90 84 82 82 77 74 72 67 64 62 59 52 62 76 74 72 62 58 62 59 54 44 38 39 39 36 32 29 22 15 10 5 4 14 19 22 30 32 29

GFSMW_500_rhum_024.txt.gz
RH
11 8 8 8 8 10 9 8 7 7 18 40 37 34 36 39 20 22 21 18 19 32 39 47 49 48 50 51 54 54 53 56 54 52 46 40 26 32 51 60 70 78 81
13 12 10 10 10 10 11 11 10 9 8 16 32 26 24 26 21 25 18 26 30 42 34 23 22 24 30 37 47 58 61 59 58 56 52 52 41 33 34 41 51 54 53
14 14 14 14 14 14 14 14 14 12 10 10 15 34 47 44 46 53 47 44 40 41 37 37 23 20 36 33 32 39 58 63 63 62 55 44 47 50 48 47 46 46 46
16 16 15 14 13 13 14 15 16 14 12 12 16 22 19 40 45 43 50 48 50 44 31 32 27 20 24 25 31 38 59 64 68 62 61 52 46 44 45 44 41 38 35
13 12 12 11 10 10 10 12 13 12 10 12 12 19 24 28 34 35 33 34 43 61 57 50 44 35 33 25 36 46 48 57 66 62 64 58 56 54 49 45 41 40 44
10 10 10 10 10 10 10 10 10 12 12 10 9 11 13 16 23 24 26 28 33 46 58 58 45 42 41 40 46 47 44 46 58 61 61 58 57 52 49 52 56 61 68
11 11 11 11 13 14 13 14 14 15 17 13 10 9 9 12 14 18 24 30 38 44 54 63 55 47 48 56 49 40 42 42 52 60 62 59 56 55 50 46 44 50 57
12 12 14 15 15 17 20 21 17 15 16 17 15 14 12 10 13 25 24 36 39 43 57 69 64 48 59 58 54 61 44 42 47 60 65 59 55 52 50 48 45 44 51
28 31 34 34 33 36 39 39 34 21 19 15 15 16 15 15 14 18 24 27 54 52 68 75 40 48 53 62 63 57 48 54 48 65 64 58 56 58 53 52 52 53 50
29 35 37 35 50 56 59 60 45 34 26 19 14 15 15 19 19 22 35 35 46 58 62 66 42 52 58 65 71 57 54 54 57 64 62 61 68 66 68 66 72 69 54
36 30 28 28 37 65 77 84 66 42 33 25 19 14 14 19 28 31 43 49 54 54 67 56 50 62 64 68 60 58 82 54 62 67 69 77 84 86 88 88 86 66 63
25 25 28 32 94 93 97 92 84 68 52 40 28 22 16 20 34 41 45 45 46 53 66 55 61 70 63 97 68 95 62 58 71 85 98 100 99 100 100 100 76 84 87
27 40 30 29 100 100 91 78 56 40 39 34 29 25 24 26 38 45 43 44 44 49 58 60 70 65 61 77 59 56 62 78 85 91 82 99 100 100 98 95 94 88 63
35 46 22 47 100 96 84 71 61 42 35 34 34 52 54 50 86 66 61 37 42 48 60 62 56 97 54 66 56 64 81 86 93 85 100 100 99 95 94 94 70 70 80
35 44 50 42 52 79 58 40 38 41 44 42 80 80 53 73 100 86 56 30 42 47 57 61 98 59 76 71 97 70 79 86 99 99 96 94 95 96 75 70 84 70 55
47 44 59 66 64 52 47 51 57 59 45 59 90 80 60 98 81 98 45 51 49 58 76 98 66 55 61 58 95 86 88 100 100 95 91 95 73 67 84 80 62 47 35
57 74 86 80 77 91 94 98 86 32 30 62 75 60 56 84 63 55 59 56 60 98 79 88 94 83 75 85 100 99 98 98 88 86 68 66 83 87 68 55 40 35 29
54 64 66 83 99 100 99 100 100 99 66 91 100 99 100 78 84 92 76 88 88 83 92 98 98 100 100 99 98 96 84 63 57 60 76 92 74 63 48 38 36 27 20
55 58 67 99 94 98 99 90 99 100 99 98 97 97 93 82 76 90 70 98 81 99 98 99 100 98 98 92 67 54 57 57 70 91 78 65 57 47 41 39 33 22 17
51 53 68 74 78 82 89 90 78 74 76 80 78 86 94 84 97 98 92 93 89 98 99 98 98 82 52 51 55 55 64 83 79 66 58 53 46 44 42 32 25 25 20
70 65 84 84 78 78 90 95 97 99 99 97 99 97 96 90 95 98 97 98 98 95 67 52 52 54 50 51 71 78 72 63 60 58 53 50 48 41 30 28 26 16 10
89 88 97 98 98 92 88 91 97 93 78 75 97 99 98 98 97 98 90 81 59 52 52 52 47 49 62 62 59 54 54 56 56 53 50 42 36 34 29 20 14 9 4
74 81 100 98 95 98 98 98 98 96 100 92 82 78 75 76 81 63 51 51 52 52 49 52 58 57 55 50 52 56 54 48 43 40 37 32 27 20 18 16 7 4 13
84 86 86 94 97 100 96 95 82 76 77 78 76 75 63 56 56 55 54 53 48 45 49 50 48 47 51 56 54 47 42 39 34 27 25 23 21 20 14 6 6 14 17
88 89 98 100 92 88 84 82 79 78 73 72 69 66 64 61 58 55 48 48 47 47 48 50 53 56 53 46 40 36 32 28 27 28 27 26 21 12 6 9 14 17 24
88 95 87 88 84 78 77 79 77 74 74 69 63 60 57 53 51 52 52 51 53 52 55 58 53 45 37 33 30 29 28 25 24 25 21 15 9 5 12 16 19 25 30

GFSMW_500_rhum_027.txt.gz
RH
11 8 8 8 8 8 7 8 7 7 8 11 18 40 57 61 51 57 46 29 26 28 32 37 37 41 42 41 43 38 38 38 45 52 56 59 57 53 48 49 47 38 34
11 10 8 8 9 9 10 10 9 7 7 9 11 11 18 43 57 55 54 45 28 22 23 31 30 30 27 19 19 18 24 30 29 32 41 51 56 56 57 46 40 43 46
11 10 9 9 10 11 12 12 11 10 8 8 12 16 24 22 29 46 63 59 50 43 33 37 36 45 47 37 22 19 23 22 28 26 35 52 59 61 60 56 52 50 49
10 11 11 12 13 13 13 13 14 13 12 10 10 19 21 23 28 40 52 65 75 70 63 51 52 56 46 38 34 25 27 24 26 36 39 34 48 60 61 56 54 52 50
10 11 12 14 16 16 15 15 14 14 14 14 13 14 21 20 19 23 27 36 52 73 69 72 72 61 62 63 55 42 38 31 31 42 40 36 35 39 49 50 54 52 48
10 11 12 12 12 13 13 13 13 13 12 12 11 10 13 20 22 27 29 35 44 51 52 58 56 61 63 62 72 58 44 48 46 43 38 40 37 36 43 53 55 52 50
12 12 11 11 10 10 10 11 12 12 11 11 10 10 10 10 16 23 33 31 29 40 40 41 52 56 74 68 69 77 57 51 60 54 50 45 39 38 43 53 55 56 59
9 9 10 10 11 13 16 16 15 15 14 15 14 12 10 9 8 11 14 38 30 19 30 46 66 73 72 73 72 83 74 58 58 64 58 50 44 42 48 57 56 53 56
15 19 23 22 22 25 29 32 36 36 32 25 24 20 17 14 12 10 9 11 31 43 35 40 54 65 67 71 81 84 69 56 55 58 57 50 68 52 59 64 65 66 66
24 27 28 28 29 29 33 36 37 38 42 49 49 34 25 21 17 15 14 13 28 22 37 32 56 69 69 70 80 69 65 54 55 77 62 60 60 62 74 78 81 82 66
34 31 37 33 25 24 25 26 26 23 30 68 63 53 46 32 24 19 16 16 21 28 32 46 56 61 62 70 70 60 59 60 98 96 71 90 72 76 77 78 85 74 60
35 27 23 21 19 21 22 32 39 29 45 85 92 82 60 39 32 24 20 16 24 40 41 49 61 55 56 58 65 57 57 59 77 92 91 94 76 82 80 90 72 72 72
25 23 25 25 32 38 32 25 28 91 97 100 99 87 73 44 47 38 20 19 27 52 60 57 47 50 54 52 56 54 96 72 67 66 82 72 79 79 78 70 88 92 88
25 28 34 33 30 30 38 71 77 100 100 100 100 92 85 57 44 44 32 23 26 48 76 68 63 50 46 47 51 81 92 70 98 87 85 85 84 77 82 92 92 86 78
30 45 27 25 36 49 32 46 71 81 80 65 65 54 47 60 67 55 26 24 27 60 82 68 62 49 45 51 48 82 96 84 100 93 99 94 91 97 99 82 76 66 79
40 43 30 36 58 86 67 93 72 46 47 34 39 52 38 28 31 48 33 35 34 57 97 65 58 42 48 63 92 98 100 98 63 74 96 100 100 98 74 64 73 82 65
46 49 36 43 77 83 87 99 100 100 85 51 35 34 32 35 45 38 38 40 47 63 76 58 47 48 76 92 96 79 81 99 76 90 98 92 66 63 65 81 67 58 54
46 55 54 59 78 86 77 90 86 38 32 37 55 80 89 85 97 92 88 61 73 85 81 87 83 97 98 99 99 98 99 98 98 89 67 62 72 80 67 58 57 52 49
53 60 70 68 75 83 74 95 89 86 73 87 99 97 97 96 99 92 98 89 94 98 84 96 99 100 85 100 99 99 97 92 62 59 67 80 63 57 58 52 44 44 43
76 61 73 83 68 80 79 93 89 90 97 99 100 100 100 94 99 99 54 79 92 99 98 97 99 98 98 96 92 84 74 57 66 66 56 52 53 51 42 40 40 38 32
63 71 81 71 75 75 82 97 98 97 98 95 84 90 96 100 86 91 99 97 98 95 99 98 96 74 58 56 53 53 55 51 50 52 53 47 38 39 38 34 30 30 29
57 55 72 81 76 75 77 88 94 93 97 99 99 99 99 99 100 100 99 100 92 76 65 57 57 54 49 47 49 47 48 50 52 42 39 39 36 34 31 30 28 23 18
65 66 73 87 82 77 90 94 80 97 89 88 85 85 86 94 86 70 54 54 54 56 56 50 46 50 50 46 46 47 40 31 29 30 31 29 29 26 24 23 20 11 5
64 72 73 81 91 85 84 83 73 73 73 74 71 68 62 61 60 61 60 58 55 50 48 48 45 43 46 46 35 30 29 29 25 22 16 12 11 12 13 9 6 4 12
85 87 86 83 89 92 91 86 82 78 76 75 72 70 66 62 58 55 54 54 53 50 47 48 50 47 37 32 30 27 21 15 12 9 6 6 7 6 4 3 6 18 20
83 84 92 90 83 80 83 83 82 77 72 67 62 62 64 65 63 60 57 52 49 50 49 47 42 35 32 28 22 15 12 9 6 4 4 5 5 4 4 13 20 24 26

GFSMW_500_rhum_030.txt.gz
RH
11 9 8 10 9 7 7 8 9 10 9 9 10 9 12 39 42 51 67 62 64 50 38 36 59 34 32 32 39 41 28 22 21 21 24 27 26 24 25 33 44 52 57
12 10 8 8 9 9 7 7 8 9 9 9 10 11 12 13 21 42 50 72 70 70 78 49 30 37 29 27 26 30 29 21 18 18 25 22 24 28 30 35 48 56 56
10 10 8 6 6 8 9 8 8 9 8 8 10 9 12 12 13 13 21 34 73 72 72 68 51 26 27 31 36 46 51 43 29 19 21 24 24 28 37 35 35 44 49
8 8 8 8 8 8 8 8 8 10 11 10 10 11 12 12 14 24 36 39 38 49 70 79 79 72 58 61 51 56 60 48 44 35 33 32 28 32 38 36 36 30 33
8 8 8 8 8 9 9 9 8 8 10 12 12 12 13 15 15 16 26 33 40 39 58 86 96 93 95 97 92 81 66 73 71 61 48 41 38 41 41 37 41 36 32
11 10 9 9 10 10 10 10 11 12 12 12 12 11 11 12 12 18 19 30 37 35 41 45 62 75 80 90 89 90 78 72 80 84 80 57 44 49 53 48 44 40 39
11 10 10 10 9 9 10 10 11 11 12 12 12 13 13 12 12 12 24 30 36 44 54 56 57 52 57 71 72 71 72 77 78 79 89 89 78 58 61 62 51 47 47
10 10 10 10 9 10 10 10 10 10 10 9 10 10 10 11 12 12 13 25 47 33 42 52 58 62 51 49 60 71 80 81 79 74 97 96 81 52 60 58 52 57 68
10 9 9 10 12 17 22 24 26 25 24 22 21 19 19 15 12 11 12 12 15 45 39 42 56 71 63 50 54 65 77 72 73 70 96 83 55 56 68 67 63 72 56
19 18 18 18 18 19 24 30 33 36 40 45 49 47 40 32 28 23 18 17 17 21 56 58 51 63 98 72 74 56 58 65 66 69 76 61 97 74 80 94 97 78 71
18 16 16 20 22 23 22 22 21 22 22 23 30 40 60 69 63 51 36 27 25 24 29 46 54 68 67 66 62 57 57 65 57 57 66 61 64 75 89 85 89 96 74
21 20 22 24 22 19 13 21 32 35 31 26 37 34 36 58 89 86 69 55 36 28 26 31 31 46 61 60 54 59 56 57 72 56 62 74 97 81 96 85 86 100 68
21 29 26 22 16 18 25 40 33 39 41 30 42 35 85 97 84 62 88 79 60 47 30 28 34 40 38 44 53 57 69 64 59 95 61 96 95 97 97 96 92 82 88
33 26 23 22 15 20 19 24 38 65 75 40 83 54 100 100 100 97 88 96 82 56 50 38 39 52 41 41 51 53 64 92 61 58 95 92 98 93 98 99 98 100 100
37 28 31 36 26 29 25 34 52 84 100 76 78 100 100 96 87 84 100 100 88 68 47 45 33 39 50 51 64 68 72 59 49 63 89 98 96 97 97 75 86 92 99
43 37 42 38 34 38 36 40 49 53 38 100 88 100 100 81 81 93 98 99 99 77 53 51 37 40 46 62 69 68 68 66 77 87 99 99 98 98 99 97 100 93 69
48 43 53 46 42 44 44 46 59 49 38 30 71 48 43 47 59 49 57 99 98 87 60 52 47 42 40 62 61 82 93 73 96 100 90 99 100 99 99 93 65 72 68
49 52 57 63 44 47 65 69 66 61 63 56 41 32 31 30 40 34 29 23 60 82 56 44 38 33 43 94 94 91 67 98 99 98 99 99 98 96 82 72 61 54 52
43 53 62 61 58 58 64 82 73 66 84 99 92 84 75 74 68 55 74 62 82 66 55 79 40 34 79 99 66 78 99 99 94 98 95 77 85 76 51 47 44 38 36
52 42 54 61 60 69 72 83 78 79 69 79 83 94 99 99 98 100 100 98 94 78 86 98 100 100 84 97 96 100 94 76 61 65 70 55 49 45 36 27 26 25 24
44 48 42 67 63 60 71 65 82 83 77 88 92 97 99 100 99 99 98 95 94 100 100 96 99 99 99 97 86 62 62 65 57 50 45 35 25 24 23 18 13 10 8
60 56 61 60 69 68 85 70 76 84 90 97 99 100 100 99 100 98 99 99 99 97 93 84 71 65 62 62 61 56 51 48 41 29 26 23 17 12 10 7 5 4 5
69 62 74 74 73 73 80 74 84 80 77 81 80 78 73 67 62 61 61 60 60 60 61 59 57 56 53 49 46 44 37 29 27 21 14 11 8 6 4 4 5 5 4
71 67 78 86 81 76 75 73 72 75 75 74 72 71 69 66 63 60 58 59 61 60 56 52 51 50 49 46 38 33 29 22 16 12 10 7 4 4 6 6 4 3 5
79 83 86 89 91 86 84 86 85 81 74 68 65 63 62 62 62 62 61 60 57 54 53 53 52 47 40 36 31 26 20 17 14 12 6 4 4 6 6 3 4 13 22
80 90 92 93 86 88 91 90 88 79 72 70 68 67 64 63 64 63 60 56 53 52 52 49 44 41 37 31 25 19 16 14 9 5 4 5 6 5 3 8 17 25 30

GFSMW_500_rhum_033.txt.gz
RH
15 12 10 9 8 8 7 7 8 9 9 9 9 9 10 14 12 12 22 32 43 60 72 62 63 43 39 46 39 24 22 20 22 24 20 17 17 19 24 19 20 28 27
15 14 12 11 10 9 8 7 6 8 8 9 9 10 10 9 11 12 20 24 45 56 73 80 74 80 79 49 53 35 28 25 25 32 34 27 24 20 20 23 22 26 32
14 13 12 11 10 9 9 7 6 6 8 8 8 9 10 10 12 14 13 25 30 31 49 66 82 79 82 76 50 36 27 30 33 40 48 44 32 30 31 32 30 32 37
9 9 8 8 8 8 8 8 7 7 7 8 8 8 8 10 12 13 15 15 21 19 26 32 42 80 90 84 74 69 56 49 54 49 60 53 61 59 52 45 41 41 44
11 11 9 8 8 7 7 7 7 7 7 7 8 8 8 8 10 13 14 16 19 28 34 43 46 49 66 81 92 95 94 96 92 89 86 75 74 74 80 73 57 49 52
16 15 14 13 12 11 10 9 9 8 8 8 8 8 8 11 11 13 14 15 17 19 24 37 45 52 61 77 93 96 92 97 99 97 97 95 84 81 79 80 84 70 64
15 14 13 13 12 11 10 10 9 9 9 8 8 8 8 8 9 12 14 16 18 22 28 39 44 45 55 53 66 76 73 81 89 88 88 80 78 78 72 94 95 76 62
14 13 12 11 10 9 8 8 8 8 9 9 10 10 12 12 12 10 11 14 15 16 48 49 46 47 58 62 62 72 78 78 74 75 75 82 88 78 70 64 97 86 61
11 10 10 9 9 11 13 15 17 19 21 24 26 28 30 30 28 24 20 18 15 18 19 31 47 53 62 71 81 77 79 81 73 63 60 72 77 72 96 72 92 83 87
11 15 17 18 16 15 14 15 16 19 23 25 25 24 25 27 31 36 40 45 38 25 22 22 27 58 68 70 75 84 89 79 77 82 72 61 62 69 57 61 63 77 90
25 22 18 16 15 12 15 17 19 17 15 13 14 20 25 28 32 30 29 44 66 60 41 30 30 30 73 84 74 72 82 87 98 97 78 64 56 62 69 74 94 81 87
21 17 14 15 20 22 21 18 15 16 16 17 21 32 52 50 52 47 39 67 100 90 77 61 41 33 33 35 54 81 81 80 88 75 65 62 97 56 78 98 89 85 100
14 19 22 17 17 19 20 18 16 20 20 21 24 30 39 91 95 41 36 49 76 94 100 93 77 62 45 47 39 39 41 50 70 69 69 75 68 67 77 95 98 98 98
25 23 22 27 24 27 29 26 26 21 16 23 22 39 41 100 99 67 57 68 100 96 84 99 100 91 72 57 49 45 51 54 56 56 53 57 54 87 86 85 89 100 99
20 29 32 32 32 32 33 34 26 27 28 25 37 46 82 97 75 41 100 96 100 100 93 71 92 100 82 67 55 41 39 56 61 60 47 60 79 100 97 85 74 97 100
32 38 39 44 42 33 40 36 38 40 33 33 34 31 63 75 84 83 90 100 100 100 100 99 100 99 88 70 59 50 49 57 51 43 61 70 92 85 78 98 99 100 98
40 34 39 46 45 36 38 39 42 39 36 37 39 41 20 42 46 46 61 86 100 100 100 88 87 90 76 69 60 58 89 69 99 77 64 100 99 92 98 98 99 100 99
36 36 40 46 48 46 48 38 40 43 44 56 49 60 38 19 28 34 44 59 80 92 100 100 84 68 74 77 93 48 42 96 73 78 100 99 98 95 99 99 98 75 54
28 30 37 36 43 48 50 42 50 49 50 62 66 62 82 93 67 82 59 27 41 47 96 100 98 99 74 47 43 40 47 100 98 99 95 99 96 82 64 49 36 26 22
32 30 32 36 53 56 49 58 53 60 57 60 68 70 74 88 97 100 100 89 96 100 88 73 99 98 99 100 69 60 87 99 100 100 90 64 51 41 28 23 18 13 10
43 36 40 42 53 62 71 55 73 71 70 66 73 81 92 92 91 98 100 98 99 99 100 100 100 100 100 100 100 99 98 92 72 53 45 35 27 22 16 13 11 8 4
50 45 49 50 64 65 74 76 84 68 58 56 59 67 70 65 67 77 94 100 99 99 97 96 94 92 78 68 64 59 51 46 41 33 27 20 17 16 10 5 4 4 4
57 56 50 63 78 78 76 77 75 73 69 66 64 63 64 64 62 61 61 61 60 59 59 59 57 53 50 50 49 46 39 35 28 24 19 16 10 6 4 4 4 6 6
64 65 61 71 81 82 83 88 85 78 72 66 62 60 60 59 58 59 60 60 59 56 52 50 51 52 51 46 40 37 34 28 21 19 15 10 8 6 4 5 7 6 6
75 76 81 79 84 90 87 94 94 84 74 70 66 65 64 62 63 64 62 57 52 50 51 52 51 47 44 42 38 32 30 26 21 18 12 10 5 4 7 8 7 8 10
84 87 86 85 91 86 91 96 97 85 78 75 74 75 72 70 66 64 60 55 53 54 54 51 48 46 43 38 36 32 29 22 20 14 10 5 5 9 9 9 11 15 19

GFSMW_500_rhum_036.txt.gz
RH
13 11 12 11 11 11 10 10 10 10 9 9 10 10 10 10 10 10 11 18 25 29 32 45 50 58 69 57 50 42 32 40 34 23 24 21 22 21 18 18 17 17 18
14 13 13 12 12 11 10 10 10 10 9 8 7 8 10 9 12 10 10 11 12 19 30 32 44 58 63 79 76 80 73 51 54 41 30 24 27 33 37 33 30 24 27
16 14 13 13 12 11 10 10 10 10 10 9 8 6 7 9 9 9 11 13 13 15 26 33 34 46 64 75 86 86 86 83 68 38 31 30 32 37 44 47 39 46 48
14 13 12 12 12 10 9 9 8 8 8 8 8 7 6 6 9 10 9 11 11 11 14 26 44 34 45 42 82 92 99 95 83 69 61 42 40 51 56 59 64 69 74
12 11 11 10 9 8 7 7 7 8 8 7 7 7 7 7 8 9 11 13 14 13 16 39 60 55 45 45 45 59 83 87 85 92 92 92 90 88 96 96 94 88 88
10 9 8 10 12 14 14 14 13 12 12 11 10 10 9 9 9 9 10 14 18 20 18 16 32 44 44 40 56 64 71 73 74 93 98 98 97 97 97 97 92 90 84
12 14 16 17 16 15 14 13 12 11 10 10 9 8 8 8 8 9 10 11 11 14 20 28 27 23 33 46 53 60 70 83 85 91 96 100 100 96 97 93 76 73 74
18 18 17 16 14 13 12 11 9 8 8 8 8 9 10 10 12 13 14 14 14 14 15 16 20 28 35 36 52 60 72 80 94 95 90 85 83 90 89 91 87 76 75
18 16 14 12 10 9 9 9 10 11 12 12 13 13 13 15 16 20 24 26 30 33 36 26 21 21 20 32 51 54 71 88 97 93 91 86 85 85 84 81 83 91 76
14 12 10 9 9 11 14 16 16 15 14 13 14 14 16 16 16 13 14 15 16 18 26 42 50 48 32 32 33 56 67 78 90 100 97 85 81 80 79 94 90 78 72
11 11 11 15 22 18 12 10 10 12 13 16 18 18 14 14 16 18 21 36 40 39 32 34 32 37 64 54 43 43 45 63 76 89 93 98 87 96 91 96 93 72 79
14 21 25 21 14 10 11 15 18 18 20 19 16 16 17 21 32 43 49 57 77 77 62 44 41 44 45 63 81 57 57 56 71 79 85 86 75 68 80 80 67 62 71
27 20 16 16 16 20 19 20 20 23 24 24 22 19 19 27 26 21 17 63 100 97 52 49 57 55 42 58 91 92 68 62 47 63 58 71 61 59 99 63 64 55 77
16 16 20 22 22 22 22 22 24 24 26 33 31 28 22 17 21 12 44 91 100 100 100 99 80 57 48 71 84 100 96 72 56 51 51 58 65 58 58 56 50 48 59
17 20 19 25 30 30 28 27 31 29 33 32 26 22 19 26 24 15 25 37 50 72 95 64 73 97 98 100 100 100 100 93 84 67 60 70 64 51 49 77 77 60 96
18 25 26 28 34 38 35 35 34 26 33 23 29 26 28 32 31 27 25 48 52 58 82 97 100 100 100 100 100 100 97 94 84 75 60 51 46 45 77 93 54 76 100
18 26 31 29 37 36 40 42 39 35 37 25 29 30 33 39 40 50 34 30 78 90 86 80 82 86 91 98 100 99 96 87 71 85 92 99 77 100 100 100 80 94 100
27 27 26 27 30 30 32 41 43 44 39 28 36 39 39 41 51 62 57 37 26 72 90 89 84 96 100 98 86 81 77 78 91 95 83 66 91 90 100 99 99 94 82
30 29 25 22 24 28 38 45 44 56 44 38 40 46 44 53 54 66 73 70 68 47 82 97 96 94 96 98 91 100 100 96 80 52 51 74 100 99 99 86 62 38 25
38 39 33 29 29 31 39 48 54 58 59 51 42 49 53 54 59 62 69 71 90 98 85 92 100 100 100 100 100 82 88 100 96 78 93 100 98 84 55 32 21 17 12
42 42 41 36 32 38 47 52 59 70 62 47 44 47 47 48 49 58 71 75 91 95 97 98 100 100 100 100 100 100 100 99 96 89 79 55 36 28 22 18 14 11 10
47 46 44 45 39 38 55 62 60 73 61 56 50 45 42 44 49 51 53 56 64 70 74 68 76 72 73 70 62 57 54 49 46 38 34 30 24 20 18 15 13 10 5
49 55 51 49 48 52 66 73 71 71 69 62 53 48 46 48 52 54 57 59 59 57 55 53 53 53 52 50 48 43 39 36 36 30 28 26 22 19 17 15 8 6 5
50 63 60 61 67 68 76 77 80 81 75 67 59 58 58 56 54 53 54 54 53 52 50 50 50 49 47 44 42 41 39 35 32 30 30 23 21 18 16 8 5 5 9
53 67 72 66 67 79 76 75 80 82 78 72 70 70 67 64 62 58 56 52 50 48 47 46 44 43 42 41 40 39 39 36 35 31 25 23 20 15 7 5 5 11 13
56 65 80 83 73 72 85 80 80 82 85 80 79 73 69 65 63 61 58 53 49 47 47 46 46 46 44 41 39 37 36 34 31 26 28 20 17 7 6 7 10 15 22

GFSMW_500_rhum_039.txt.gz
RH
20 16 19 17 13 11 11 12 12 13 12 10 9 9 8 8 8 11 13 18 22 24 16 13 16 22 32 37 43 55 65 73 59 46 39 33 33 22 25 25 25 21 19
16 15 14 15 13 11 11 13 13 12 11 11 10 9 10 9 8 8 8 13 13 13 12 12 13 13 14 25 39 45 56 64 77 76 73 66 50 48 37 27 26 29 37
12 11 11 11 10 10 12 12 12 12 11 10 10 10 10 10 9 9 8 10 9 10 10 12 10 11 12 12 26 45 52 58 66 81 86 85 84 68 42 35 32 32 38
13 13 11 10 10 10 11 11 11 11 11 10 9 8 8 8 8 8 9 10 10 10 10 19 20 16 26 25 25 47 80 74 86 82 91 96 90 92 79 62 53 66 73
12 11 11 11 12 11 11 10 10 9 8 8 9 9 8 8 8 8 8 8 11 12 14 13 12 15 26 32 41 55 70 81 79 71 80 88 100 99 94 93 97 95 96
12 11 11 11 10 10 9 8 8 10 14 14 14 13 12 12 11 10 10 10 10 10 14 18 20 20 22 32 42 51 52 67 77 75 82 93 96 89 85 85 96 100 96
11 11 11 10 9 8 8 13 16 16 16 14 12 12 10 10 9 9 8 8 9 9 10 12 15 17 21 25 31 31 36 47 59 76 83 85 88 98 98 94 90 99 100
10 10 9 9 10 14 17 18 16 14 12 10 9 8 8 9 10 11 12 13 15 20 21 24 22 18 18 18 18 20 30 35 44 56 66 90 92 96 95 98 100 89 92
10 11 13 16 18 18 18 16 12 10 8 9 9 10 11 12 13 14 15 15 17 22 24 23 33 42 45 44 33 25 22 33 42 45 55 64 76 93 96 93 96 91 91
17 17 18 19 19 16 13 10 9 10 10 10 10 8 7 9 10 13 15 17 15 14 16 19 20 20 30 47 58 57 58 50 46 46 51 66 79 86 92 84 83 97 96
20 21 20 14 11 10 10 10 11 14 9 8 8 10 13 13 16 15 14 14 14 18 33 32 37 48 46 63 82 70 69 82 82 66 59 61 69 83 97 98 93 96 97
18 14 12 11 11 11 15 15 10 8 9 12 15 16 16 15 13 14 19 24 28 26 17 14 20 59 99 98 100 100 70 72 91 92 80 74 72 73 84 79 95 87 98
13 13 18 22 21 14 9 9 13 17 17 16 17 15 18 24 23 24 24 22 14 12 20 24 31 83 98 100 100 100 100 93 77 94 94 93 77 74 69 73 85 85 69
31 32 28 17 9 9 16 24 22 20 19 18 22 23 21 25 21 17 16 16 16 16 29 43 35 68 100 100 100 97 99 98 75 80 83 96 91 77 70 59 50 54 59
36 22 13 11 13 18 25 27 24 22 25 24 23 22 23 22 15 17 18 18 24 24 36 54 60 63 79 53 79 93 91 89 88 97 91 96 96 79 67 88 59 54 73
18 16 16 20 25 24 24 31 29 25 28 27 25 24 20 24 18 19 24 23 28 33 53 67 68 55 60 80 100 96 100 94 98 100 98 96 85 96 100 78 67 76 81
25 23 19 18 28 28 26 31 31 29 30 31 33 27 29 32 27 28 28 34 32 37 45 69 65 55 48 67 90 92 96 100 100 100 100 99 86 96 82 74 83 100 98
31 24 22 25 21 19 18 22 24 28 34 36 42 34 37 38 33 37 37 40 41 36 50 53 55 50 65 91 97 100 100 100 99 98 100 97 99 100 100 100 97 95 100
34 28 34 23 25 22 18 20 28 37 40 38 50 51 40 43 40 32 42 49 49 45 56 68 74 74 90 98 91 98 100 100 99 99 100 100 96 61 56 56 72 100 90
31 36 36 38 34 28 28 26 34 44 53 54 61 44 37 38 33 33 35 53 57 59 65 65 69 79 86 93 100 100 100 94 100 100 100 100 100 100 99 63 33 27 25
33 33 40 40 36 34 31 28 40 56 69 67 52 45 40 36 35 35 35 39 44 46 49 53 65 80 85 92 95 96 99 98 95 88 71 53 44 36 31 29 26 22 20
35 34 40 42 40 39 36 31 38 59 63 61 58 46 41 41 39 38 38 40 44 44 44 43 43 44 47 50 52 51 48 46 43 39 36 35 32 30 28 28 23 21 20
37 34 40 42 47 46 45 44 51 62 68 70 62 53 50 50 49 47 48 46 46 46 45 44 44 45 45 43 41 40 39 38 38 36 34 32 32 31 28 25 24 21 16
38 33 42 42 56 56 52 57 60 67 71 75 71 64 60 60 54 49 50 48 44 41 39 37 37 37 36 36 36 35 35 35 34 35 34 33 31 29 29 30 21 19 13
41 31 42 48 53 66 61 59 70 67 75 77 75 73 71 64 58 56 53 49 43 39 38 37 36 37 38 38 38 38 38 38 38 37 36 36 33 35 29 22 20 14 12
50 46 41 52 54 73 75 67 70 80 79 79 86 81 75 68 64 61 57 52 47 46 46 45 46 45 44 44 43 42 43 43 43 43 42 42 38 33 30 25 17 13 9

GFSMW_500_rhum_042.txt.gz
RH
27 22 18 19 20 21 19 16 12 10 11 10 10 10 12 14 9 9 9 17 25 30 26 17 23 16 12 23 20 19 15 20 31 39 43 50 55 67 63 47 40 38 20
30 20 19 21 20 18 20 18 14 11 11 11 13 11 10 10 10 10 10 10 17 21 28 38 34 30 34 27 39 29 30 28 18 28 39 41 55 66 82 79 74 56 47
31 23 21 19 18 17 16 16 14 12 12 13 12 12 11 10 11 11 10 10 9 12 22 28 26 34 36 30 34 45 52 68 74 56 49 52 64 72 85 97 96 90 77
22 20 17 15 13 12 12 12 12 11 11 11 11 11 11 10 8 8 8 8 8 8 7 18 20 20 27 31 55 57 64 64 73 74 74 75 69 90 92 95 96 96 97
18 15 13 12 12 13 12 11 11 11 11 10 10 10 8 7 8 11 12 11 9 9 10 10 9 11 18 28 38 36 37 62 68 70 72 66 75 91 98 91 95 90 93
22 20 20 20 20 14 11 11 11 10 10 9 9 8 13 15 15 14 14 13 12 11 11 11 11 12 10 11 20 31 28 25 61 73 80 79 85 80 83 93 94 95 96
50 38 24 16 16 14 11 10 9 9 8 8 12 16 17 16 14 12 11 9 9 8 9 12 24 28 25 18 16 16 24 27 28 31 48 61 72 85 91 93 95 95 93
15 14 13 12 10 10 10 10 9 8 11 17 18 17 14 11 9 9 9 10 11 12 12 13 14 19 23 24 24 28 37 43 34 35 31 39 56 60 60 82 94 96 97
14 13 12 10 10 10 9 9 12 16 18 19 16 11 8 9 11 11 9 8 9 10 13 14 13 15 18 19 21 22 27 47 54 59 59 45 53 59 66 68 77 92 92
13 12 11 11 10 11 13 16 18 20 18 13 10 10 10 8 6 6 10 13 14 13 14 14 19 20 22 28 28 34 55 70 71 78 79 82 72 70 76 73 76 86 93
14 14 15 14 15 16 18 20 18 13 10 11 10 10 7 6 8 14 11 10 10 12 15 14 12 17 13 12 18 31 43 54 84 100 100 99 99 100 100 99 81 64 69
23 21 18 18 20 21 17 11 10 12 11 10 7 5 8 13 13 11 12 13 8 10 10 13 14 15 15 23 39 41 43 68 70 71 100 100 100 100 100 98 97 79 64
24 22 22 20 17 12 11 13 14 9 6 6 9 15 16 14 13 12 13 12 11 13 15 15 16 19 26 28 42 42 46 100 99 100 100 100 100 100 100 100 100 99 92
25 21 16 13 14 20 18 10 8 9 14 18 18 18 18 18 19 17 21 14 13 15 19 17 22 18 16 12 18 31 47 64 97 97 96 96 97 100 100 99 100 100 96
18 16 22 30 24 13 10 10 13 19 24 23 22 23 24 19 20 20 24 21 21 20 21 22 25 20 20 20 21 28 45 66 78 98 90 82 86 88 91 97 100 100 98
26 40 37 20 14 13 15 20 20 22 27 27 25 25 26 25 26 27 27 26 28 28 29 28 26 28 31 32 34 54 66 73 84 81 93 100 88 97 98 88 88 79 96
54 32 22 19 16 16 18 20 21 21 22 24 25 25 27 34 34 32 31 32 30 34 34 33 32 34 39 42 43 49 66 85 94 86 84 98 96 94 100 100 100 96 99
33 30 26 24 20 14 21 17 15 14 14 16 23 38 42 42 45 36 28 27 26 36 43 43 48 46 44 53 58 69 77 77 98 96 99 99 100 99 100 100 99 96 91
36 35 33 33 19 28 26 23 20 22 20 20 33 46 48 50 43 36 30 28 29 29 29 34 41 50 54 61 64 71 79 87 89 88 98 100 97 98 100 100 92 96 100
35 36 38 30 30 31 28 26 26 24 22 23 37 64 61 48 41 34 33 31 30 30 32 35 38 38 39 41 44 55 67 73 84 98 97 92 95 91 86 68 42 32 28
35 36 34 30 32 31 27 31 31 28 28 29 49 63 61 52 42 40 37 34 34 34 37 38 36 36 37 37 36 35 35 36 36 38 40 38 37 36 33 31 31 31 30
37 36 33 30 33 29 30 37 37 36 38 41 54 64 62 52 49 47 44 40 37 37 36 35 35 35 34 32 32 33 34 35 36 36 36 36 35 34 34 33 32 31 31
40 39 33 30 35 30 36 44 42 42 48 52 59 69 70 60 57 54 49 44 41 38 36 31 31 32 32 32 32 33 33 34 34 35 35 35 36 37 38 38 38 37 35
43 41 35 28 32 38 36 46 50 50 51 62 62 70 74 70 65 59 53 50 47 42 36 34 34 35 35 35 36 38 39 39 40 40 41 41 42 43 44 44 39 32 27
60 45 40 31 28 44 43 43 51 55 57 66 68 69 74 74 72 65 59 57 52 48 43 40 40 43 44 45 47 47 48 48 48 47 46 46 45 43 41 38 35 28 24
87 59 45 44 36 41 48 46 50 59 63 69 70 74 73 77 80 73 65 63 56 51 49 47 48 50 51 51 50 50 51 51 49 46 45 44 43 42 38 32 22 10 9

GFSMW_500_rhum_045.txt.gz
RH
38 33 29 42 51 50 24 19 16 13 15 15 12 10 9 11 18 11 8 16 21 20 19 18 21 25 26 32 39 34 30 42 43 31 25 19 17 17 34 47 50 68 84
33 32 28 25 24 24 22 21 20 18 16 16 14 12 10 11 11 11 10 9 8 8 12 16 17 24 32 35 38 38 41 43 44 61 66 52 50 61 62 43 52 63 68
34 31 29 25 26 25 22 22 20 20 18 17 15 12 10 10 10 12 12 12 11 9 7 6 7 30 33 33 38 42 52 60 72 77 88 90 81 73 73 74 62 64 89
37 29 27 28 26 24 21 20 19 18 16 14 13 11 10 8 9 10 10 11 10 8 8 8 10 10 17 28 35 30 32 56 78 78 86 89 83 74 78 81 72 81 84
43 36 32 29 25 22 19 17 14 12 11 11 10 10 10 10 10 8 8 8 11 14 14 14 13 13 12 15 26 32 29 29 43 60 72 72 94 81 88 95 100 94 89
50 41 34 21 16 14 13 12 13 13 11 12 11 11 10 9 9 8 9 13 16 15 14 13 12 10 12 20 28 30 33 39 41 38 42 45 58 62 71 89 98 99 99
63 56 45 32 18 22 25 26 28 27 24 12 10 10 8 8 8 14 17 18 15 13 10 9 13 16 17 15 20 23 20 22 27 33 39 58 71 78 69 55 60 78 91
72 63 60 58 57 54 45 37 30 24 14 10 9 9 8 10 17 18 16 11 9 9 10 8 6 8 11 14 16 16 19 20 24 27 34 47 57 73 89 89 71 55 58
31 35 25 18 18 18 16 14 12 10 9 9 9 9 14 19 20 14 9 11 10 7 6 7 10 10 13 16 16 20 17 17 22 28 36 54 74 90 100 100 100 93 63
21 20 18 17 15 14 12 11 10 10 10 10 13 17 20 18 11 11 11 7 6 9 11 10 9 10 13 13 12 12 13 15 14 14 38 52 70 82 100 100 100 100 91
32 22 18 15 14 13 12 12 12 12 14 17 20 20 13 10 12 10 6 8 11 11 11 14 11 10 11 13 12 10 9 9 13 14 30 38 49 62 82 87 100 100 99
34 20 16 15 15 14 16 15 16 17 20 20 13 12 12 8 6 8 10 13 11 14 15 11 11 11 14 14 14 13 9 10 16 23 26 37 50 92 81 71 86 100 100
27 23 19 23 23 21 19 19 20 19 13 11 13 9 6 7 11 13 15 14 14 15 16 15 16 17 17 20 17 14 13 13 21 36 47 64 70 82 94 96 96 100 100
28 31 31 26 23 22 21 18 13 12 14 10 8 10 12 16 18 18 19 18 19 18 19 19 23 24 25 23 18 19 19 18 26 46 64 63 83 94 74 86 89 71 87
46 38 30 25 22 16 14 16 16 12 9 9 11 17 23 24 22 22 22 21 20 22 24 24 25 26 28 25 24 27 25 26 33 38 54 53 58 93 90 77 79 96 86
31 27 23 18 17 24 21 14 10 9 11 16 18 23 26 26 26 24 22 29 31 28 25 22 18 24 33 33 32 32 36 37 36 37 45 56 73 91 89 93 94 72 87
25 23 25 35 37 22 18 13 16 18 16 15 14 15 16 18 23 35 41 42 40 30 25 20 21 26 29 30 34 38 39 43 50 51 56 59 66 82 88 97 100 100 100
44 48 51 36 27 26 20 20 16 17 17 17 16 15 16 27 41 48 54 52 36 31 24 24 25 25 27 27 28 32 38 47 53 55 63 74 82 87 97 97 98 98 96
77 57 40 36 37 28 26 18 20 22 17 16 18 21 26 40 59 54 44 38 32 30 28 28 26 28 29 28 28 28 28 26 34 40 43 49 53 57 57 46 41 36 31
74 47 40 39 41 35 28 18 22 21 21 22 29 30 28 38 56 56 46 41 39 36 32 28 26 28 27 26 24 23 22 21 22 22 22 22 23 25 27 29 31 32 33
61 44 40 40 38 35 24 24 28 25 23 31 37 32 32 45 60 58 50 50 46 43 35 30 27 24 22 22 22 22 22 23 25 26 28 30 31 33 35 37 38 38 38
53 45 42 39 38 34 32 30 30 29 30 36 36 39 43 52 69 65 59 57 52 44 38 34 27 26 26 26 26 28 31 33 34 36 37 39 39 39 39 40 39 40 39
60 50 50 40 35 33 36 33 33 34 40 39 39 44 51 58 72 75 70 64 55 48 42 38 33 32 33 33 34 36 40 42 42 43 43 42 42 41 41 40 39 38 38
73 54 51 45 37 32 36 41 37 34 42 45 44 47 57 60 67 73 74 69 62 59 53 47 42 39 39 40 40 41 42 41 40 40 41 40 39 37 36 34 32 32 29
88 74 52 47 43 36 33 40 42 39 40 46 48 52 57 64 67 69 75 77 74 69 65 58 53 50 48 47 48 50 49 47 44 42 42 40 37 34 31 27 27 27 25
99 94 83 56 47 48 40 40 44 44 44 48 54 56 58 61 66 69 76 84 87 83 76 67 60 57 55 57 59 59 57 53 48 44 42 39 36 31 23 21 24 26 26

GFSMW_500_rhum_048.txt.gz
RH
44 40 43 39 34 28 25 24 23 21 19 16 14 13 13 12 11 11 20 24 32 29 32 22 14 12 13 16 17 21 30 34 40 41 43 56 53 42 52 64 66 62 63
70 43 41 44 35 30 27 26 26 31 32 21 18 16 15 15 13 12 11 9 10 13 10 10 9 10 9 8 8 27 44 59 63 69 65 60 67 81 78 77 89 94 86
69 64 41 39 43 41 32 35 46 47 49 39 16 15 16 17 17 14 12 10 8 8 8 8 8 8 7 7 9 14 26 30 49 62 69 59 46 67 86 90 88 93 93
70 61 49 37 34 33 30 27 24 22 20 20 17 15 15 14 14 12 11 10 11 10 10 9 7 6 9 14 15 14 15 28 36 47 54 54 66 61 57 78 94 98 96
72 68 52 39 34 33 30 27 24 22 20 18 18 17 15 12 10 9 9 10 12 11 10 8 8 14 16 16 14 12 12 14 25 45 59 73 58 58 66 56 59 72 86
73 67 65 54 38 34 29 26 24 22 20 19 16 13 12 13 13 12 13 10 9 9 8 14 17 16 15 12 10 9 9 11 17 21 32 32 33 36 53 54 58 81 80
83 72 67 49 39 33 28 25 22 19 15 13 14 17 18 16 18 15 10 9 8 9 16 18 14 10 11 12 11 7 7 10 10 12 11 14 23 26 33 42 50 80 96
86 83 67 60 45 41 31 18 16 18 25 29 32 34 33 30 18 10 9 8 10 17 18 15 10 12 10 8 11 14 14 14 13 13 13 10 8 12 20 19 26 52 60
91 92 76 69 59 52 47 38 35 35 45 43 38 26 18 12 9 9 9 14 18 19 15 11 10 7 7 12 14 13 13 12 12 12 10 9 7 8 14 21 22 40 58
60 82 90 83 69 63 58 54 48 39 39 38 28 13 9 9 9 12 17 19 16 11 11 9 6 9 11 13 12 10 13 14 12 12 11 8 10 15 28 36 33 45 58
37 28 28 49 49 40 31 28 26 26 19 12 10 9 9 12 16 19 19 12 11 10 6 8 12 13 13 12 12 12 13 14 16 14 11 12 13 18 19 33 51 71 76
82 47 32 27 24 21 19 17 15 13 12 11 12 13 16 20 17 12 12 9 6 10 14 14 15 15 16 14 15 19 20 21 19 16 15 17 16 20 24 31 55 65 67
92 85 64 57 32 23 18 16 15 14 14 15 17 20 18 14 14 10 8 10 14 17 17 19 19 18 18 19 20 19 19 24 21 21 20 21 23 21 22 38 54 58 66
40 38 45 62 48 27 20 23 23 20 19 20 18 15 14 12 8 11 14 18 21 21 20 17 18 20 22 20 19 15 22 25 25 26 28 28 31 28 27 37 52 77 78
52 44 38 36 30 34 28 24 21 19 17 15 14 12 9 8 11 19 23 23 23 24 22 26 29 26 24 18 15 19 28 33 28 30 33 33 37 41 34 37 58 76 89
65 68 60 47 41 33 26 21 22 20 17 13 10 9 11 17 19 19 19 20 22 25 35 37 36 30 26 18 18 22 24 22 22 24 36 41 41 44 53 59 62 67 69
45 44 40 34 27 23 27 32 24 16 13 13 16 16 13 12 12 12 12 14 24 34 46 50 34 29 23 23 22 22 24 23 23 21 32 45 40 33 39 54 59 62 75
38 35 32 32 42 44 38 27 23 18 14 15 15 16 13 13 13 15 16 21 34 50 46 35 32 29 26 23 22 25 26 24 21 20 18 16 15 16 16 17 19 21 22
39 51 57 67 56 42 33 28 22 19 21 20 19 15 15 16 17 18 23 42 55 46 39 37 36 34 29 27 28 25 22 20 18 16 16 17 19 22 25 27 30 32 33
47 68 83 62 50 48 40 34 30 31 21 23 22 20 18 19 19 22 32 54 58 49 46 46 43 36 32 29 26 22 19 19 20 23 25 27 29 30 33 34 35 35 34
68 84 83 58 50 51 48 42 36 32 23 24 26 24 22 20 23 35 53 63 61 57 57 52 44 38 34 28 26 25 26 28 29 32 33 33 32 33 34 34 33 32 32
88 93 77 58 48 52 48 39 40 37 26 28 32 29 25 25 37 46 48 65 67 67 60 54 48 44 38 34 33 34 35 35 37 36 34 34 34 34 35 34 31 29 29
100 90 67 57 55 53 44 37 41 38 34 31 35 37 32 31 45 48 47 60 62 64 63 61 58 52 47 44 40 42 42 41 41 44 43 42 40 38 36 34 32 29 22
100 92 77 61 55 53 47 38 40 41 37 37 40 40 40 40 40 43 51 57 55 62 68 71 69 66 57 53 51 49 49 52 54 55 52 48 43 40 37 34 32 25 18
99 100 97 83 61 56 50 43 35 42 46 44 42 46 47 42 42 47 52 59 61 64 71 80 82 79 74 63 60 62 66 69 67 62 57 50 44 40 38 36 31 25 24
100 100 100 95 86 59 56 50 40 37 47 50 48 50 50 48 47 49 56 66 66 66 71 76 86 97 93 83 84 87 85 75 67 63 56 49 45 42 42 38 34 29 27

GFSMW_500_rhum_051.txt.gz
RH
82 78 79 70 56 50 44 39 36 33 29 24 20 16 16 15 14 13 13 13 12 14 30 19 19 28 15 12 11 10 10 9 8 10 42 60 51 63 69 64 62 70 89
90 83 78 65 58 51 45 40 35 31 29 27 24 19 16 16 16 15 15 14 15 18 13 14 18 15 8 9 10 11 9 8 9 13 15 22 31 51 58 66 59 62 70
70 81 72 53 50 51 48 41 35 29 27 25 22 22 37 40 28 17 15 14 14 14 12 10 8 8 9 9 10 9 8 12 15 16 16 15 22 32 45 64 62 66 81
66 62 70 71 50 43 45 45 38 34 30 28 31 41 44 39 21 19 18 20 18 15 11 8 13 17 15 10 8 8 15 17 16 13 11 12 16 18 34 40 37 64 48
61 63 66 68 70 63 42 41 47 51 52 48 38 28 24 19 17 16 17 17 15 13 11 11 13 12 10 8 8 14 18 14 10 10 12 14 10 18 19 15 22 23 34
65 63 63 69 71 65 58 44 37 35 33 31 28 28 25 19 17 16 16 12 12 12 12 12 12 10 9 9 15 18 18 12 10 8 7 11 13 12 13 17 11 9 10
66 60 62 73 73 73 60 46 38 34 32 29 25 23 21 19 17 14 13 16 23 25 22 16 10 9 12 18 19 16 11 10 6 8 10 9 10 10 11 10 10 8 8
55 64 64 62 74 74 67 61 51 37 33 30 27 28 22 15 15 29 34 32 27 22 14 10 9 16 18 15 12 11 8 8 12 11 9 8 11 11 13 11 9 11 11
61 60 69 77 81 84 69 55 43 34 29 25 18 16 25 40 45 38 32 24 16 13 9 10 15 18 15 11 11 8 11 12 11 9 10 11 16 16 15 11 15 14 9
75 83 85 83 81 88 75 62 46 43 41 34 30 41 41 40 37 32 25 17 10 9 12 17 19 14 12 10 9 14 14 13 13 14 16 18 17 19 15 17 19 13 13
91 68 82 91 87 96 80 68 65 60 51 48 50 48 46 40 39 28 12 9 12 15 18 16 12 10 6 10 14 14 15 12 14 18 19 18 21 21 20 22 23 15 15
81 79 63 40 60 82 89 83 75 72 68 63 56 51 40 26 13 11 11 14 18 17 14 10 6 8 13 15 17 17 15 17 18 17 14 16 23 24 26 27 25 16 19
82 96 94 87 43 31 29 35 50 43 26 21 18 15 13 12 12 15 18 18 15 11 7 9 13 16 17 17 19 20 23 21 20 14 13 21 29 28 31 31 30 19 24
84 86 95 96 80 76 69 48 31 24 19 16 15 15 15 17 19 18 16 13 9 9 13 18 19 22 22 22 26 27 25 21 16 15 17 23 23 25 32 36 33 32 34
83 74 69 72 85 83 77 78 54 32 21 21 21 20 19 18 16 13 10 10 14 18 21 22 24 24 25 31 33 31 29 20 19 20 22 23 22 22 36 36 28 22 18
82 75 69 61 53 44 44 45 45 30 26 22 20 19 16 13 11 10 13 17 17 15 12 12 19 27 37 42 40 31 25 23 22 23 22 21 20 20 24 12 12 13 15
96 82 83 88 83 70 53 42 34 28 26 27 20 14 14 18 20 16 13 12 11 11 13 18 28 44 49 37 33 30 27 24 23 24 22 18 16 14 13 14 17 21 22
77 57 57 66 89 91 76 51 35 38 31 23 20 19 18 16 14 13 11 10 12 14 16 29 46 45 39 37 36 34 27 24 25 23 21 18 16 17 19 22 24 25 24
92 73 47 42 48 46 54 60 50 38 32 28 24 20 18 17 14 13 13 13 15 16 20 38 54 47 45 44 42 34 28 26 25 23 21 22 24 25 27 28 28 29 28
77 64 44 47 74 84 72 58 51 44 40 36 29 25 19 18 18 17 16 16 18 19 32 53 55 56 53 47 39 34 29 27 26 26 28 30 31 31 31 31 31 31 30
79 76 53 67 98 82 67 64 56 48 46 40 35 25 22 24 23 19 20 19 21 24 40 62 64 57 52 48 42 38 33 32 33 35 36 34 35 38 40 40 36 35 33
46 67 78 100 100 86 68 64 62 50 45 42 39 31 27 30 26 25 25 24 25 31 45 61 62 56 57 56 53 46 42 39 40 44 43 46 49 50 48 45 41 38 34
72 70 75 94 99 98 93 65 59 47 44 47 43 38 33 35 31 33 32 30 28 34 46 48 56 58 64 67 64 57 51 49 48 50 56 61 61 57 53 48 42 38 36
95 98 100 100 99 96 84 65 58 52 48 50 45 40 39 40 37 36 37 37 36 41 46 46 51 58 60 67 74 74 70 63 63 67 72 70 62 58 53 47 44 42 41
100 100 100 100 98 97 82 68 63 54 49 55 49 43 42 45 43 40 42 42 44 50 52 55 56 61 66 68 68 80 89 81 82 82 76 66 62 56 52 48 46 44 43
99 100 98 100 100 100 99 91 71 63 56 47 50 50 50 49 48 48 47 50 53 58 58 59 63 72 74 68 61 89 100 99 93 91 83 76 67 58 52 50 48 47 44

GFSMW_500_rhum_054.txt.gz
RH
98 93 87 86 82 72 59 54 51 50 48 46 41 36 30 24 20 18 16 17 14 12 13 15 13 13 14 16 16 18 11 10 10 10 10 8 10 15 19 31 51 46 56
93 88 90 86 79 90 76 60 54 48 44 42 38 34 28 23 20 18 17 16 16 16 16 16 14 14 14 15 12 10 9 10 11 10 8 8 15 17 14 13 20 35 41
91 91 94 89 82 81 83 76 61 54 48 44 39 36 32 27 23 20 19 24 31 31 17 15 16 15 14 12 10 10 13 13 11 9 10 14 16 16 12 12 16 14 25
97 98 94 93 84 76 77 74 68 57 50 45 40 37 34 29 25 22 27 34 38 34 24 23 15 15 13 10 12 16 16 12 9 9 18 17 16 12 11 7 8 16 14
98 91 87 92 91 87 65 60 52 52 52 49 43 36 32 28 28 34 40 35 24 19 19 18 17 14 11 14 15 16 13 9 9 17 17 12 11 8 7 6 8 9 11
92 97 92 81 69 65 74 73 58 44 42 45 51 52 50 50 48 42 28 24 22 19 18 18 14 12 15 17 16 14 10 9 18 19 13 10 8 9 9 7 7 8 12
71 74 77 77 71 62 58 60 66 69 65 49 41 40 40 38 34 31 29 25 21 19 17 14 15 24 24 22 16 10 10 18 19 12 11 7 9 9 8 8 8 11 11
80 64 64 69 67 58 57 59 61 62 63 64 60 47 38 34 32 28 26 28 20 14 23 35 31 26 21 13 10 12 18 16 12 11 7 10 11 10 11 12 13 10 13
70 85 76 74 66 57 58 58 60 65 65 62 61 51 43 38 33 29 22 18 27 38 38 30 26 22 13 10 15 18 14 12 8 11 12 13 12 13 17 17 14 15 18
56 72 71 68 69 61 60 61 62 63 64 67 60 56 45 36 27 19 20 39 36 36 35 32 23 11 11 16 17 13 9 8 14 13 15 14 16 17 16 14 17 22 24
58 60 64 65 63 62 66 67 68 64 67 70 55 43 38 37 33 38 44 44 41 40 37 21 11 14 17 14 10 8 10 15 16 18 18 19 20 20 15 16 23 27 26
38 55 68 72 71 78 84 84 84 78 78 78 69 54 52 49 49 48 48 49 47 29 13 13 17 16 12 8 9 13 14 17 19 22 22 24 22 16 15 20 25 21 26
72 59 65 74 77 77 68 60 74 86 93 86 72 67 64 64 63 57 43 25 15 12 15 18 16 10 10 13 17 18 20 20 21 25 26 26 20 18 20 24 23 21 32
69 74 73 81 85 78 60 57 45 43 52 62 78 75 69 48 25 18 15 13 15 18 17 14 10 14 15 18 20 24 24 26 30 32 31 26 21 20 20 22 22 26 32
80 89 80 71 75 92 84 78 60 49 67 52 35 26 22 19 18 18 18 18 18 16 12 12 14 16 18 15 15 18 30 39 46 34 29 25 22 21 22 20 18 23 12
93 93 94 86 79 77 75 94 72 69 77 80 76 34 32 26 21 20 19 17 13 14 17 18 14 11 12 12 16 32 45 43 33 30 28 25 23 23 20 18 15 14 14
95 97 93 83 81 77 73 64 59 62 72 75 77 76 29 22 23 20 15 15 18 18 14 12 10 12 13 19 35 44 41 38 36 34 29 25 24 20 18 17 18 20 22
86 89 98 100 98 91 84 81 80 74 52 42 38 34 28 23 19 20 20 17 16 13 12 13 14 13 18 34 45 47 46 44 41 34 29 26 22 20 21 25 27 27 26
91 92 100 98 77 92 92 98 99 82 58 70 43 37 25 24 23 21 19 17 15 15 16 15 14 17 27 42 48 49 48 42 36 31 28 26 26 28 30 31 29 30 33
74 88 94 89 74 50 67 93 93 94 94 68 48 40 33 29 30 24 24 21 19 18 17 18 19 25 34 43 47 47 44 41 37 34 32 32 33 36 37 35 40 42 44
72 68 78 97 76 50 68 85 95 86 73 66 56 47 43 40 31 28 27 23 20 20 22 22 23 26 34 40 41 46 53 54 48 42 38 38 40 42 44 50 55 54 51
57 48 50 96 86 77 98 100 87 85 92 78 62 52 60 43 36 34 28 24 25 27 27 29 30 32 35 36 44 47 57 63 65 59 51 50 50 52 57 64 61 56 53
50 51 52 55 78 100 100 99 95 92 91 83 66 54 56 49 44 40 33 31 30 31 33 37 37 40 36 41 48 51 53 58 64 77 77 66 66 70 74 70 62 58 53
96 92 88 73 61 64 81 100 98 96 94 92 80 60 60 54 47 47 41 36 37 38 42 44 48 47 49 53 60 62 66 66 59 71 100 97 92 88 81 73 69 64 56
100 100 100 100 100 100 100 99 98 99 93 80 70 57 64 62 58 50 45 45 46 48 48 51 53 54 56 61 67 73 74 68 57 60 88 97 100 99 94 90 85 71 60
80 99 100 100 100 100 100 100 100 98 97 92 81 61 55 60 62 56 54 53 55 55 56 59 58 60 66 70 74 82 80 74 73 78 83 85 90 98 100 99 96 78 64

GFSMW_500_rhum_057.txt.gz
RH
96 95 96 90 84 96 98 84 87 74 65 66 66 64 56 49 46 41 36 31 27 21 18 17 15 13 14 16 16 21 16 14 12 9 11 13 13 11 10 13 16 14 12
96 97 96 95 96 95 97 92 80 73 66 63 61 55 50 47 44 40 35 31 26 23 20 19 17 18 22 16 20 23 15 15 13 11 14 16 14 10 13 16 15 13 14
96 92 98 96 96 93 95 96 97 92 74 62 56 52 48 45 43 40 36 32 28 25 23 22 23 35 37 26 41 21 16 14 12 11 15 18 14 10 15 14 13 12 9
99 100 100 100 100 98 95 94 95 94 94 79 60 54 49 46 42 38 35 32 29 27 23 24 28 39 35 23 18 17 15 12 15 17 14 12 9 12 17 15 10 9 12
94 91 98 99 94 90 91 92 90 85 91 95 92 70 56 49 44 41 38 35 32 35 38 41 42 27 21 19 18 16 12 16 23 19 15 10 13 18 14 11 7 8 8
98 100 99 96 92 88 92 99 88 77 76 77 75 71 66 61 56 52 45 40 41 46 46 41 29 27 22 19 16 14 22 24 22 14 10 13 18 14 11 7 9 9 11
89 97 93 97 94 88 93 94 93 88 83 72 65 55 50 49 49 50 51 49 48 46 37 31 28 23 19 15 22 27 24 21 16 10 12 18 14 11 8 9 10 10 11
72 70 89 90 87 95 90 82 73 64 61 67 71 68 63 56 51 47 44 40 38 34 31 29 29 24 18 34 31 28 25 20 10 15 18 14 9 8 10 11 11 13 14
52 52 53 76 80 67 78 81 75 65 54 54 58 62 64 67 67 64 57 47 42 39 34 24 22 40 39 36 34 30 21 11 17 16 12 8 11 12 13 14 15 16 16
28 54 70 85 81 71 68 61 62 63 61 57 56 58 62 62 63 61 60 53 43 32 23 25 37 39 37 39 36 17 14 17 14 9 10 14 16 17 17 18 20 21 15
17 18 34 53 62 88 80 73 65 52 48 49 54 53 55 56 57 58 56 49 38 29 27 31 33 40 44 34 14 16 17 11 9 14 16 17 17 20 21 24 24 19 16
26 26 19 19 42 53 82 80 76 67 61 52 55 55 53 53 56 57 52 44 41 43 43 46 47 49 23 13 16 17 10 12 18 19 20 20 22 25 28 27 26 19 17
40 42 42 38 32 36 50 62 70 66 64 61 58 59 64 67 67 67 61 56 54 53 55 52 26 15 15 17 17 12 16 19 22 22 24 26 32 35 33 33 24 20 18
41 49 54 53 62 59 55 57 68 70 70 71 71 80 82 82 87 82 73 68 65 58 29 17 15 17 18 17 14 19 20 18 16 19 30 39 47 42 34 26 22 20 20
71 68 70 76 77 68 67 75 78 72 73 61 61 65 68 69 71 71 67 58 36 20 19 19 19 20 16 17 21 18 13 13 17 31 38 39 35 33 30 25 23 22 18
82 81 73 72 73 72 75 71 78 85 82 76 77 71 56 68 47 33 28 24 23 23 23 21 18 17 19 20 14 13 13 17 30 42 45 44 41 36 30 25 23 20 17
81 82 83 84 84 89 87 80 79 81 78 90 88 75 84 79 81 78 82 78 73 44 21 18 19 20 15 14 15 14 12 17 32 40 43 43 38 32 27 24 21 20 22
89 88 93 93 96 100 100 96 87 85 92 86 76 76 76 78 84 75 75 33 25 22 24 20 18 17 16 15 13 14 21 31 38 40 38 34 32 28 26 25 25 27 30
82 100 99 96 98 99 96 100 99 96 89 95 91 82 48 54 56 81 40 26 24 22 20 19 18 17 17 15 16 23 32 35 33 36 39 39 37 33 31 32 33 35 36
53 56 76 99 100 100 100 95 86 92 99 98 99 96 89 96 70 58 36 28 24 23 23 22 20 19 18 18 23 30 33 32 35 39 43 47 49 44 41 38 39 41 43
53 54 63 80 93 100 100 98 65 60 85 100 100 100 100 77 58 48 43 40 32 26 26 26 24 21 21 26 29 32 33 33 37 41 43 49 51 58 59 51 50 52 56
46 55 64 69 87 96 100 92 70 81 100 100 100 99 99 99 90 57 50 88 47 38 33 31 27 26 27 32 33 37 41 48 50 54 56 60 55 53 70 79 72 75 82
49 45 56 66 57 53 96 97 91 90 100 99 99 100 98 86 67 74 85 54 48 48 44 38 37 36 34 38 41 46 54 58 59 63 63 61 56 47 64 91 92 92 93
74 74 72 64 55 56 59 76 99 100 100 99 100 100 99 98 94 75 66 60 59 55 50 45 44 42 46 47 52 58 62 67 69 72 73 69 66 66 69 83 85 85 92
69 90 100 96 94 98 90 76 90 95 99 100 100 100 100 100 80 72 71 73 72 68 64 57 51 52 53 56 62 65 70 72 74 76 81 79 77 76 78 80 82 87 90
48 71 89 100 100 100 99 98 99 100 100 100 100 100 99 99 88 76 81 79 80 79 70 64 60 58 60 64 74 76 78 79 78 83 87 85 86 89 89 86 85 89 90

GFSMW_500_rhum_060.txt.gz
RH
95 96 87 61 55 52 53 79 91 89 96 94 71 62 63 60 62 62 60 55 48 42 38 33 28 25 22 19 17 16 24 22 23 51 32 17 15 12 15 17 14 12 14
91 93 95 90 76 75 68 67 77 90 98 94 92 77 62 61 63 64 61 54 46 42 39 34 29 26 23 21 20 21 33 44 26 32 18 16 14 14 16 16 14 13 15
97 97 96 96 97 94 90 87 99 94 88 92 90 88 82 69 65 63 56 50 46 43 40 36 31 27 26 22 21 31 40 36 23 18 17 15 13 22 20 13 13 16 15
99 92 95 97 96 96 97 97 96 90 92 94 94 83 73 68 64 59 55 51 48 45 41 36 32 29 28 28 36 41 34 23 20 19 16 13 26 26 22 12 15 16 14
100 98 96 89 95 92 89 95 97 97 95 89 96 95 87 82 80 70 59 54 50 47 43 38 35 32 29 33 46 42 29 26 20 15 17 28 23 19 14 11 16 14 10
90 85 99 95 84 81 85 98 97 96 93 89 90 86 87 92 90 69 61 56 52 48 47 43 39 38 46 50 41 30 25 20 15 29 29 26 21 13 12 17 15 11 9
86 94 100 97 95 100 100 99 96 97 96 91 87 88 84 86 85 85 80 69 63 60 57 54 53 52 45 36 31 26 27 24 32 33 30 25 17 11 16 15 10 10 13
50 68 79 100 99 97 99 97 99 97 87 85 84 87 83 78 70 65 60 54 53 50 48 48 47 44 40 34 33 25 33 36 37 34 32 21 12 16 15 10 9 11 14
46 49 43 79 94 98 97 98 99 94 86 82 80 79 76 77 77 74 69 65 63 62 63 61 56 48 41 33 27 31 36 36 36 37 25 12 16 15 9 10 13 15 16
32 46 68 65 74 85 87 85 85 85 81 83 80 78 73 66 62 62 64 66 65 63 60 57 54 45 32 28 23 25 31 35 40 21 14 17 13 9 12 14 16 18 18
18 18 32 64 63 81 90 95 85 82 71 66 59 62 65 64 56 55 58 63 67 65 64 61 51 37 31 32 38 38 42 45 15 15 17 11 12 16 18 20 21 23 27
14 13 13 14 17 39 61 76 95 90 92 86 76 66 64 64 64 56 51 53 59 64 64 58 46 40 44 46 50 52 25 14 16 18 12 15 19 20 21 22 28 34 38
18 19 21 24 22 21 22 32 46 56 77 82 87 88 71 68 65 58 57 55 55 57 65 65 59 56 56 59 47 20 16 18 19 14 18 18 18 14 18 28 36 40 36
24 25 30 23 26 30 33 30 37 53 55 55 60 63 69 70 66 61 60 58 61 66 75 76 74 68 68 43 19 18 19 20 15 17 17 12 12 21 32 37 39 39 33
51 52 51 47 44 34 40 47 49 61 65 64 65 70 75 70 66 63 65 66 67 70 66 71 72 67 40 21 20 20 19 15 20 15 13 16 26 31 31 40 39 36 28
65 65 71 64 63 66 57 57 63 65 66 67 70 76 76 73 68 62 64 66 54 44 38 32 28 25 24 27 28 27 22 22 16 16 17 18 21 27 32 33 31 28 24
66 80 79 71 68 76 74 72 72 73 73 73 74 74 91 88 71 68 75 65 54 68 58 58 46 59 54 57 28 25 21 19 17 15 22 23 29 30 30 29 27 25 24
59 60 78 76 83 84 82 75 80 89 97 93 82 83 84 85 98 92 87 83 86 88 82 84 82 67 45 32 27 27 21 18 17 24 26 27 29 30 35 37 36 31 29
55 56 50 66 82 85 93 100 96 100 100 100 98 89 94 95 95 86 78 89 85 87 82 41 35 37 33 31 31 24 20 18 27 28 28 28 26 28 31 36 39 43 42
50 54 55 55 66 91 99 98 100 100 100 100 98 99 100 97 97 94 75 69 75 66 65 53 41 40 42 37 28 24 24 31 31 30 31 35 40 42 45 49 43 39 46
47 51 54 55 55 60 76 94 100 100 100 91 73 72 95 100 100 100 97 98 96 82 62 56 56 53 39 34 33 33 35 32 31 34 42 47 50 53 55 52 45 39 36
44 46 48 51 62 69 80 80 88 100 100 96 70 69 92 100 100 100 100 100 88 76 74 76 77 56 47 45 42 41 39 36 34 44 51 56 59 62 65 60 55 50 45
66 51 46 43 48 66 58 78 78 91 100 99 100 100 98 100 100 100 100 100 100 92 99 98 69 60 58 54 50 46 44 43 44 51 55 61 65 68 68 66 62 64 67
79 82 80 73 72 54 56 63 62 85 97 99 85 99 99 100 100 99 98 100 100 100 100 86 77 71 66 60 58 53 51 50 52 56 63 68 68 68 70 70 70 76 81
79 63 79 84 97 98 100 99 92 76 82 92 98 100 100 100 100 100 100 100 100 100 98 89 82 82 75 69 68 63 61 62 61 70 78 75 76 74 73 71 74 79 80
75 82 53 67 100 100 100 100 100 100 96 99 100 100 100 100 100 99 99 98 98 97 98 94 88 87 89 82 73 70 69 71 76 88 90 82 82 81 79 75 78 86 85

GFSMW_500_rhum_063.txt.gz
RH
72 72 93 84 50 44 38 35 36 54 66 82 84 96 64 42 48 53 56 57 60 63 63 58 50 44 41 36 30 26 23 22 22 24 31 39 33 24 19 17 14 17 24
74 70 80 95 92 56 54 48 45 48 60 77 83 89 94 94 75 70 69 68 66 65 68 61 51 46 43 40 34 32 29 28 24 35 39 38 26 21 19 15 15 24 22
63 77 82 88 93 95 67 60 56 51 51 54 60 70 90 96 96 89 73 73 68 66 66 59 51 47 45 42 37 33 32 28 28 38 41 38 33 24 16 17 20 21 17
64 67 59 58 77 89 96 73 66 67 66 66 65 83 73 90 89 74 71 71 70 68 62 56 53 50 47 44 40 36 32 28 32 46 42 30 27 18 21 26 26 21 15
100 98 76 89 94 84 88 97 95 87 83 81 90 98 82 81 85 88 85 78 73 68 64 66 62 54 51 47 42 36 31 36 50 47 34 24 26 25 30 30 28 22 15
91 96 89 96 88 86 87 86 96 97 98 98 96 94 95 98 86 81 86 80 76 79 79 67 60 55 51 45 44 40 46 51 43 35 28 30 29 33 32 30 28 19 14
78 81 93 90 87 87 81 81 93 96 96 94 94 98 97 92 86 81 81 84 86 86 90 79 79 67 55 51 50 51 46 41 37 34 35 32 33 33 31 32 23 14 16
56 57 84 94 92 88 93 94 96 97 96 96 95 98 92 89 89 87 88 89 88 89 86 82 73 61 54 49 46 47 49 42 38 33 30 30 30 30 33 26 14 16 13
34 38 39 46 92 94 95 98 99 98 99 97 93 96 89 96 90 86 89 83 81 78 68 63 56 51 52 58 63 58 43 33 33 27 25 26 27 40 22 13 16 13 10
19 36 41 35 44 57 84 92 100 99 98 100 99 98 96 97 93 89 86 85 81 77 73 73 72 70 68 65 60 58 56 46 31 32 34 40 43 24 14 17 12 14 16
17 21 24 25 26 32 43 70 88 91 95 96 98 94 96 97 93 89 84 81 75 68 61 63 63 64 66 68 67 57 46 41 40 42 47 48 22 14 17 14 15 19 18
13 14 16 17 20 30 47 56 66 88 90 89 87 82 89 95 86 81 80 80 79 76 69 63 63 63 68 69 68 58 47 45 50 52 52 24 16 18 16 18 16 15 12
17 19 19 17 15 15 15 18 30 50 66 84 98 100 100 100 96 94 91 92 84 77 70 64 62 64 65 69 73 67 61 61 64 52 21 18 19 18 18 16 11 14 21
23 22 20 18 18 16 18 18 17 22 30 48 57 61 63 67 75 74 70 70 69 70 66 63 60 56 54 58 59 72 71 70 66 27 20 21 21 26 16 12 15 17 26
30 37 31 31 32 37 34 32 31 24 24 27 27 32 42 55 59 61 64 69 69 64 62 61 62 59 56 63 67 71 73 56 26 21 23 27 30 16 16 13 21 27 28
44 46 43 40 45 56 60 50 45 45 44 41 43 45 46 54 59 62 57 61 70 70 69 72 61 60 52 49 44 37 29 27 26 28 34 30 21 24 19 25 28 26 27
59 53 57 56 56 65 67 62 65 71 72 68 67 66 67 67 67 66 68 76 76 75 64 67 70 86 73 58 40 40 41 43 44 38 39 24 27 24 30 27 27 29 30
61 56 55 55 54 54 54 60 71 76 76 72 72 74 74 83 83 79 75 84 78 71 78 72 81 89 86 83 84 90 87 85 65 46 34 26 30 33 28 26 28 30 34
51 48 45 43 44 52 52 65 81 94 96 94 90 91 92 93 95 99 93 88 89 90 86 82 86 82 86 83 79 51 46 46 58 45 32 34 41 32 30 34 40 43 45
48 45 42 42 48 49 56 60 85 93 100 100 100 100 95 89 90 94 99 94 95 98 83 82 96 93 98 89 75 74 78 58 48 43 44 46 40 33 38 48 48 51 46
50 51 52 51 51 52 56 57 58 64 75 97 97 94 92 92 81 77 98 100 96 98 99 97 93 89 97 91 81 72 64 56 50 50 48 45 38 42 52 54 54 55 52
47 53 55 44 45 50 54 57 59 66 78 82 88 92 97 92 83 81 98 100 100 100 99 100 99 96 83 80 80 90 82 57 53 54 49 42 41 50 53 57 56 54 56
55 63 70 57 48 46 44 52 64 66 73 80 76 91 96 100 81 95 100 100 100 99 98 100 100 100 100 100 98 85 70 63 61 57 55 51 52 55 61 63 60 61 59
62 58 70 72 67 65 60 54 48 65 73 67 70 94 100 90 98 100 100 100 100 100 100 100 99 100 99 97 100 89 81 71 67 64 60 58 59 62 77 85 71 69 68
55 75 59 75 76 85 86 89 90 94 86 76 66 76 93 98 98 100 100 100 100 100 98 99 100 100 100 99 99 95 84 76 74 72 69 63 61 72 83 85 79 80 79
72 64 66 74 78 60 67 88 100 98 99 98 100 89 85 100 100 100 100 100 100 100 100 100 100 100 100 100 100 98 97 94 87 77 71 70 75 85 94 90 89 89 84

GFSMW_500_rhum_066.txt.gz
RH
89 84 93 97 74 44 42 39 36 38 35 31 31 46 61 83 73 28 21 23 35 47 55 63 64 65 68 63 53 48 44 42 39 38 34 34 30 41 42 39 31 28 23
97 93 77 92 92 81 47 47 41 37 36 32 32 35 53 68 74 90 67 38 48 55 60 66 68 66 68 67 57 51 48 46 41 40 39 38 32 38 47 40 24 19 25
90 89 87 96 90 92 91 83 56 47 42 41 37 44 60 72 77 85 82 82 100 86 72 70 66 67 65 62 56 52 50 48 44 41 41 46 38 48 43 32 26 27 28
48 65 61 69 75 85 83 94 95 64 52 58 50 49 49 54 61 60 79 76 77 80 73 73 67 71 70 66 60 60 58 51 61 56 38 37 48 50 43 31 36 33 33
56 70 48 66 79 77 93 94 94 84 93 80 76 60 58 53 49 51 48 58 73 88 79 74 71 72 75 72 72 70 58 56 62 56 45 49 49 40 40 42 35 33 33
90 92 80 69 74 78 64 66 85 80 85 95 93 86 82 71 68 72 74 73 81 83 79 78 76 75 78 81 79 71 68 71 70 67 52 49 44 37 38 37 33 30 30
60 71 74 83 100 100 87 83 87 84 85 90 95 95 98 97 96 96 96 95 89 92 80 75 67 74 84 89 90 90 87 67 62 63 59 48 50 42 38 32 30 30 37
31 40 44 44 48 63 94 99 100 98 96 97 95 95 97 95 96 96 95 90 97 85 77 82 80 82 84 86 83 73 62 56 53 73 60 53 44 38 37 33 35 41 37
18 20 38 58 53 55 87 92 95 97 98 99 95 98 93 97 97 97 95 98 96 84 77 86 85 77 75 72 68 65 65 66 68 63 56 54 52 38 37 38 46 44 22
16 15 14 20 28 29 51 67 97 97 98 96 98 92 88 99 96 97 93 96 98 89 91 91 91 91 86 80 74 72 71 68 70 68 65 55 43 40 44 49 45 20 16
13 11 11 12 17 18 28 39 49 59 88 96 95 97 93 98 96 96 95 99 99 98 96 93 86 83 77 72 63 64 64 69 71 70 65 52 48 48 54 54 23 17 17
12 12 12 13 15 16 18 20 25 35 47 72 70 65 91 91 96 98 100 98 97 99 98 98 96 91 86 78 72 71 66 65 67 68 69 64 59 64 64 33 19 19 18
13 13 17 18 18 18 18 17 16 17 26 38 56 64 73 97 98 94 95 98 97 99 99 98 97 87 79 74 68 64 61 56 53 53 60 69 72 69 62 21 22 22 19
27 28 28 26 24 23 21 20 18 17 16 18 17 21 32 57 81 86 85 96 96 95 93 94 94 78 70 66 63 61 59 56 53 56 60 70 79 73 34 22 23 22 20
23 21 20 18 15 14 18 21 22 25 28 27 27 32 27 25 28 39 49 54 60 77 73 69 74 71 72 71 67 61 62 63 68 67 70 66 49 31 30 30 29 27 21
26 30 28 28 26 37 43 41 39 42 48 44 34 34 38 44 45 43 42 41 42 52 56 62 52 48 58 71 72 69 66 56 44 43 39 34 36 36 43 36 34 24 24
45 48 43 41 38 39 42 54 52 54 65 61 57 51 49 56 63 63 64 64 66 67 69 67 69 67 71 73 70 84 89 82 65 43 44 46 55 59 74 64 36 33 27
51 53 46 47 48 46 44 52 48 53 60 56 60 63 70 72 74 72 71 73 78 78 73 77 72 76 75 76 73 79 93 97 92 99 96 99 96 87 55 53 46 33 32
56 56 50 48 49 46 47 45 46 46 57 59 60 68 78 79 78 78 77 82 84 84 88 90 86 92 92 86 86 84 84 92 98 93 80 78 85 59 58 55 47 37 38
47 50 47 42 40 37 37 42 42 46 52 56 63 76 89 91 91 89 87 89 84 90 94 100 100 98 96 95 99 98 96 91 90 93 96 97 66 64 60 57 48 42 48
53 50 52 55 52 50 52 51 50 50 53 54 57 65 71 79 81 83 86 88 87 94 98 100 100 98 100 99 95 93 100 100 99 100 91 72 72 66 66 58 47 52 57
40 51 58 50 48 52 54 45 44 48 51 53 55 57 70 79 79 81 95 94 82 90 100 100 100 100 100 100 97 98 99 100 100 98 91 87 78 73 67 58 52 54 61
42 41 52 58 52 68 61 48 48 47 46 54 63 67 72 79 75 88 93 98 91 91 100 100 100 100 100 100 99 96 96 100 100 99 100 90 79 71 66 60 60 63 77
60 51 45 50 65 64 73 74 68 65 59 49 56 65 72 71 80 96 91 83 96 100 100 99 100 99 98 94 98 100 100 100 100 100 100 100 95 87 77 75 74 72 81
59 68 70 62 58 70 65 74 82 91 92 92 88 89 85 77 71 85 100 91 96 100 100 100 100 100 99 99 100 100 100 100 100 100 100 100 99 99 98 94 86 87 98
61 39 34 51 71 64 69 75 76 64 85 100 100 94 90 89 96 90 97 97 97 100 99 100 100 100 100 100 100 100 100 100 100 100 100 100 100 100 100 100 100 100 100

GFSMW_500_rhum_069.txt.gz
RH
64 100 96 86 91 88 62 60 46 45 42 38 36 34 28 30 37 50 62 52 37 19 21 22 28 44 55 60 62 60 59 62 56 51 48 48 44 42 44 46 37 48 46
82 80 85 96 90 92 86 87 69 65 58 67 48 35 35 32 29 31 52 73 92 74 61 57 51 46 55 60 62 58 59 62 59 52 52 53 48 52 50 42 45 51 42
93 76 57 64 72 74 96 99 87 81 78 55 49 42 34 39 38 34 35 59 78 81 89 91 87 67 56 57 71 72 68 64 65 61 57 58 58 64 62 48 56 48 35
62 71 95 98 88 86 83 92 90 99 97 92 92 91 64 41 48 45 49 74 70 77 80 78 74 75 77 72 67 63 61 60 62 67 68 64 63 70 68 59 52 49 41
50 52 48 90 93 97 97 92 95 95 96 90 96 95 98 84 70 68 53 52 52 58 57 65 74 72 89 90 89 87 84 71 69 71 72 72 78 78 72 70 52 46 44
51 39 30 32 62 65 89 87 85 82 90 100 94 96 94 96 96 96 82 62 52 58 58 74 89 90 89 92 81 73 66 64 75 85 85 83 80 73 75 73 56 49 41
23 50 50 57 50 48 54 59 65 60 55 62 75 74 86 91 96 96 96 98 78 74 86 88 88 91 91 95 84 73 67 72 81 84 85 80 72 61 76 66 51 43 42
18 17 28 49 59 73 83 80 77 81 79 83 68 65 74 83 88 94 96 97 94 96 97 98 93 92 91 91 80 72 75 74 75 75 70 67 63 70 66 58 58 51 42
16 14 13 11 20 34 48 50 54 75 74 89 81 86 98 96 94 94 96 93 99 98 97 98 97 87 96 89 83 82 84 78 78 84 81 79 75 70 69 66 57 47 46
20 16 14 12 11 12 26 41 47 54 66 66 78 97 98 99 98 98 98 96 87 90 96 97 96 96 100 99 89 85 90 88 80 70 64 65 69 72 70 68 55 50 51
24 19 14 13 12 10 13 20 25 36 62 81 87 89 99 97 98 100 99 100 99 95 96 96 95 100 100 98 96 89 86 83 77 72 68 65 65 69 67 69 65 62 62
46 32 21 14 11 11 10 12 15 19 25 32 37 40 55 86 85 95 88 99 96 97 96 98 98 98 96 94 96 94 92 92 84 73 67 64 61 59 61 66 69 63 67
27 19 14 14 16 16 16 16 15 15 16 15 16 21 28 36 58 77 86 74 98 97 97 91 96 96 96 96 93 95 94 89 81 69 63 60 56 54 52 58 69 75 81
32 28 25 28 24 23 24 25 24 23 22 20 19 18 16 15 16 22 34 37 39 61 82 82 84 90 81 88 90 88 90 91 84 78 70 60 58 59 59 69 82 82 54
36 35 32 30 29 26 21 18 19 19 19 19 21 22 22 24 22 20 23 26 28 30 34 38 40 45 53 50 53 63 68 68 72 67 64 63 63 64 64 66 51 38 39
27 28 24 20 19 21 22 21 28 44 42 46 44 42 41 42 38 28 31 36 41 44 44 41 41 42 45 55 67 63 55 52 69 72 73 73 46 43 43 44 51 69 64
28 32 38 30 31 30 32 42 44 49 54 57 52 47 52 66 67 61 50 49 47 50 55 56 57 60 60 58 62 69 69 70 77 79 96 92 88 61 56 61 65 66 74
29 28 34 44 51 47 42 54 48 49 49 52 48 42 41 54 63 63 63 65 63 67 72 72 68 64 71 75 67 72 70 75 74 82 92 94 99 95 97 99 98 98 64
46 46 46 45 47 49 52 57 54 49 49 49 45 44 46 56 58 59 67 75 76 72 69 65 66 62 66 78 96 98 97 97 95 93 87 88 100 100 99 100 97 69 86
32 33 38 50 54 53 57 55 51 46 43 43 41 40 51 60 68 74 81 88 86 81 78 78 75 77 79 83 93 92 100 100 99 99 100 97 98 100 100 100 83 79 91
51 47 50 51 45 48 49 50 49 48 48 48 49 50 54 58 60 71 75 71 74 77 79 85 86 92 85 98 98 100 100 100 99 100 100 99 99 100 100 98 100 97 79
46 44 42 41 43 46 55 55 50 50 52 49 46 48 51 54 58 59 61 73 78 76 88 96 88 91 100 100 99 100 100 100 100 99 99 100 100 100 100 100 100 91 84
50 42 39 38 38 40 47 58 53 64 63 48 49 50 50 55 60 64 69 80 80 89 88 90 85 92 96 99 95 100 100 100 98 98 99 100 100 100 100 100 100 99 92
76 63 60 56 48 44 43 51 64 64 71 71 64 61 60 50 59 66 72 76 82 95 96 87 95 92 100 100 100 100 100 99 100 100 100 100 98 98 99 99 99 99 100
34 45 56 63 68 68 67 57 57 64 68 75 87 97 98 97 92 89 89 75 72 97 95 92 92 84 91 98 100 100 100 100 100 100 100 99 99 99 100 100 100 100 100
80 73 56 58 54 38 42 66 71 67 71 76 74 78 98 100 100 100 97 86 99 98 99 97 89 88 91 100 100 100 100 100 100 100 100 100 100 100 100 100 100 100 100

GFSMW_500_rhum_072.txt.gz
RH
43 40 52 66 95 95 95 85 94 97 87 68 84 93 95 71 62 58 52 40 56 63 57 36 20 19 21 27 37 44 52 58 60 59 60 62 61 56 54 55 54 58 66
33 30 30 34 41 76 71 93 93 92 96 92 61 46 51 60 54 35 31 32 31 40 71 79 79 49 45 39 39 47 54 57 61 65 67 67 67 63 60 62 55 60 70
32 30 41 48 53 72 100 99 96 96 94 87 88 88 81 72 72 42 33 34 32 32 48 61 74 88 92 89 82 70 62 59 68 72 60 58 66 72 68 64 62 66 86
33 31 41 61 87 80 90 96 96 96 96 96 92 85 80 84 83 78 77 80 59 54 54 55 70 74 79 83 79 76 81 80 75 74 79 68 60 52 55 68 76 85 82
50 43 39 68 83 86 69 76 66 94 92 96 95 100 94 90 99 89 94 92 95 96 94 92 84 92 89 75 75 70 68 71 72 72 72 69 64 60 56 62 84 79 74
55 47 44 54 65 62 72 89 91 100 98 94 96 97 96 96 97 97 96 97 97 93 95 96 93 86 71 71 73 75 80 81 77 76 78 69 63 63 63 64 72 68 66
54 47 47 44 46 43 45 59 89 94 94 90 96 96 92 97 97 97 96 96 95 95 96 97 97 96 94 86 95 81 72 86 92 86 78 66 66 68 71 72 70 66 69
38 32 26 41 45 52 66 64 72 69 66 79 79 82 68 58 60 76 87 94 94 96 94 96 95 94 96 97 97 93 94 86 86 82 76 65 76 74 78 80 78 76 72
44 37 31 22 18 34 40 34 38 49 46 51 59 61 57 64 71 71 82 89 88 96 97 96 96 95 90 96 93 96 88 89 90 89 82 73 72 72 78 75 69 67 66
35 31 25 23 18 17 16 17 22 37 54 58 60 50 60 60 69 94 99 98 98 97 98 98 96 88 85 88 94 91 92 97 92 90 88 81 78 74 70 64 60 62 65
26 23 27 27 15 14 12 12 11 11 13 21 28 38 44 53 72 83 98 100 98 98 96 98 98 98 93 87 87 95 91 88 84 91 96 91 84 78 75 72 69 68 64
28 28 28 22 19 16 14 12 10 9 9 9 11 13 17 28 59 72 93 99 99 96 98 98 97 97 97 98 100 95 97 97 98 96 97 97 92 84 81 76 65 62 60
54 50 48 44 45 27 18 13 12 14 14 13 13 13 13 14 15 21 25 30 36 46 65 87 92 88 94 99 92 89 93 95 94 93 95 93 88 80 76 74 75 66 64
43 37 35 31 24 17 14 13 12 14 17 20 22 23 23 22 20 18 17 16 15 15 16 22 34 47 59 60 64 71 62 59 62 61 57 64 71 67 70 70 71 69 74
44 44 36 29 25 24 21 22 25 27 27 23 20 19 18 18 18 18 18 18 18 17 18 18 19 21 24 24 26 29 30 38 43 52 62 66 67 70 71 67 61 58 56
49 44 40 37 35 33 31 28 24 18 15 19 18 21 32 34 34 35 35 35 35 36 38 32 32 32 33 35 33 35 32 36 39 42 56 58 55 58 81 82 79 63 49
46 33 27 23 21 21 25 21 19 20 27 28 29 41 39 40 49 45 36 38 50 64 64 60 48 43 40 40 42 43 48 47 48 54 61 65 58 67 89 100 93 78 70
39 32 24 23 21 20 23 43 42 30 34 36 43 55 54 41 38 44 40 36 40 48 55 58 56 54 56 58 59 58 48 52 58 64 72 71 90 82 85 95 93 98 94
34 33 32 35 37 35 32 37 48 48 46 44 48 55 54 47 43 43 39 40 42 54 62 68 72 71 70 68 67 68 69 63 71 80 87 86 96 100 100 100 100 90 100
53 54 52 51 48 42 39 48 56 57 63 66 60 58 57 53 49 46 43 44 52 56 66 70 68 68 71 75 80 79 78 88 92 97 96 98 100 100 100 100 100 100 100
49 46 45 43 40 39 43 48 48 50 51 50 49 50 50 49 47 44 46 48 57 58 63 65 64 73 70 81 88 86 88 96 95 97 97 99 100 100 100 100 100 100 100
46 40 44 57 49 47 47 48 48 50 54 56 54 52 52 52 51 52 53 54 56 60 62 61 71 72 76 95 92 86 100 100 99 100 99 100 100 100 100 100 100 99 99
52 69 72 76 65 49 41 40 39 42 52 59 52 55 61 59 49 49 52 54 57 60 63 67 76 80 95 99 90 94 100 100 100 99 100 100 100 100 100 100 100 100 100
38 32 33 60 83 74 63 62 52 45 45 49 61 60 69 65 60 52 56 52 54 66 69 78 82 97 100 92 91 90 91 97 100 97 100 100 100 100 100 100 100 100 100
67 55 39 33 36 51 65 73 72 73 68 55 55 62 72 80 82 78 83 90 91 80 88 75 76 96 99 89 94 94 90 99 99 100 100 99 97 100 100 100 100 100 100
100 100 88 72 49 57 55 45 42 42 48 70 70 63 72 75 78 83 99 96 98 99 96 90 99 99 100 99 94 94 97 100 100 100 97 97 100 100 99 98 97 98 98

GFSMW_500_rhum_075.txt.gz
RH
63 73 76 88 85 78 96 96 94 91 91 95 96 97 97 88 86 98 79 91 79 72 62 50 53 51 36 26 19 20 25 33 39 47 58 64 67 71 69 66 65 64 65
64 49 39 64 34 48 62 92 95 96 94 95 95 93 91 95 86 87 78 68 61 58 41 35 42 57 76 82 55 25 28 37 48 42 49 60 80 75 71 68 70 70 65
59 52 44 35 30 30 38 53 93 86 83 93 94 91 90 94 80 62 60 51 56 55 36 33 34 48 61 77 80 87 83 87 96 80 69 67 71 70 81 81 78 72 67
63 60 57 45 30 43 36 50 60 82 94 96 88 80 95 96 96 94 92 80 80 76 59 48 54 56 58 65 68 82 90 93 90 79 71 62 52 58 57 69 66 62 59
72 74 60 46 40 46 40 46 58 64 75 97 100 94 94 100 98 96 96 96 96 95 93 92 96 96 96 96 94 92 87 94 83 77 74 75 63 60 55 59 69 65 58
96 94 80 50 34 40 48 58 55 75 69 86 76 79 81 96 96 97 96 97 96 97 96 96 96 96 97 97 96 96 96 93 80 70 76 79 79 72 61 67 66 61 67
60 63 63 60 42 40 57 63 64 65 68 77 74 69 68 96 85 87 97 95 96 95 97 97 97 96 96 97 97 96 91 89 77 70 75 79 75 87 82 79 70 56 56
66 63 76 58 48 43 46 60 62 49 42 47 70 92 92 92 97 99 96 97 93 96 96 97 94 96 96 97 95 96 92 97 92 85 84 89 94 91 80 77 75 67 62
69 69 65 52 47 42 39 51 56 48 41 40 50 47 61 74 87 81 90 96 72 68 77 83 90 96 91 91 90 86 84 90 91 94 92 93 92 93 87 88 78 75 71
60 48 37 32 24 29 29 32 36 47 51 58 68 62 61 57 50 49 59 63 58 60 77 75 75 78 79 82 93 96 90 85 80 82 84 85 88 94 85 82 80 86 82
46 50 50 47 38 29 24 25 24 22 22 20 24 32 34 42 52 55 58 55 65 68 78 98 99 97 100 99 96 89 90 90 84 78 80 85 81 88 100 99 93 94 93
38 38 32 29 26 21 22 16 14 13 12 12 12 11 10 10 11 13 16 25 38 60 82 92 87 91 96 94 100 100 92 97 96 96 94 97 98 97 92 95 97 100 96
54 44 39 35 33 27 30 24 17 15 14 13 13 12 9 9 10 11 12 13 14 14 17 20 25 27 24 29 56 61 62 79 90 85 80 74 66 68 72 72 78 91 85
62 63 61 36 29 29 29 29 29 34 25 17 14 11 12 14 16 17 18 19 20 21 20 18 17 16 16 16 15 18 24 30 41 40 40 36 32 37 40 49 62 71 75
74 64 58 62 59 56 52 51 47 38 25 15 13 13 15 18 23 26 25 23 21 18 16 15 15 16 18 19 19 19 19 20 20 22 24 27 29 31 34 46 64 71 69
79 64 55 46 41 38 33 30 27 22 19 20 23 25 27 23 16 14 14 14 15 14 18 24 28 32 34 36 39 41 36 30 32 32 33 37 45 50 49 49 54 59 64
84 74 70 59 48 42 40 39 36 32 32 32 27 20 16 15 16 15 15 22 29 34 35 33 30 32 36 42 47 49 48 44 44 49 56 62 54 51 60 64 76 69 72
80 77 66 59 47 36 32 29 29 26 23 24 22 23 27 25 24 25 26 32 36 34 36 35 36 31 33 40 46 54 59 64 66 67 66 60 57 55 67 78 88 96 98
67 64 61 54 46 40 33 29 37 33 25 25 30 36 35 32 34 36 39 40 40 44 47 42 37 35 33 40 53 65 65 64 64 64 70 71 69 74 84 95 98 98 98
46 47 47 47 46 42 36 45 56 60 54 42 32 29 30 34 40 47 47 50 52 47 47 45 41 39 37 43 60 59 54 60 64 68 75 77 78 82 96 95 94 100 97
62 61 68 68 66 61 55 54 51 48 47 44 41 42 49 57 58 58 60 55 49 45 43 42 41 40 44 46 56 60 60 65 77 81 81 89 90 93 94 96 98 88 100
48 46 44 46 48 48 47 57 57 50 52 51 49 44 45 51 50 48 52 54 53 54 55 54 54 52 52 56 57 62 64 69 83 82 92 91 85 100 100 93 88 98 100
82 79 75 74 73 68 60 67 63 54 48 46 45 44 46 52 57 55 52 53 54 52 49 50 52 55 58 59 64 73 76 80 89 86 90 85 92 100 98 100 100 100 100
74 66 58 50 46 38 32 31 68 78 67 51 44 44 44 50 59 56 59 69 64 52 51 52 53 52 65 71 79 83 85 90 96 97 89 77 88 99 100 100 100 98 100
91 88 90 96 94 79 61 46 33 41 73 77 67 63 57 51 52 62 64 74 82 80 65 72 79 82 71 77 72 77 93 95 95 98 100 95 90 97 96 98 96 100 100
92 97 98 94 98 100 100 95 64 45 41 45 60 69 74 74 68 62 64 81 82 84 91 91 86 86 86 83 100 95 97 100 100 100 96 96 100 100 100 100 100 100 100

GFSMW_500_rhum_078.txt.gz
RH
97 96 95 96 94 96 84 96 95 96 95 95 96 96 97 94 96 97 97 82 54 52 48 51 58 59 44 31 29 26 24 21 19 22 28 34 37 48 58 64 65 65 62
94 97 95 95 95 92 97 97 95 93 97 96 97 96 95 96 96 84 87 85 83 58 56 72 66 60 46 42 46 54 61 52 30 21 20 34 50 54 58 58 70 63 72
95 96 96 95 97 96 93 86 91 91 94 94 91 95 94 96 96 97 94 93 93 72 72 72 82 82 84 65 53 48 54 67 74 76 75 69 85 86 89 90 87 77 76
100 97 94 74 71 55 75 58 49 67 90 91 95 95 96 96 96 96 95 96 96 92 85 90 92 95 96 94 85 84 85 83 87 77 85 90 83 79 74 78 75 72 71
98 94 88 88 82 71 72 62 41 53 59 60 82 94 92 95 95 96 93 99 97 96 97 97 97 97 98 96 96 96 96 98 97 93 95 87 75 74 64 63 66 67 63
98 97 78 74 89 91 83 73 53 40 42 59 75 74 67 96 94 96 96 95 99 95 96 96 97 96 96 98 96 94 97 97 98 97 96 94 92 87 74 64 61 70 73
97 95 95 90 84 81 74 53 41 31 31 45 64 70 92 92 95 95 94 94 98 97 96 96 97 98 97 97 96 96 96 97 97 97 95 92 90 85 80 67 63 65 75
95 97 86 85 89 82 72 49 33 34 35 38 63 56 53 52 94 83 83 90 96 98 94 98 96 95 96 96 95 92 93 96 95 93 88 87 84 78 81 72 72 71 76
82 67 77 89 99 92 69 54 45 42 36 35 46 50 46 40 48 55 69 88 97 96 96 97 96 93 93 91 88 77 83 90 84 71 68 69 77 79 79 81 74 72 74
77 77 75 79 89 91 66 54 45 41 40 37 37 40 38 31 32 35 39 51 66 90 56 60 68 59 62 64 60 58 85 92 92 84 92 85 81 71 68 72 78 86 78
79 69 71 76 83 77 61 48 38 33 31 35 36 33 30 26 25 28 30 30 39 48 47 48 53 53 56 65 74 84 97 98 94 87 80 89 90 82 83 84 89 95 92
79 74 69 58 52 44 36 29 32 31 24 25 24 24 21 18 17 16 15 14 14 19 21 18 14 19 25 40 57 65 76 62 47 32 38 64 86 96 90 86 79 73 72
50 47 46 47 46 45 42 39 34 29 30 31 22 15 13 13 13 12 12 10 9 9 10 12 13 14 16 16 15 15 16 16 16 16 19 22 23 31 44 51 47 51 51
60 56 59 56 50 42 34 31 29 23 22 23 20 16 16 15 13 13 10 10 11 13 15 16 19 22 22 20 18 16 16 16 17 17 16 17 19 20 20 21 24 27 32
71 70 65 60 55 51 43 39 34 32 26 26 28 29 29 26 19 14 12 13 14 15 17 20 22 22 19 17 15 16 21 23 26 31 36 40 35 31 31 31 32 36 48
59 56 57 59 59 56 52 50 52 41 36 42 45 47 44 31 16 14 14 15 17 22 22 15 12 11 10 14 22 25 25 27 32 41 46 46 41 37 34 39 50 52 42
72 78 78 79 80 74 67 58 52 53 52 50 44 35 28 20 18 20 25 27 24 17 14 13 14 14 20 27 34 32 31 27 30 34 39 41 42 44 49 52 51 54 56
58 66 70 71 74 76 76 71 65 56 49 43 39 38 36 34 32 30 27 18 17 18 22 24 23 26 29 30 31 34 34 31 29 30 38 42 44 50 58 64 68 61 64
53 62 67 72 78 82 85 80 77 63 45 42 38 32 27 27 26 25 23 24 27 29 32 33 33 35 37 36 36 38 39 36 32 32 40 40 45 56 62 68 72 74 77
53 54 52 51 52 59 76 81 73 70 56 42 41 40 33 28 29 32 32 33 38 40 42 42 42 46 49 46 43 44 37 35 35 36 42 44 49 62 78 75 80 79 86
59 59 61 66 70 71 63 59 63 65 66 68 70 68 51 41 48 50 49 47 40 39 46 49 52 57 52 48 42 40 40 41 46 47 48 51 57 73 77 75 82 86 87
41 40 40 47 52 52 55 57 59 59 58 59 60 56 53 49 47 44 41 42 45 44 47 48 50 51 46 47 50 50 53 54 55 56 57 61 67 75 80 88 87 79 94
55 69 83 85 79 82 84 87 87 84 76 67 58 56 54 52 46 43 44 42 45 46 46 47 50 53 53 53 51 51 54 57 62 66 71 74 78 83 93 91 94 100 94
46 69 97 98 95 92 84 76 60 54 48 50 76 90 80 62 50 48 47 45 46 51 55 54 54 61 62 54 52 55 54 64 72 76 81 90 95 96 100 94 89 94 100
23 43 69 97 100 100 100 100 98 97 90 81 54 41 65 84 71 55 45 43 44 53 58 57 64 70 65 64 61 72 77 68 75 72 81 99 96 99 100 92 100 100 100
56 52 45 36 40 53 77 96 98 95 97 100 100 81 48 41 71 77 72 62 52 48 58 63 72 82 86 85 80 82 82 79 85 97 100 100 100 100 100 94 91 90 87

GFSMW_500_rhum_081.txt.gz
RH
93 96 97 97 92 94 92 89 96 95 96 94 97 97 98 96 95 96 98 88 96 79 55 43 33 28 26 24 25 23 20 19 17 17 18 17 17 18 21 25 27 28 34
100 97 96 97 96 96 95 96 96 97 96 97 96 97 96 96 95 96 100 97 95 92 91 70 64 48 42 52 59 51 48 42 36 31 35 35 29 28 24 26 28 32 42
92 96 96 96 97 97 96 96 95 96 96 97 96 96 97 97 96 95 97 94 94 95 96 96 96 96 94 94 95 82 65 50 57 62 51 63 73 71 70 85 87 85 83
95 97 97 97 95 96 97 98 96 95 95 96 96 96 96 97 96 96 95 95 96 97 97 96 97 90 95 97 96 98 97 96 94 91 75 69 77 88 100 98 93 96 94
99 96 97 96 98 95 93 88 90 92 95 95 94 96 97 96 96 97 98 96 96 98 97 97 97 97 95 96 97 96 100 95 95 95 93 88 92 98 93 100 96 90 80
95 96 97 96 95 96 86 74 76 81 93 93 96 95 96 96 97 97 96 97 97 97 96 97 97 97 95 97 97 96 97 97 97 96 96 98 97 96 93 80 85 84 81
94 96 97 97 95 88 85 86 78 70 67 76 88 93 90 94 94 96 96 96 97 96 97 96 97 97 96 96 97 97 97 97 97 96 95 96 96 93 92 85 80 74 77
95 92 97 99 96 86 76 74 74 76 75 68 48 50 41 56 72 75 82 95 93 96 95 97 98 97 94 96 97 97 97 96 97 95 94 83 77 87 94 91 82 70 65
98 98 93 86 86 77 79 86 78 71 69 54 41 34 34 33 51 50 44 44 50 76 93 98 96 95 97 96 96 95 83 56 61 78 91 77 60 59 59 58 58 60 65
90 91 91 95 88 85 78 76 79 88 76 55 42 43 40 35 34 36 43 37 32 54 57 77 94 95 93 89 59 46 45 44 44 48 56 56 68 80 68 62 62 60 62
100 96 94 91 91 77 71 80 80 86 74 60 48 43 41 40 38 43 45 36 33 31 34 41 48 40 50 45 40 30 21 24 34 40 53 43 57 65 47 29 40 49 55
81 78 85 88 84 82 82 76 76 82 61 49 44 36 30 30 29 29 28 25 23 24 22 19 18 15 14 12 9 10 11 11 12 12 13 13 14 14 14 14 15 16 17
93 88 84 82 80 78 82 88 93 84 66 54 35 30 27 26 26 24 22 20 17 16 15 14 12 10 10 10 12 14 15 15 16 17 17 16 15 15 15 14 16 16 17
69 82 65 65 70 66 58 45 44 44 41 34 36 35 29 30 29 26 20 15 14 15 15 15 13 11 11 13 14 14 16 17 18 18 15 13 14 17 20 25 25 26 30
50 66 64 57 47 47 50 51 49 47 44 39 36 34 31 27 28 26 18 15 15 13 13 12 12 13 14 15 18 23 19 13 11 10 16 21 22 22 24 30 37 41 39
36 36 42 52 59 56 59 54 56 55 52 46 39 34 32 31 26 26 28 28 32 31 20 14 14 15 15 22 20 12 9 10 12 21 27 30 27 23 24 30 36 40 41
48 45 45 46 48 54 58 62 64 57 56 58 61 57 51 50 39 39 46 52 47 46 29 17 14 19 26 20 14 15 19 19 21 28 33 33 31 28 26 24 31 36 40
47 51 56 58 60 62 64 71 78 83 82 79 78 71 60 54 52 50 43 37 30 25 22 26 28 27 21 16 18 20 20 24 32 32 30 30 30 30 28 28 30 36 46
40 50 61 66 68 64 62 69 75 74 77 87 91 86 83 78 65 53 45 42 39 37 35 32 27 22 20 21 23 26 28 35 36 38 42 38 35 33 30 30 35 38 50
38 41 43 43 46 48 51 55 61 68 76 78 88 99 99 95 84 57 41 34 31 32 29 30 27 28 27 26 29 33 34 34 40 44 42 42 35 33 35 39 43 44 58
23 27 32 37 40 42 46 51 55 58 61 64 69 77 96 98 93 68 70 66 61 53 38 34 33 36 37 37 33 39 47 53 53 49 42 38 42 43 48 50 50 55 61
10 12 18 24 26 28 31 36 39 49 50 51 56 64 91 93 89 85 85 84 77 70 58 54 52 48 51 46 44 45 41 42 41 44 48 50 52 56 58 61 60 70 68
19 18 15 14 18 26 36 54 59 48 68 83 80 83 89 90 95 95 84 73 62 58 56 52 49 44 36 32 33 36 45 46 52 55 52 53 56 65 72 75 79 87 80
10 10 16 35 36 39 38 35 36 44 38 54 79 85 76 75 89 94 90 66 60 58 56 54 52 50 45 47 49 48 49 56 61 54 56 62 62 70 74 81 100 94 90
11 30 58 63 70 72 74 69 63 51 30 32 79 94 92 100 96 87 82 88 83 66 54 50 49 49 49 50 48 53 55 62 59 60 68 76 78 80 79 92 100 99 100
31 38 38 40 46 52 55 62 66 72 61 48 42 68 98 100 99 100 93 63 73 91 72 56 48 46 46 54 56 57 66 73 76 81 78 77 78 87 95 100 100 100 99

GFSMW_500_rhum_084.txt.gz
RH
82 87 87 83 75 76 66 91 95 97 93 95 96 94 94 98 95 96 94 97 95 95 89 78 52 47 47 38 34 30 28 27 26 24 21 20 18 17 17 17 17 17 19
99 92 97 92 100 84 93 92 95 95 95 97 95 97 96 96 98 96 95 95 91 90 96 94 85 76 65 60 38 30 26 24 23 25 24 23 24 24 24 29 30 37 42
99 97 96 97 97 99 92 97 99 93 95 95 96 96 92 95 96 96 96 96 91 94 98 95 97 97 93 71 70 88 67 54 62 58 57 46 43 52 60 65 70 66 66
82 95 98 96 97 98 97 96 97 96 97 97 96 96 97 96 97 96 99 98 96 97 96 97 97 97 96 96 96 97 98 96 97 100 96 85 78 76 72 76 79 80 87
100 90 96 94 96 96 97 96 96 97 97 97 97 96 96 97 96 97 97 96 96 95 97 97 96 97 96 96 97 97 96 96 96 96 97 99 95 98 96 98 97 97 94
100 89 81 96 96 96 94 97 98 97 98 96 97 96 96 96 97 97 97 97 95 97 97 96 97 97 96 97 96 97 96 97 96 97 97 97 96 97 95 99 98 96 96
85 93 98 97 92 96 92 95 96 93 94 93 96 95 96 96 96 98 96 96 97 97 97 96 97 97 97 96 96 96 97 97 97 96 96 96 96 92 94 95 88 87 86
94 98 81 92 98 98 94 94 96 92 94 92 90 93 95 95 88 92 95 96 96 95 96 96 96 97 97 94 96 95 95 96 96 97 97 97 96 95 92 93 93 89 83
96 89 98 97 96 93 98 97 92 84 80 82 77 88 88 90 79 62 85 73 81 85 93 95 97 97 96 96 96 96 96 95 95 94 93 77 52 50 48 65 70 62 66
92 95 97 97 97 99 98 90 85 75 71 74 77 74 70 59 44 42 53 63 55 50 53 50 56 56 79 91 94 96 95 96 64 43 41 32 20 15 18 15 12 15 17
89 99 98 97 97 95 90 81 76 70 75 73 73 80 77 61 42 43 41 39 37 36 36 43 36 36 45 42 46 44 47 39 44 39 25 11 12 11 12 13 14 14 13
89 95 98 91 91 86 83 81 76 68 64 70 76 73 68 66 51 44 43 42 43 46 42 41 33 30 33 31 27 18 14 13 11 12 11 12 13 13 16 16 15 14 12
100 99 91 91 86 79 74 69 60 56 53 52 52 60 57 53 45 44 34 34 34 32 32 30 26 22 20 17 14 14 13 13 12 12 14 15 15 17 14 9 8 9 13
60 64 74 74 70 67 64 63 54 47 46 46 55 61 65 54 50 47 29 26 26 27 24 20 19 16 15 14 14 12 11 11 13 15 14 14 14 9 7 8 10 15 17
43 42 44 47 56 67 71 68 65 62 60 58 62 69 70 62 50 34 31 32 26 28 27 26 20 16 15 14 13 12 12 14 16 17 20 14 9 8 9 10 16 24 22
33 36 38 37 36 37 42 48 55 59 59 54 46 45 48 47 42 38 36 36 32 27 25 24 26 22 17 14 13 13 13 15 15 21 17 10 10 10 10 14 22 23 24
25 25 27 36 46 57 60 62 59 52 48 49 48 50 50 51 52 50 48 46 41 36 34 32 30 31 35 39 40 32 15 14 21 23 14 10 14 16 20 24 26 24 25
19 21 23 27 34 41 50 58 59 54 54 56 56 54 52 52 52 50 54 63 65 56 57 52 49 47 47 46 43 28 17 22 25 19 15 18 19 20 27 28 28 29 30
17 18 18 19 20 23 29 33 38 45 56 70 74 74 74 75 72 72 76 77 77 72 59 51 46 42 37 32 27 28 29 28 22 19 19 24 26 27 31 34 36 35 32
10 10 11 11 12 14 18 25 36 48 56 60 62 62 64 69 77 84 87 93 92 90 92 80 51 45 43 40 38 35 31 29 24 24 24 30 23 33 44 43 41 36 32
9 9 9 8 9 10 11 12 16 22 28 32 36 42 48 52 56 63 71 83 94 99 99 92 67 54 45 46 42 39 35 32 35 30 28 27 33 46 39 32 31 36 42
14 13 12 12 11 13 16 19 18 18 22 35 44 52 56 61 62 56 58 59 76 92 100 100 98 91 87 80 55 52 53 48 44 36 33 35 34 36 36 37 42 48 54
14 12 12 12 11 12 21 38 44 46 43 35 31 28 34 48 62 75 85 90 86 74 92 99 99 100 100 96 75 67 61 60 57 45 37 34 34 43 47 47 52 56 63
10 10 9 11 26 38 35 31 35 38 41 52 58 56 52 38 28 55 76 83 75 81 97 96 100 100 96 84 73 64 58 54 45 47 38 36 45 49 51 53 61 59 64
7 10 14 24 33 30 28 28 29 32 33 34 41 52 57 58 48 42 56 83 87 87 88 97 100 100 98 93 72 59 52 53 57 43 47 51 52 54 55 59 69 74 80
11 14 20 22 20 19 20 21 22 22 22 22 21 22 36 65 60 46 46 53 99 100 100 98 97 99 100 86 75 66 54 52 53 49 56 58 60 62 62 63 68 73 90

GFSMW_500_rhum_087.txt.gz
RH
83 89 98 69 86 98 97 92 86 81 80 93 93 96 96 96 96 95 93 91 77 88 89 87 83 30 44 95 42 27 26 27 22 24 25 21 20 19 20 21 20 18 18
90 74 99 79 87 94 97 93 68 79 89 94 95 96 95 97 95 87 72 85 95 95 95 96 79 42 76 94 59 72 41 66 48 35 32 29 27 24 22 20 21 18 21
59 94 94 91 62 86 76 70 68 80 89 95 96 98 96 96 97 95 94 94 99 96 96 94 96 86 96 93 89 86 88 84 80 55 72 66 53 35 37 44 40 40 42
77 98 93 74 95 97 93 95 89 95 97 96 96 97 96 96 98 96 97 95 96 96 95 95 97 97 94 99 99 98 100 97 96 94 97 95 99 87 87 73 61 53 56
82 64 97 98 96 97 98 97 97 98 97 97 97 97 96 96 97 96 96 87 95 96 95 92 96 97 95 96 94 97 97 97 95 96 97 97 96 96 86 82 92 97 92
99 95 96 95 97 98 97 97 97 95 97 97 97 96 96 96 97 96 96 96 97 97 96 96 96 96 96 97 96 96 96 97 96 96 97 95 97 97 97 96 95 94 96
88 93 98 99 95 93 96 96 96 96 96 97 97 96 97 97 96 97 98 97 92 97 97 88 97 96 96 97 97 95 97 96 96 96 97 95 96 96 97 96 96 96 96
96 95 98 98 86 88 94 93 94 95 96 97 96 97 96 97 96 96 96 94 95 97 96 94 99 98 97 96 96 97 96 96 96 96 96 96 97 97 97 98 95 95 93
98 98 99 99 94 98 98 95 96 96 95 96 94 98 97 96 96 95 95 89 91 93 94 96 97 97 97 98 96 96 96 95 95 96 96 96 97 94 94 91 82 65 51
93 97 96 99 95 96 98 94 87 94 95 94 98 93 92 90 92 91 90 86 81 88 92 94 96 95 95 97 96 94 93 94 95 86 89 90 76 56 46 34 26 16 10
93 95 97 96 96 91 95 90 91 88 89 89 88 80 78 78 78 74 70 57 52 51 68 79 87 76 80 88 80 59 68 69 51 54 45 28 18 12 12 11 11 11 10
96 99 98 96 95 98 97 95 95 89 78 80 73 68 68 61 61 70 67 64 45 43 42 45 58 46 40 46 47 47 52 44 40 26 24 13 12 12 12 12 13 12 11
80 88 75 84 76 80 82 84 77 69 68 68 60 62 65 59 53 63 62 63 59 51 46 42 39 41 45 48 43 38 33 30 24 16 13 13 13 13 14 15 15 12 7
93 97 88 85 86 71 68 61 61 64 69 63 55 58 56 48 44 52 52 62 58 48 46 38 30 30 30 28 26 22 19 16 15 15 14 13 12 13 14 14 14 11 6
46 49 46 46 47 47 51 50 51 52 50 50 52 54 56 52 54 60 59 72 76 60 54 48 29 27 27 27 25 20 15 15 16 15 14 12 13 15 14 16 15 10 8
33 36 38 35 38 41 42 42 43 40 46 54 56 61 62 64 61 55 52 60 66 66 54 45 34 33 29 25 26 25 23 21 19 14 13 13 14 15 14 18 15 10 9
19 22 26 27 27 26 27 29 30 31 35 37 41 45 49 53 53 55 54 53 53 53 54 54 48 42 37 33 30 29 26 27 29 30 29 33 26 17 16 20 16 11 11
6 8 9 9 10 12 19 22 22 23 25 27 31 32 33 40 46 53 55 55 54 54 55 55 54 53 48 47 44 43 39 34 37 40 45 40 36 23 20 22 15 13 14
5 5 5 6 7 9 9 10 10 12 15 19 25 29 30 35 40 46 50 51 51 51 56 57 58 66 67 65 58 53 53 52 50 46 42 36 24 24 25 21 18 20 17
5 5 6 5 6 6 6 7 8 9 10 11 10 10 15 25 33 44 49 46 48 56 66 71 73 75 81 83 82 66 51 47 44 38 32 30 30 30 27 23 24 22 21
12 11 11 10 10 10 10 10 9 9 11 13 16 23 20 19 21 21 23 32 41 47 53 58 64 68 80 88 84 91 88 64 51 46 44 43 39 38 36 34 30 27 32
16 15 13 11 10 11 11 11 11 10 10 14 34 42 40 38 32 26 26 27 31 33 39 44 59 75 82 88 95 100 99 96 80 63 60 59 66 61 53 40 36 37 24
14 12 10 10 9 8 8 8 8 14 25 23 24 25 28 28 32 32 36 34 25 33 48 64 58 66 77 97 99 93 97 100 100 93 84 83 78 67 56 50 49 35 31
10 9 9 8 8 8 7 10 18 20 20 20 19 19 20 23 26 30 36 50 48 35 33 70 91 94 92 87 83 88 100 100 100 100 100 94 78 68 70 63 45 40 39
9 9 8 7 8 10 13 14 12 11 11 12 14 14 16 18 21 25 28 35 38 52 46 43 76 87 91 100 100 100 100 95 99 100 96 91 85 70 61 52 48 47 50
9 8 7 8 10 10 10 12 13 13 11 10 9 9 9 9 11 14 19 24 32 42 54 59 60 71 86 74 88 100 100 100 100 98 98 97 76 64 56 53 52 55 57

GFSMW_500_rhum_090.txt.gz
RH
18 13 12 47 44 57 57 89 96 95 90 100 80 95 99 87 88 97 95 95 96 96 96 76 68 46 36 25 25 62 53 39 91 42 26 23 22 21 21 23 21 19 20
26 18 26 47 88 73 60 94 96 95 95 96 90 92 85 86 98 87 96 95 98 97 95 95 89 72 40 49 92 96 70 46 93 54 53 45 53 61 33 36 30 28 25
19 22 38 55 87 54 72 96 97 98 97 97 97 95 87 96 96 96 95 98 95 96 95 95 95 94 97 96 77 92 59 57 88 91 72 56 87 80 70 57 49 48 39
21 24 51 70 82 94 85 94 95 97 94 96 96 100 88 92 98 96 97 97 96 96 95 93 92 95 96 96 94 94 93 93 96 97 97 96 95 83 84 92 98 90 89
54 50 60 58 90 90 95 92 99 98 98 94 96 96 95 97 96 97 95 96 96 96 93 85 86 97 100 97 99 95 94 96 96 96 97 96 97 95 88 95 99 94 93
49 58 62 75 95 87 89 77 84 92 97 94 96 97 97 96 97 97 96 97 94 95 96 96 94 95 95 96 96 96 95 97 96 97 96 97 96 97 96 96 97 98 96
48 55 72 96 96 96 98 90 92 97 95 96 97 97 97 97 96 97 96 95 96 95 97 96 96 87 86 96 96 97 96 96 97 97 97 96 97 95 96 96 97 96 96
58 88 91 89 97 94 85 95 97 96 97 97 97 95 97 97 97 97 97 97 97 97 97 96 95 98 95 84 63 84 97 97 97 97 99 96 97 97 96 98 96 96 96
95 100 99 98 93 87 91 97 90 91 94 97 96 97 97 97 96 96 96 97 94 93 96 97 97 77 93 88 60 85 92 96 97 95 97 99 96 96 97 97 96 95 89
98 96 98 99 98 97 98 93 96 96 96 96 96 96 95 97 97 97 96 96 97 98 93 96 96 97 97 98 100 97 97 97 97 96 97 96 95 93 82 66 47 28 20
93 97 98 97 96 98 98 100 96 94 93 95 92 93 93 94 97 94 91 91 92 95 95 94 96 96 96 94 96 97 96 96 96 95 96 97 64 38 31 27 19 16 16
94 94 100 99 98 96 96 97 96 93 92 89 91 87 86 85 83 75 80 83 81 74 68 59 79 88 78 71 72 76 77 84 87 97 86 94 92 75 40 16 15 12 12
85 92 81 88 97 93 80 78 70 68 64 66 68 61 64 63 58 54 60 64 58 54 59 61 44 44 47 46 52 61 62 59 62 52 62 44 34 28 19 12 13 14 14
94 96 96 95 91 82 69 54 45 52 58 56 68 74 59 51 40 40 45 49 49 43 38 45 52 58 51 44 39 39 52 59 50 48 48 56 30 17 15 14 12 13 14
83 82 86 90 79 71 69 62 63 58 59 60 59 54 45 42 45 45 51 51 50 48 49 55 59 66 66 52 45 32 28 28 25 21 19 18 16 15 16 16 13 13 15
34 36 36 35 34 33 33 32 30 31 32 30 31 32 30 31 33 40 51 56 62 61 62 58 62 76 75 64 55 43 30 27 26 26 25 23 20 17 15 13 13 14 16
16 13 11 9 9 9 10 10 10 13 14 13 12 15 17 20 23 27 32 37 47 57 60 57 54 56 55 56 54 49 41 35 32 29 26 25 25 26 25 26 24 30 33
7 6 6 6 6 6 5 5 5 6 6 7 7 7 7 8 9 10 11 13 20 28 38 47 56 59 59 60 61 60 60 56 54 51 45 38 36 35 38 39 39 42 37
9 9 10 10 9 9 9 9 10 9 10 12 14 12 13 14 13 12 11 12 20 21 24 37 41 45 49 57 55 52 55 58 59 58 58 56 56 52 49 47 42 42 39
10 9 8 9 10 12 11 10 9 8 8 7 6 8 9 10 12 15 15 18 15 12 18 37 45 42 47 57 65 61 65 71 78 75 62 59 55 54 51 49 45 39 33
11 10 9 7 6 6 6 5 6 6 6 7 7 7 8 8 9 10 14 18 20 22 19 18 30 37 44 55 62 65 66 79 85 85 77 76 75 68 56 44 40 36 38
10 9 8 8 8 7 7 6 6 6 6 7 8 9 10 12 14 14 13 15 18 19 19 20 19 18 35 52 62 65 65 72 79 85 87 89 80 68 60 54 53 53 57
11 10 10 8 7 6 6 7 6 6 6 8 9 9 10 10 10 10 11 14 17 18 20 20 20 24 28 38 54 58 76 90 98 94 93 90 91 92 97 90 81 77 80
13 11 9 7 6 8 7 5 6 7 8 9 9 9 9 9 10 11 11 14 18 20 20 23 25 23 25 31 36 59 74 87 100 100 100 100 100 90 93 89 96 100 88
12 10 8 9 8 6 6 7 8 8 8 9 12 16 17 15 15 14 12 13 18 21 23 28 30 38 39 51 58 58 75 84 94 100 100 99 90 94 96 98 92 99 93
13 12 11 8 5 5 6 8 8 11 14 18 25 25 22 18 16 13 10 9 10 15 20 26 29 44 51 51 57 86 96 99 100 96 100 94 93 100 100 100 100 100 96

GFSMW_500_rhum_093.txt.gz
RH
17 17 13 10 8 49 30 59 57 41 68 87 98 79 48 98 93 93 95 96 96 95 92 92 85 74 66 57 49 48 44 30 21 17 17 63 36 82 54 26 26 25 25
21 15 16 16 11 28 20 55 56 37 100 91 100 96 86 80 95 96 95 88 94 96 98 93 94 88 80 76 86 67 60 36 24 27 44 92 78 93 71 35 33 54 54
34 35 45 24 20 21 47 58 43 52 91 89 100 98 98 89 88 92 94 97 94 97 97 96 95 96 88 91 93 68 66 58 78 91 89 95 77 92 91 86 70 74 80
74 33 26 18 28 38 60 76 78 67 90 94 99 98 100 99 86 89 86 95 98 97 96 96 98 97 96 96 95 93 98 94 97 96 92 84 61 69 94 91 96 93 87
80 47 47 39 20 40 80 78 86 77 95 97 96 94 92 97 98 91 94 97 98 96 97 97 97 100 98 94 99 96 96 97 97 98 98 93 96 97 97 90 96 95 91
54 47 34 16 22 41 53 66 72 89 96 100 98 95 95 97 97 92 96 97 97 96 98 96 96 95 97 97 97 95 96 96 95 96 96 96 97 96 97 96 97 96 97
41 42 39 36 60 46 62 76 80 91 96 96 95 97 97 96 96 97 97 97 96 97 98 92 94 96 96 95 96 94 97 95 91 95 97 97 97 95 97 95 97 98 96
38 49 59 61 60 54 70 74 75 93 92 92 95 96 96 96 98 96 96 95 97 96 98 89 88 96 95 94 93 89 96 96 95 88 92 94 96 95 89 97 96 95 95
69 89 95 61 51 59 88 91 97 87 94 100 88 94 97 94 92 95 96 96 97 97 89 95 96 97 98 96 92 95 92 88 85 69 69 92 95 97 97 97 97 97 97
100 99 99 95 93 97 100 94 86 78 97 97 98 97 97 97 97 98 99 97 97 95 96 96 97 96 97 98 98 97 97 89 98 100 100 97 95 95 97 97 95 97 96
99 98 98 98 98 98 98 97 98 96 97 96 96 97 98 97 96 98 95 94 94 96 97 97 98 98 97 98 98 99 98 98 97 98 98 97 96 97 96 97 95 94 82
97 98 97 97 98 98 98 98 98 97 90 86 92 95 96 95 94 94 93 93 93 91 90 94 97 97 96 97 99 96 97 93 97 97 96 97 98 94 98 98 85 59 49
99 80 80 81 96 91 90 82 80 72 60 50 55 69 57 58 56 52 46 54 68 84 85 84 89 92 93 95 93 76 66 76 63 74 91 95 94 93 86 81 60 80 46
100 99 97 97 92 92 83 70 63 52 51 58 60 57 58 56 51 51 49 49 43 42 53 58 59 58 57 64 66 59 57 63 63 63 67 83 82 70 57 60 54 34 21
96 100 100 94 99 100 97 81 62 46 34 30 30 28 28 30 35 33 30 32 39 46 48 48 47 48 48 50 55 58 54 53 49 45 49 54 60 52 49 50 46 58 45
36 36 39 37 37 33 26 23 18 15 8 7 7 6 5 6 9 8 9 18 27 30 28 30 28 45 58 59 60 61 60 61 56 51 40 58 67 51 31 23 16 18 17
8 7 6 6 6 7 7 7 7 8 8 8 8 9 9 8 7 9 9 9 9 8 7 7 12 20 26 32 47 58 58 71 74 61 45 36 55 64 34 23 20 18 16
13 12 13 15 15 13 10 9 8 8 8 9 10 9 8 8 9 9 8 7 7 10 11 12 11 8 9 12 22 31 50 55 55 57 49 38 32 31 29 27 23 22 22
15 14 13 12 11 10 9 8 8 8 7 6 6 6 6 6 5 6 6 6 7 8 7 9 12 13 13 11 12 16 23 36 52 57 60 63 62 60 52 44 37 35 37
11 11 10 10 9 9 9 9 9 9 9 8 8 7 6 6 6 6 6 7 7 8 8 8 10 13 16 16 14 15 24 34 42 44 53 57 60 62 60 61 58 54 51
12 12 12 12 12 11 11 11 10 9 8 8 8 8 7 7 7 8 8 8 8 8 9 9 9 9 10 11 14 16 16 26 48 54 53 61 69 73 70 64 61 58 59
16 16 15 14 13 12 12 12 12 11 10 9 9 9 9 8 7 8 9 9 10 9 9 9 9 8 8 8 16 15 17 17 21 57 68 76 75 85 91 86 74 63 61
15 15 15 15 15 15 15 14 13 12 12 10 7 5 6 9 9 8 8 8 8 9 9 9 10 15 20 13 13 17 15 16 21 35 72 84 84 88 94 95 86 77 77
19 19 19 19 20 18 17 14 10 7 6 4 4 7 7 7 10 12 14 15 16 18 17 17 16 24 27 36 33 25 20 24 30 44 69 87 100 99 96 99 96 92 100
21 21 20 18 18 15 11 7 5 4 4 5 6 7 10 15 21 22 27 28 25 19 15 15 16 16 29 45 78 83 61 71 78 69 87 92 95 100 92 100 100 100 100
24 22 20 18 14 10 6 4 3 4 5 9 13 16 17 22 32 34 36 39 35 27 21 16 10 12 21 30 52 80 96 100 100 99 100 100 90 98 100 100 100 100 100

GFSMW_500_rhum_096.txt.gz
RH
44 45 38 39 38 28 15 10 63 100 53 62 69 65 58 58 47 50 73 95 96 96 86 95 97 98 90 85 66 62 51 42 34 32 29 23 20 16 21 64 30 90 96
25 34 38 37 34 24 15 11 99 96 68 52 100 82 62 79 65 63 80 92 96 94 93 85 97 96 95 95 94 91 73 70 75 52 35 24 26 68 62 24 37 86 95
19 23 24 28 27 41 42 26 71 96 72 77 90 74 60 72 88 100 84 77 95 93 98 96 91 96 96 95 96 86 86 64 45 33 57 78 95 84 57 50 75 92 87
13 17 49 27 23 24 35 25 67 73 74 84 87 70 84 87 96 97 99 88 95 94 99 94 94 98 96 96 97 94 94 77 76 82 95 88 86 95 87 93 95 89 88
95 53 65 59 34 29 32 28 38 62 47 80 62 56 68 96 81 92 97 97 98 91 99 96 96 94 97 96 98 98 97 95 93 96 96 96 98 97 98 96 94 91 94
100 100 95 75 62 39 43 36 40 72 80 77 53 70 91 96 96 91 95 98 96 93 94 94 97 96 97 96 98 98 98 98 94 97 96 97 96 97 97 96 97 97 92
97 87 47 43 40 32 24 49 63 78 78 79 81 92 91 96 96 96 97 97 97 97 96 96 97 97 97 97 96 96 96 96 95 95 97 96 95 96 96 96 97 97 97
54 37 32 26 17 17 23 41 67 67 83 74 80 92 97 96 96 96 97 97 96 98 97 97 97 93 96 97 97 97 97 97 95 95 97 97 94 94 93 82 86 94 94
40 48 43 33 30 42 59 40 57 62 68 66 60 95 97 93 93 95 97 99 96 97 96 97 96 96 96 97 96 96 97 96 96 96 96 94 96 80 77 89 97 96 86
97 93 100 89 90 90 86 83 67 88 98 80 87 96 95 95 97 97 96 96 96 97 97 98 97 97 96 95 96 96 97 97 98 96 94 96 95 87 87 88 96 94 93
99 100 100 99 98 97 99 93 99 98 99 98 88 98 99 97 98 98 97 97 98 98 96 94 97 97 96 98 96 97 97 96 98 100 95 90 90 98 98 98 94 97 95
99 98 98 98 98 98 99 98 98 98 98 95 95 96 97 97 97 97 97 96 97 93 94 96 97 97 98 98 98 98 96 97 96 99 99 97 97 97 98 97 96 96 96
99 99 98 99 99 98 99 98 98 97 89 73 74 73 84 90 87 91 93 88 86 86 89 94 95 96 95 95 97 99 97 98 97 98 97 98 97 97 98 97 96 92 96
99 100 100 97 93 95 98 96 98 92 72 72 57 50 48 58 63 60 52 48 44 43 44 50 49 45 62 83 93 88 84 95 93 90 85 86 91 93 95 97 95 90 94
77 82 82 88 90 80 54 49 49 46 35 24 20 16 13 12 16 20 24 25 30 28 29 28 33 42 52 62 70 69 73 67 68 64 67 72 76 64 62 84 97 88 73
12 10 8 9 9 9 7 6 5 5 6 6 6 6 6 6 7 7 5 5 6 6 6 5 6 9 17 19 23 46 57 58 59 64 63 63 55 54 54 54 65 54 64
6 6 8 9 10 9 8 8 9 8 7 7 6 6 6 6 6 6 6 6 6 6 6 6 5 5 7 8 7 6 10 22 38 57 60 64 75 80 70 54 66 99 98
16 15 14 12 10 9 8 9 9 9 9 9 9 8 8 7 7 8 8 7 7 7 6 6 6 6 6 6 6 8 9 8 8 17 37 56 62 74 79 51 48 82 94
14 13 12 12 12 12 12 12 11 10 10 10 10 9 9 10 10 10 9 8 8 8 7 6 6 6 6 6 6 6 7 8 10 9 9 26 51 56 56 55 41 48 86
15 15 15 14 14 14 14 13 13 12 10 9 8 8 9 10 10 11 12 12 12 11 11 10 9 8 8 8 8 8 8 8 8 11 12 11 29 64 62 63 67 55 40
17 16 14 14 14 14 14 12 12 12 12 11 10 10 9 7 7 6 5 7 8 8 8 8 8 8 8 8 7 7 8 9 8 9 12 14 18 34 52 70 73 72 72
17 17 17 19 19 18 17 15 14 14 14 12 11 11 10 9 7 6 6 6 6 6 6 5 5 5 5 5 6 6 8 9 8 8 9 10 14 18 33 57 78 85 78
23 21 21 21 21 18 16 16 16 13 11 10 10 8 7 6 5 4 4 4 6 6 6 6 7 8 9 9 10 10 12 14 11 8 8 10 12 20 27 36 55 67 74
27 27 26 24 23 20 20 20 19 16 13 11 8 6 4 3 4 5 7 10 15 17 20 19 17 16 16 18 18 15 19 24 28 28 29 22 27 39 35 76 92 96 99
27 30 31 30 27 23 23 22 18 14 10 6 5 3 3 4 6 7 7 8 17 23 25 31 27 28 30 25 20 19 17 21 45 65 78 100 100 98 87 82 99 100 100
29 32 34 34 29 26 24 19 13 8 5 4 3 3 5 12 21 20 10 8 12 32 35 36 37 34 36 30 20 14 17 18 24 51 72 100 100 100 100 100 100 100 100

GFSMW_500_rhum_099.txt.gz
RH
16 20 30 52 52 57 58 41 18 15 14 14 21 16 79 67 90 78 67 39 30 30 66 100 94 82 97 93 95 92 96 96 95 87 69 36 26 21 17 15 16 15 19
17 16 23 41 57 46 40 32 28 25 19 41 26 29 89 97 74 56 73 49 32 32 48 80 90 78 97 96 100 92 98 84 82 73 50 59 45 30 21 25 29 39 20
18 16 18 28 48 53 54 37 32 26 21 26 24 88 99 99 77 95 74 58 31 32 76 72 93 95 95 97 97 97 92 97 94 93 91 81 80 73 74 88 95 20 31
19 15 19 23 35 45 59 33 23 20 20 13 13 82 100 93 87 81 72 59 80 91 86 100 90 95 95 97 97 98 97 95 90 90 95 95 95 94 93 77 68 29 69
43 70 48 25 50 75 89 83 43 39 29 17 17 73 90 72 83 84 88 82 99 79 100 96 95 96 94 96 95 96 95 93 93 94 94 88 84 93 93 95 96 96 94
100 100 94 70 72 60 55 42 47 42 48 34 37 93 75 63 77 80 87 90 80 97 97 98 94 97 94 91 88 96 91 98 98 99 92 94 92 92 96 95 87 94 94
100 100 100 92 69 69 66 52 33 24 30 31 46 51 67 72 76 69 75 99 94 88 97 96 96 97 95 97 97 96 100 96 92 96 100 100 95 95 97 97 95 94 97
100 100 100 100 86 75 65 53 34 30 27 29 44 63 63 85 66 62 84 97 99 99 96 97 98 98 95 97 96 96 97 97 97 97 100 94 96 96 96 97 97 95 95
66 43 50 36 34 35 37 36 32 33 46 41 45 61 74 82 93 92 97 97 98 96 88 97 96 96 96 96 98 96 97 96 97 96 97 97 96 96 95 96 97 96 78
78 54 42 26 20 27 28 27 34 37 49 62 70 74 76 85 96 98 97 92 95 95 92 96 97 95 96 96 97 97 97 97 96 97 97 97 94 97 96 97 97 87 94
100 99 99 89 64 74 78 70 55 56 84 76 80 78 71 79 94 96 95 96 97 96 96 96 97 97 97 96 96 96 96 95 96 96 96 95 96 96 95 98 92 87 99
100 98 98 98 99 98 98 97 91 95 90 99 99 99 95 92 96 98 98 100 99 98 94 95 96 96 96 97 96 96 97 97 97 97 97 93 96 96 94 87 99 97 97
98 97 98 98 98 99 99 98 98 98 98 97 98 96 97 91 96 97 96 98 97 97 96 96 96 96 97 98 97 97 97 97 98 97 97 100 97 98 99 98 95 96 97
100 100 100 100 100 99 98 99 99 97 94 93 86 74 61 70 72 72 77 85 84 77 72 59 49 54 70 81 82 91 96 96 96 97 98 98 97 100 99 98 97 98 98
46 49 63 72 74 82 84 78 73 65 46 25 14 10 7 7 6 6 10 14 18 20 22 27 33 39 38 38 38 39 48 60 72 93 96 94 96 96 97 96 96 99 95
13 12 9 8 7 6 6 6 5 6 6 7 7 8 8 8 8 7 7 7 6 6 6 5 5 4 5 5 6 6 8 12 20 30 53 75 93 96 96 97 97 97 90
9 9 10 11 11 11 11 10 10 10 9 9 9 8 8 8 8 8 8 8 7 7 7 7 8 8 7 6 6 6 5 6 6 9 15 20 24 44 59 72 89 92 96
14 14 13 13 12 12 12 12 12 13 13 12 12 11 11 12 11 10 8 8 8 9 9 9 9 9 9 8 8 8 7 7 6 7 8 8 9 9 25 29 48 69 76
16 15 15 15 15 14 14 13 13 13 12 12 12 12 12 12 11 10 10 9 9 9 9 9 10 11 11 12 13 11 8 8 7 6 7 9 10 11 11 12 27 46 57
18 17 17 16 16 17 17 17 17 16 15 14 13 13 14 14 12 11 10 10 10 9 9 9 8 8 9 10 10 10 11 12 12 9 7 7 8 12 13 16 19 28 40
21 21 20 19 19 19 20 21 20 18 17 17 17 16 15 13 12 12 11 10 9 8 7 7 6 6 5 5 5 5 5 6 7 9 11 9 8 8 11 14 14 21 43
23 24 24 25 25 24 25 24 22 21 20 20 20 19 17 16 14 11 10 8 6 5 5 5 4 4 4 4 4 5 6 5 4 4 4 4 4 7 9 9 10 13 19
21 23 24 25 26 27 29 31 32 32 29 25 24 22 18 14 10 7 5 4 3 3 2 2 3 4 9 9 9 13 12 11 9 7 6 8 8 6 6 6 9 12 15
26 27 28 28 29 30 31 41 46 42 32 28 26 21 15 10 7 5 3 2 2 3 5 10 15 18 17 12 16 25 20 18 17 13 12 12 15 14 11 16 14 14 18
32 31 31 32 33 34 36 45 59 57 42 32 26 17 10 7 4 3 2 4 8 15 20 20 18 22 20 9 28 36 30 27 25 21 18 15 20 23 24 32 46 54 92
52 52 47 43 41 49 54 54 62 61 49 35 17 11 6 4 2 4 6 11 15 14 20 26 33 27 10 12 52 58 43 40 41 34 27 23 20 17 24 40 48 74 100

GFSMW_500_rhum_102.txt.gz
RH
24 26 15 16 20 17 19 25 42 70 54 37 60 97 97 100 100 96 71 42 24 54 76 66 49 50 71 50 89 96 97 95 97 88 86 74 78 83 62 39 34 24 16
21 28 18 15 20 18 18 22 34 61 67 40 33 72 67 73 61 80 75 34 22 58 74 50 41 29 39 60 84 99 98 97 97 92 98 90 89 90 87 90 77 46 20
74 73 38 24 18 18 19 21 34 54 73 84 32 29 58 34 17 14 17 23 72 88 74 63 42 22 35 58 99 97 96 98 96 96 98 89 86 98 90 64 76 50 91
64 50 40 29 17 17 23 23 34 54 55 90 88 22 17 15 15 34 26 88 89 75 70 60 38 21 91 92 100 92 98 92 93 96 95 92 98 98 92 84 94 92 95
100 96 68 30 20 40 39 42 37 60 44 72 67 60 51 40 36 40 49 100 94 72 56 56 94 93 98 97 99 97 94 93 92 91 94 97 92 96 91 95 96 96 96
100 100 100 94 50 69 81 85 86 93 96 85 88 71 76 63 44 31 80 99 95 70 86 87 94 97 99 94 94 96 97 95 94 95 90 92 96 97 95 96 95 97 88
98 100 100 100 97 78 98 97 95 96 93 83 58 67 60 62 51 30 30 94 76 60 75 64 96 99 99 93 98 96 97 92 96 96 96 96 97 94 98 96 96 96 98
97 100 100 100 100 97 89 70 82 85 80 75 54 59 52 44 44 29 97 90 67 60 78 91 89 94 94 93 97 96 98 96 96 96 96 94 90 96 99 97 96 95 95
73 89 100 100 100 80 79 72 65 52 41 40 30 27 32 34 36 48 65 60 57 69 69 99 96 100 86 96 96 97 96 96 96 96 96 96 98 96 94 97 97 99 94
87 64 45 55 62 60 64 72 63 54 39 44 28 26 27 41 52 58 76 76 73 82 65 87 95 97 85 89 97 95 96 96 97 96 96 97 97 98 95 95 96 97 96
100 99 70 30 24 25 36 32 32 32 37 46 53 55 59 61 67 76 68 71 82 94 92 84 84 96 100 97 96 96 97 97 96 97 96 95 96 96 97 97 97 96 96
100 99 100 89 59 94 88 64 70 71 100 78 84 89 81 92 100 99 94 79 97 89 98 96 96 96 96 93 95 97 99 97 97 97 96 95 97 96 97 97 97 97 96
96 93 98 99 98 99 98 99 91 93 97 96 98 98 99 99 99 100 100 94 98 99 97 97 96 98 98 97 98 97 97 97 97 97 97 97 97 97 97 98 97 96 97
100 100 100 98 96 97 100 97 98 99 98 99 99 97 96 91 94 91 94 90 93 95 93 92 91 88 85 86 88 93 95 96 96 97 97 97 96 98 98 98 98 98 98
40 63 74 80 80 85 95 98 97 97 95 90 67 38 29 20 14 14 10 10 9 12 13 15 15 25 21 15 17 22 24 30 37 44 43 63 86 97 97 97 97 97 96
7 7 12 22 11 12 12 9 8 8 6 7 8 9 10 10 9 9 9 9 9 8 8 8 7 7 7 7 6 6 5 5 5 4 5 10 14 22 31 45 80 97 99
13 13 13 12 12 12 11 11 11 11 12 12 12 13 13 12 12 13 13 13 12 12 11 10 11 11 10 10 9 8 8 8 8 8 7 6 5 4 8 26 43 46 53
14 14 15 15 15 15 15 16 16 16 16 17 17 16 16 15 14 13 13 13 13 13 13 12 11 10 11 11 10 10 10 9 8 8 9 10 9 8 7 6 9 19 35
17 17 17 17 17 16 15 15 16 17 18 18 17 16 15 15 15 16 16 16 16 17 16 15 14 13 12 12 12 11 10 10 10 10 10 9 9 12 11 8 8 8 10
18 19 19 19 19 19 19 20 21 22 22 21 21 20 20 19 19 19 20 19 18 16 14 13 12 11 10 9 8 7 7 7 7 7 8 8 9 10 13 13 10 8 9
20 21 23 25 26 26 26 26 26 27 28 28 27 26 26 24 22 22 22 21 20 17 15 12 10 9 8 6 6 5 4 4 4 4 5 5 5 5 5 8 13 10 8
24 25 25 24 25 26 26 25 26 26 27 28 30 36 47 47 44 34 30 27 23 17 13 10 8 6 4 4 3 3 2 2 2 2 2 2 3 3 3 4 4 6 11
23 24 24 26 27 28 29 30 31 32 33 32 34 38 43 51 54 50 44 33 21 14 10 6 4 4 2 2 2 3 4 5 6 9 13 13 11 8 8 6 6 7 6
34 38 41 44 46 48 49 50 48 47 45 45 49 59 61 59 56 49 37 26 17 9 5 3 2 2 3 4 5 7 8 9 10 13 14 19 15 11 15 11 9 14 14
55 59 64 72 85 89 92 94 95 92 84 78 72 66 63 60 54 42 29 16 8 4 3 2 3 4 6 8 10 11 13 21 30 31 25 16 18 23 24 22 15 13 13
54 60 59 63 73 97 98 94 91 86 80 75 69 66 61 57 46 32 14 5 3 3 4 5 6 9 10 11 20 39 48 35 19 14 14 40 46 43 36 32 26 20 17

GFSMW_500_rhum_105.txt.gz
RH
45 37 34 26 21 21 22 19 9 9 20 10 8 61 54 62 77 98 100 96 97 79 78 41 41 36 27 31 46 43 44 70 98 75 81 97 98 96 96 93 97 88 76
48 37 17 13 14 20 23 30 16 18 22 22 27 40 64 54 81 82 95 99 96 96 91 59 40 48 19 42 49 29 49 52 50 62 70 78 82 94 96 94 95 94 94
51 36 37 53 42 33 37 29 20 34 48 30 47 28 62 68 57 54 77 96 85 77 92 80 44 45 22 46 35 24 24 48 75 90 88 98 76 99 94 95 96 90 96
93 96 95 69 59 65 41 27 19 29 100 74 59 45 49 93 72 48 51 92 96 98 62 43 31 21 53 47 30 25 23 30 63 98 96 96 99 96 89 93 97 96 96
87 99 100 100 89 57 38 35 32 53 26 38 34 59 66 78 99 43 32 67 63 37 16 19 22 59 65 60 21 27 25 30 59 79 97 96 85 92 99 99 99 96 95
89 87 100 100 81 89 53 43 36 82 60 50 56 61 61 74 99 85 39 31 48 36 28 35 52 84 74 55 60 74 72 98 95 100 96 84 91 90 90 95 100 95 94
88 97 100 100 100 100 100 100 100 100 94 67 68 72 76 80 92 70 33 28 23 35 54 54 83 94 78 62 68 93 97 100 97 99 88 95 88 88 90 94 98 96 96
100 100 100 100 100 100 100 100 100 100 100 100 100 100 97 89 83 82 82 66 57 48 51 30 31 74 77 63 77 81 98 95 96 97 90 97 97 94 98 96 97 98 97
72 87 88 100 100 100 100 100 100 100 100 100 96 80 59 59 64 64 65 74 82 90 66 56 62 76 74 56 73 96 95 88 91 95 97 97 96 96 97 96 96 96 94
99 60 58 94 95 99 100 100 100 100 94 86 77 65 66 52 55 55 47 42 50 50 52 64 60 57 55 57 74 92 93 90 86 87 97 96 97 97 97 97 97 96 95
97 97 97 28 41 62 71 84 96 90 72 53 46 43 42 32 34 33 45 58 59 69 67 67 81 97 90 60 71 86 82 93 86 96 97 96 96 96 97 97 96 94 98
100 100 100 95 62 39 38 36 36 33 38 48 75 100 100 69 69 69 100 100 100 89 81 95 81 88 89 86 100 95 92 99 97 99 94 96 97 96 96 96 96 96 96
80 95 99 100 99 99 94 91 78 52 82 99 97 99 100 99 100 99 100 99 99 100 99 100 98 94 99 99 96 96 97 96 96 98 97 98 97 97 98 98 96 95 97
64 89 95 90 96 99 97 98 99 99 100 98 99 97 99 99 99 99 98 99 99 99 99 100 99 99 100 100 98 96 95 92 93 94 95 96 97 98 98 97 97 97 97
14 18 29 36 51 82 100 99 99 100 96 98 98 95 62 53 68 76 53 81 34 21 21 32 15 18 14 15 24 20 16 15 14 10 14 14 17 27 35 68 87 96 97
10 10 10 10 9 9 13 23 29 28 38 36 20 13 9 8 9 10 11 11 11 11 11 10 11 11 10 9 10 9 8 8 8 8 8 8 8 7 6 6 8 14 24
14 14 13 13 13 13 13 13 12 12 12 12 12 13 14 15 16 16 16 16 16 15 15 14 15 15 15 14 14 12 12 11 11 10 10 11 11 10 10 10 9 8 7
16 16 17 17 17 16 16 16 17 17 18 19 20 21 22 22 22 21 20 19 18 18 18 19 19 19 19 18 16 15 14 14 14 13 13 13 13 12 12 12 11 11 11
17 18 19 20 20 21 21 21 22 22 23 24 25 26 27 27 27 28 27 27 27 28 27 25 23 22 22 21 19 18 16 15 14 13 13 12 11 11 11 10 10 9 10
18 19 21 22 23 25 26 27 28 28 28 29 29 29 30 30 30 30 30 30 29 31 33 36 32 27 26 26 26 25 22 19 16 12 12 11 10 8 7 6 6 6 5
25 25 25 25 25 25 26 27 28 29 29 29 30 30 31 31 30 30 30 33 38 43 43 42 43 40 36 32 30 28 26 23 19 17 15 14 12 10 8 6 5 4 4
27 29 28 28 29 31 33 36 40 42 43 45 48 51 52 52 52 53 55 57 55 54 52 48 46 45 39 35 31 29 24 17 12 9 7 5 4 4 4 3 3 2 2
37 37 36 40 46 52 64 70 74 79 92 94 86 80 76 75 72 71 72 73 68 60 54 49 47 43 39 35 28 20 13 8 5 4 3 2 2 2 3 3 4 5 5
44 48 51 58 63 65 72 75 71 78 80 76 79 81 71 64 64 69 67 65 63 62 57 50 42 35 30 25 17 7 3 2 2 2 2 3 3 4 5 8 9 11 13
39 44 49 51 50 48 47 48 52 59 67 65 69 77 79 64 65 68 67 68 66 57 47 41 34 26 14 4 2 2 2 3 3 4 4 6 8 8 13 17 19 27 30
36 42 47 50 48 44 41 42 50 63 62 45 52 73 69 70 70 70 76 71 59 42 28 18 12 4 2 2 3 4 5 5 6 12 24 33 39 38 32 29 27 26 26

GFSMW_500_rhum_108.txt.gz
RH
35 36 26 32 35 43 46 43 30 28 12 9 9 9 11 22 28 34 50 53 93 96 97 99 98 98 100 96 95 75 60 51 48 45 35 31 36 63 87 98 86 92 98
39 36 30 36 37 27 30 36 38 36 25 21 19 14 16 13 30 30 44 90 79 95 98 97 97 97 89 72 68 54 51 34 27 44 45 30 37 82 73 85 95 93 94
35 35 40 66 83 77 41 29 24 35 34 26 24 20 17 18 26 46 56 62 75 74 97 98 96 95 80 68 77 55 43 35 24 40 38 23 37 63 68 66 74 88 91
49 43 44 76 75 82 66 69 48 44 42 29 34 30 31 36 41 44 52 72 72 75 85 94 94 93 91 90 92 72 38 37 34 37 26 20 16 34 55 66 66 96 92
64 58 75 87 94 99 94 80 97 76 44 49 32 44 72 52 41 65 73 52 65 62 56 60 70 77 72 81 88 29 34 39 36 38 18 17 16 20 41 79 91 93 97
70 68 69 66 98 100 97 66 52 48 59 55 72 96 98 93 95 100 90 57 67 81 70 52 42 75 85 87 36 20 33 53 57 47 39 33 32 52 75 96 98 92 95
76 77 61 72 94 100 100 73 62 65 56 98 98 100 98 100 95 86 79 73 77 81 75 48 39 60 62 41 31 35 50 67 66 55 49 71 78 99 100 98 99 98 99
98 61 73 75 83 100 100 100 100 100 86 89 98 95 89 64 65 69 64 74 90 64 79 37 29 38 49 40 52 57 72 77 79 70 61 72 81 89 94 94 99 86 86
92 40 81 77 71 94 100 100 100 100 98 100 98 73 54 56 64 86 91 87 90 63 50 47 41 38 41 45 46 38 48 48 70 64 60 80 82 87 86 96 96 90 96
92 92 48 85 84 88 99 100 100 100 100 100 100 97 99 98 99 100 99 98 82 76 76 83 79 77 72 76 63 60 66 71 64 55 66 82 70 85 86 82 97 96 96
95 91 99 44 43 72 80 94 99 100 100 99 99 100 100 98 97 90 72 79 88 79 83 80 65 63 62 68 68 82 84 79 68 60 68 85 93 99 100 98 96 97 96
90 99 99 100 89 43 72 90 83 88 90 82 74 68 90 83 63 53 61 56 39 58 64 61 74 83 98 98 83 91 99 97 71 72 90 96 97 100 99 97 95 94 95
27 66 93 100 100 100 100 93 50 38 43 44 61 86 92 98 100 84 84 72 76 97 98 99 98 99 98 97 89 89 91 99 99 97 98 97 96 98 98 98 97 98 97
9 11 19 32 52 91 99 100 100 99 96 98 98 98 99 99 96 97 99 99 98 98 99 98 100 99 98 98 99 100 100 100 99 99 98 97 97 97 97 98 98 98 98
12 13 13 13 12 12 16 54 74 80 95 100 100 99 100 100 99 94 94 93 84 94 92 84 58 46 68 79 31 71 91 86 90 61 23 19 13 11 12 14 28 19 28
16 16 16 15 16 18 17 14 13 12 12 26 35 50 36 50 47 10 18 10 26 17 11 13 16 14 12 12 12 12 13 12 12 10 9 9 10 10 11 11 11 10 9
17 17 18 17 18 17 17 16 16 16 15 15 14 14 13 13 13 14 14 15 16 16 16 17 18 18 17 16 15 16 17 18 18 17 16 15 14 13 13 12 12 13 12
18 18 18 18 19 19 19 19 18 18 18 18 19 20 21 22 24 25 26 27 28 28 29 28 27 26 26 24 24 21 20 19 20 19 19 19 18 17 15 13 13 13 13
20 19 18 18 19 21 22 24 25 26 27 28 28 29 29 29 29 30 30 30 31 31 31 32 32 32 34 36 37 40 43 46 46 44 38 32 29 26 25 22 19 17 16
21 22 24 25 26 26 26 26 27 27 28 29 29 30 31 33 36 40 44 46 47 47 44 43 40 37 36 38 42 48 47 46 43 41 39 39 38 36 35 34 33 30 24
27 25 25 25 28 30 32 33 33 34 37 42 49 55 64 75 85 87 83 77 71 64 60 59 63 66 62 60 57 55 53 50 46 43 40 36 33 30 27 24 23 22 21
29 31 34 37 40 44 47 49 54 58 59 69 92 97 91 84 78 71 66 62 55 49 46 45 43 44 47 48 46 45 45 44 42 40 37 35 32 28 25 22 19 17 15
27 30 32 37 49 69 84 86 84 96 92 72 59 57 54 49 47 45 41 38 36 39 46 45 44 48 52 52 51 49 49 48 44 40 35 30 25 23 21 18 14 11 8
17 21 25 27 31 37 44 61 93 97 95 96 90 68 48 44 40 35 32 32 39 44 43 45 50 56 60 61 60 53 47 41 36 31 26 18 9 6 4 3 2 2 2
33 25 21 21 23 28 35 43 48 46 43 42 42 42 43 38 38 46 60 62 59 58 64 71 70 69 63 46 36 26 17 12 7 4 3 2 2 2 3 3 3 4 4
65 55 41 36 34 32 35 39 40 40 41 46 53 60 72 82 80 74 74 76 79 82 75 68 58 46 31 18 10 5 3 2 2 3 3 4 4 4 4 5 8 12 15

GFSMW_500_rhum_111.txt.gz
RH
13 15 14 14 17 21 22 20 20 24 26 21 17 17 11 19 18 26 20 20 22 20 15 24 44 96 95 94 87 65 97 90 95 98 93 80 70 53 37 40 34 37 92
18 21 26 29 27 31 32 30 35 37 40 33 34 31 46 25 17 27 21 34 24 24 19 15 32 91 96 97 99 90 94 96 100 94 92 69 46 31 32 40 34 29 39
28 29 38 37 37 37 34 42 51 70 66 57 47 35 64 48 36 32 35 42 45 45 32 35 36 48 97 99 97 97 97 96 93 83 72 49 44 33 30 34 36 27 43
44 45 52 52 42 34 34 46 66 75 76 58 40 43 69 46 43 36 59 45 42 34 32 37 49 45 52 94 97 95 96 96 97 94 84 67 36 32 32 34 28 24 21
49 57 61 50 58 57 55 81 73 83 95 99 38 50 67 69 50 71 89 76 32 34 41 36 42 45 50 75 94 95 96 96 98 96 92 75 41 29 34 33 27 20 19
42 61 64 70 55 65 87 70 59 69 97 98 74 72 72 53 68 98 99 79 59 60 49 32 48 53 44 56 70 88 94 95 95 94 92 72 31 47 40 39 34 31 35
55 55 47 59 58 63 90 95 70 65 85 88 97 100 81 91 98 99 98 100 69 64 82 63 47 50 44 56 68 70 74 88 88 78 45 36 32 43 47 52 44 47 90
56 63 43 62 60 60 72 100 86 67 98 100 100 100 99 100 100 99 95 83 79 94 85 84 59 50 56 61 63 64 50 62 63 51 47 42 53 59 68 66 58 48 68
54 64 70 54 67 59 71 80 99 100 97 100 100 100 97 100 100 99 95 87 54 48 56 59 54 66 75 62 47 51 45 46 57 51 46 43 43 48 57 66 50 53 58
62 64 69 60 65 64 66 75 87 98 96 97 100 96 90 83 81 62 49 49 46 61 67 75 98 93 83 62 38 36 39 37 39 50 48 60 62 61 58 58 56 70 67
25 66 72 74 73 63 63 61 64 71 81 88 94 98 99 100 99 84 78 78 98 100 100 96 97 83 76 71 80 73 74 64 59 60 59 62 64 60 64 61 74 85 95
6 11 36 63 76 76 75 57 68 78 76 75 82 88 86 83 81 82 81 91 97 94 81 98 92 87 84 84 80 72 86 77 80 92 90 96 100 95 88 75 82 84 96
9 9 9 13 11 57 84 80 75 61 48 44 50 48 73 89 89 96 99 100 64 70 76 73 59 76 68 63 67 94 95 98 97 98 95 99 98 97 98 98 98 98 96
11 11 10 10 11 9 9 36 67 79 83 86 93 94 93 97 100 98 94 97 99 98 98 98 73 93 98 98 98 95 96 95 90 98 93 97 98 99 96 97 98 98 97
13 13 13 13 12 13 14 13 12 10 12 31 55 83 93 87 96 96 94 91 96 98 98 95 99 98 98 99 92 92 96 96 88 68 90 98 96 96 97 97 95 86 96
16 16 16 17 17 16 16 15 15 15 14 14 12 12 12 11 11 24 25 19 14 16 15 30 51 31 34 44 46 36 13 12 13 13 13 13 14 13 13 12 14 14 13
20 20 19 19 19 19 20 20 21 21 20 20 20 20 19 19 19 19 20 21 22 22 23 24 24 22 21 20 18 18 17 18 19 20 20 20 18 18 16 16 16 16 14
19 21 22 24 24 24 23 22 23 24 25 26 26 26 25 25 25 26 27 29 30 31 31 32 32 32 32 32 33 32 32 32 31 31 33 36 40 39 34 30 25 22 21
24 24 24 24 24 25 26 28 29 29 29 29 29 30 30 31 31 32 33 34 35 36 38 39 43 50 55 53 52 50 46 43 39 36 35 34 36 39 41 42 42 43 42
24 25 27 28 30 32 34 36 38 40 41 42 41 42 46 50 56 60 65 69 73 87 99 100 91 83 80 73 65 57 52 49 46 44 54 61 62 63 60 56 54 49 48
19 22 24 27 31 33 37 40 43 46 54 72 85 80 80 92 92 94 95 94 94 95 95 92 76 58 49 44 38 34 31 30 30 33 37 40 41 44 49 51 49 47 47
33 19 16 17 20 22 26 28 30 33 38 45 51 67 90 86 72 80 89 96 96 79 58 47 39 34 31 28 28 30 29 29 29 33 34 40 46 48 48 48 48 48 47
32 57 73 64 43 34 29 26 25 27 31 37 45 51 48 48 51 60 58 58 57 54 46 38 36 45 49 48 42 39 42 47 46 48 50 51 54 56 54 52 48 46 43
7 8 9 15 19 35 43 46 48 41 35 36 40 43 44 43 44 50 56 58 58 61 65 62 58 54 58 70 72 67 62 58 55 52 48 43 42 41 40 36 32 30 29
12 11 12 15 16 15 16 22 31 51 48 46 43 44 50 66 88 94 90 88 82 74 73 72 76 76 76 60 46 34 28 20 16 19 19 17 15 14 11 7 6 4 3
15 15 15 16 16 15 15 16 20 37 51 58 66 83 97 98 95 95 100 97 93 94 91 85 80 68 44 25 16 10 8 7 6 8 6 4 4 3 3 3 4 4 4

GFSMW_500_rhum_114.txt.gz
RH
7 9 10 11 15 17 18 15 16 17 18 20 22 22 20 21 18 16 17 18 61 59 53 58 50 40 13 12 40 94 96 96 99 96 97 98 92 89 92 98 94 88 66
16 17 24 28 29 32 40 43 37 38 35 28 27 26 28 28 20 19 18 32 38 58 55 41 25 22 19 14 11 26 96 96 97 96 94 92 84 88 100 96 88 69 41
26 30 31 31 34 36 48 50 44 35 31 32 30 34 37 42 46 47 43 24 53 54 64 54 48 24 18 18 16 15 26 82 94 97 93 90 86 99 99 95 82 58 39
29 30 29 31 33 42 39 34 37 51 53 45 47 53 58 51 60 58 60 63 42 49 98 97 94 30 28 30 24 15 27 64 97 97 94 96 97 98 96 92 72 48 35
28 31 31 36 32 36 39 46 61 49 48 44 79 74 74 63 61 68 77 88 72 76 51 59 52 47 38 36 44 59 55 71 92 98 97 97 98 96 92 82 75 57 48
28 35 40 41 40 36 41 57 62 55 60 72 86 78 88 100 96 75 79 84 93 81 96 96 92 77 65 54 52 50 56 64 75 92 97 96 98 96 94 87 81 64 44
16 34 46 45 48 35 48 62 67 56 71 73 69 66 67 82 99 98 100 100 98 97 96 99 97 99 91 64 68 69 60 50 53 55 73 92 84 96 93 84 65 60 48
7 16 53 46 54 42 45 55 70 46 59 94 96 100 100 100 99 99 98 100 99 99 99 98 89 99 75 62 65 64 58 46 39 40 47 53 63 90 86 67 52 45 44
6 8 44 53 50 48 38 53 60 68 36 69 87 99 99 100 100 95 100 100 100 98 93 62 65 59 53 48 61 76 58 49 46 52 69 69 77 69 71 70 70 96 79
5 6 11 19 50 58 54 42 50 55 66 78 82 82 90 83 89 98 99 98 96 74 57 58 68 67 60 69 73 70 88 90 79 70 64 71 62 61 59 51 55 57 55
7 8 7 8 9 40 62 60 43 46 55 55 62 68 71 75 79 61 56 61 62 59 51 47 48 56 65 70 68 89 91 94 67 42 50 58 56 56 70 68 60 57 64
9 9 10 11 11 8 12 53 68 64 58 52 50 55 60 58 66 72 71 73 75 73 72 84 92 92 78 75 90 98 77 68 70 72 73 72 72 71 69 67 78 85 93
11 11 12 12 13 14 13 10 11 16 54 76 81 77 50 73 97 98 98 92 82 96 85 81 80 83 88 90 98 97 98 99 94 97 97 99 98 99 98 98 96 98 100
16 15 14 14 14 14 16 16 15 14 12 12 24 53 80 86 88 90 89 86 83 94 97 98 99 100 98 100 98 98 98 99 93 91 96 98 97 97 98 98 97 98 98
18 19 19 18 16 15 15 16 17 18 19 18 16 15 12 19 31 34 28 49 83 77 50 61 92 90 97 98 98 98 97 96 96 99 98 99 98 96 95 90 96 99 98
17 18 18 20 21 22 21 20 19 19 19 20 21 21 21 21 20 19 17 16 16 16 16 17 17 16 17 16 16 19 45 73 83 54 87 38 17 20 17 15 14 20 23
22 22 20 20 20 20 21 23 24 25 25 26 26 26 26 27 27 27 27 28 27 27 27 28 29 29 29 29 30 29 28 26 23 22 22 23 21 20 18 19 17 17 18
23 24 23 24 24 25 26 27 29 31 35 37 40 42 42 42 41 39 37 35 35 36 37 37 37 36 35 36 37 38 38 36 36 35 35 35 36 35 34 35 34 33 35
17 16 16 16 16 18 22 26 30 32 35 52 81 88 88 79 77 71 66 65 69 69 68 66 68 70 71 78 89 86 82 90 92 87 80 73 67 63 58 53 53 56 55
17 22 32 36 40 33 32 29 29 27 25 24 27 28 31 36 46 56 76 93 98 100 100 100 98 97 99 97 94 90 90 90 87 75 65 60 57 48 38 35 35 34 34
8 8 8 8 10 17 21 27 28 35 32 35 39 41 37 34 32 36 44 52 55 56 70 86 91 92 92 92 92 89 82 74 63 51 37 28 26 27 27 26 24 22 21
13 14 13 14 13 11 12 14 14 16 17 18 21 30 39 43 41 40 41 42 44 46 48 51 54 53 52 47 44 42 39 38 37 41 43 41 39 37 33 29 28 29 28
18 18 19 17 16 16 16 17 17 16 17 17 18 22 29 42 52 51 50 55 70 83 81 76 76 76 74 68 61 61 65 63 57 57 54 59 61 58 53 51 48 47 47
16 15 17 18 18 19 22 25 23 17 14 13 15 20 28 58 81 87 95 96 94 87 79 73 74 83 91 89 92 91 82 67 61 56 52 45 44 43 40 32 27 30 33
16 15 17 23 29 38 41 40 35 23 19 17 18 28 60 87 100 86 86 91 90 83 84 86 94 94 97 86 60 32 17 12 11 12 10 10 10 9 9 8 8 6 6
24 23 27 34 42 49 50 49 44 31 21 15 19 38 69 93 88 70 82 88 90 91 85 83 86 75 40 16 15 16 15 15 10 8 7 6 5 4 4 4 4 4 4

GFSMW_500_rhum_117.txt.gz
RH
8 6 7 9 8 14 21 18 15 16 16 18 23 22 26 26 24 26 21 20 18 16 23 41 56 62 67 69 72 91 16 21 28 99 74 95 92 97 98 94 98 98 89
7 12 13 16 20 23 21 17 23 19 13 15 40 44 49 47 40 35 27 27 27 27 30 27 43 54 91 92 95 99 59 26 12 39 97 92 86 93 96 97 92 87 87
18 28 24 18 20 25 25 25 24 16 20 27 37 37 34 30 29 28 27 27 29 25 25 45 33 39 42 80 85 94 79 61 21 13 24 70 96 95 94 97 96 92 91
24 20 13 13 28 32 31 28 19 24 42 39 48 27 28 32 36 31 43 46 41 40 36 40 57 73 67 60 65 75 82 53 52 34 34 40 66 92 84 98 97 90 89
14 7 7 9 22 37 32 24 24 34 36 48 59 65 57 64 71 69 69 63 57 52 50 47 72 93 88 91 97 96 94 71 42 67 66 57 99 94 93 98 96 95 98
7 6 5 7 27 36 33 25 27 38 29 28 41 50 83 86 71 76 97 88 74 65 76 63 98 95 96 97 98 98 98 98 74 34 42 50 63 99 99 96 94 98 99
5 5 5 6 22 24 39 34 32 44 38 27 49 71 62 60 95 98 100 91 98 94 100 77 98 98 96 99 98 98 98 97 83 50 42 43 63 74 96 98 95 94 97
4 4 5 7 7 13 45 47 34 42 58 52 44 65 78 86 89 92 92 98 100 99 95 99 99 97 98 97 97 97 96 94 84 71 60 58 54 57 68 76 83 84 92
5 6 6 7 7 7 16 49 50 41 48 54 68 63 72 91 87 54 64 80 95 100 100 100 99 96 99 98 95 74 80 76 53 52 62 71 76 69 60 46 35 34 36
5 6 6 7 8 9 8 12 50 57 55 54 49 52 57 65 64 66 68 81 91 98 96 97 97 94 84 57 51 60 62 55 64 81 70 64 54 48 44 42 49 58 59
5 8 8 9 10 11 12 12 10 16 44 64 65 54 49 51 54 60 61 61 62 70 69 61 51 42 38 38 37 41 50 56 67 68 70 71 80 77 80 70 71 77 71
13 15 15 14 12 12 14 15 15 14 11 12 47 70 78 60 81 79 73 81 77 76 72 67 62 56 58 77 82 82 79 71 73 76 86 88 85 82 48 48 49 60 56
16 17 18 18 19 18 16 15 16 17 18 18 15 13 15 47 82 83 91 100 100 100 86 75 70 75 80 85 83 86 89 96 93 86 95 94 82 69 88 94 78 83 85
16 16 17 18 19 19 21 21 21 20 20 20 21 21 20 18 15 27 48 49 52 47 79 99 100 95 93 99 100 100 96 92 87 96 97 99 100 100 99 100 94 99 99
20 20 21 22 22 21 22 22 23 24 25 26 26 26 26 26 26 25 23 21 19 18 18 17 19 17 17 17 28 24 27 62 95 98 99 95 98 99 99 95 100 100 94
21 22 23 23 24 24 25 26 27 28 29 31 33 36 47 50 44 38 34 33 32 31 29 27 26 26 26 26 26 26 27 28 28 28 28 44 78 93 96 97 78 29 57
17 17 17 18 18 18 18 19 19 19 20 22 24 26 29 33 47 66 78 82 75 63 52 49 49 44 40 39 38 38 38 38 38 38 37 36 35 34 34 34 33 37 55
8 10 11 13 15 16 18 21 27 28 29 29 35 36 35 33 32 32 32 33 36 51 70 86 98 93 83 80 77 69 63 60 59 63 73 87 82 71 64 65 56 46 39
8 8 9 10 10 12 12 12 14 15 16 16 17 17 18 20 22 24 27 34 36 38 43 51 54 54 64 80 89 100 100 100 100 100 100 97 98 94 89 81 80 78 77
12 13 16 18 18 19 20 19 19 19 18 18 18 18 18 18 19 18 19 20 29 40 46 47 49 52 54 58 55 53 51 65 81 89 93 91 92 96 93 86 82 84 72
18 19 20 20 20 22 22 20 19 19 22 22 24 22 20 16 17 18 18 27 50 58 56 57 58 56 56 62 63 54 51 58 64 63 54 47 48 50 52 62 74 76 74
19 18 18 18 18 20 24 26 33 38 40 40 39 39 35 29 20 12 15 30 58 67 67 67 72 72 73 66 67 65 63 62 61 64 66 68 66 60 52 45 37 32 30
22 19 18 20 21 23 27 33 44 48 48 46 45 42 35 17 13 11 18 30 56 46 39 51 70 82 79 78 78 80 85 88 89 90 87 80 76 71 69 65 64 60 55
35 30 25 25 27 28 32 39 51 60 57 52 50 43 24 14 14 16 24 33 36 42 61 66 74 81 86 86 88 89 81 63 44 34 22 20 18 17 16 17 17 21 27
43 42 37 33 34 36 44 53 64 69 66 60 52 43 19 18 22 23 34 44 51 58 66 69 73 75 66 42 23 17 18 18 16 14 14 12 10 9 8 7 6 6 5
49 52 52 46 46 51 66 78 79 78 75 65 56 44 20 19 28 35 46 50 59 64 62 33 8 8 11 16 21 26 35 31 22 18 15 12 10 9 8 7 6 5 5